                ,  2.065,  2.215,  2.365,  2.515,  2.665,  2.815,  2.965,  3.115,  3.265,  3.415,  3.565,  3.715,  3.865,  4.015,  4.165,  4.315,  4.465,  4.615,  4.765,  4.915,  5.065,  5.215,  5.365,  5.515,  5.665,  5.815,  5.965,  6.115,  6.265,  6.415,  6.565,  6.715,  6.865,  7.015,  7.165,  7.315,  7.465,  7.615,  7.765,  7.915,  8.065,  8.215,  8.365,  8.515,  8.665,  8.815,  8.965,  9.115,  9.265,  9.415,  9.565,  9.715,  9.865, 10.015, 10.165, 10.315, 10.465, 10.615, 10.765, 10.915, 11.065, 11.215, 11.365, 11.515, 11.665, 11.815, 11.965, 12.115, 12.265, 12.415, 12.565, 12.715, 12.865, 13.015, 13.165, 13.315, 13.465, 13.615, 13.765, 13.915, 14.065, 14.215, 14.365, 14.515, 14.665, 14.815, 14.965, 15.115, 15.265, 15.415, 15.565, 15.715, 15.865, 16.015, 16.165, 16.315, 16.465, 16.615, 16.765, 16.915, 17.065, 17.215, 17.365, 17.515, 17.665, 17.815, 17.965, 18.115, 18.265, 18.415, 18.565, 18.715, 18.865, 19.015, 19.165, 19.315, 19.465, 19.615, 19.765, 19.915
2003/02/26 00:00,  999.0,    0.3,    0.2,    0.0,    0.1,    0.1,    0.2,    0.2,    0.2,    0.1,    0.1,    0.1,    0.0,    0.1,    0.1,    0.1,    0.1,    0.0,    0.0,   -0.0,   -0.0,   -0.0,    0.0,    0.1,    0.1,    0.1,    0.1,    0.2,    0.1,    0.0,    0.0,   -0.1,   -0.1,   -0.0,    0.1,    0.2,    0.5,    0.3,   -0.3,   -0.3,   -0.3,   -0.3,   -0.3,   -0.2,   -0.1,   -0.1,   -0.0,    0.1,    0.1,    0.0,    0.1,    0.1,    0.1,    0.1,    0.0,    0.1,    0.1,   -0.1,   -0.0,    0.5,    0.1,    0.8,    1.3,  999.0,  999.0,    0.6,   -0.1,    0.0,    0.3,  999.0,    0.1,   -0.0,   -0.0,   -0.1,    0.8,    0.4,    0.7,    0.7,    0.3,    0.5,  999.0,    0.5,    0.2,    0.4,   -0.2,    0.1,    0.3,    1.1,    0.2,    0.1,    0.1,    0.1,   -0.0,  999.0,  999.0,    0.1,    0.3,    0.4,    0.2,    0.2,    0.2,    0.1,    0.1,    0.1,    0.1,    0.1,    0.3,    0.2,    0.1,    0.1,    0.1,  999.0,  999.0,   -0.0,   -0.1,   -0.1,   -0.1,   -0.0,   -0.3,   -0.1
2003/02/26 00:10,    0.9,   -0.2,   -0.1,   -0.3,   -0.3,   -0.5,   -0.3,   -0.2,   -0.1,   -0.1,   -0.1,   -0.1,   -0.1,   -0.1,   -0.0,   -0.1,   -0.0,    0.1,    0.0,    0.1,   -0.0,   -0.1,   -0.0,    0.1,   -0.0,   -0.0,    0.0,   -0.1,    0.0,   -0.0,    0.0,    0.1,    0.1,   -0.0,    0.1,    0.2,    0.1,    0.0,   -0.1,   -0.0,    0.1,    0.1,    0.1,    0.1,    0.0,   -0.0,    0.0,    0.1,    0.1,    0.0,    0.1,    0.1,    0.1,    0.1,   -0.0,   -0.0,    0.0,   -0.1,    0.1,    0.6,    0.2,    0.6,    1.4,  999.0,    0.9,    0.1,   -0.4,   -0.1,    0.3,    0.9,    0.1,    0.0,   -0.1,    0.3,    1.0,    0.3,  999.0,    1.0,    1.2,    0.7,    0.8,    0.7,   -0.6,   -0.0,   -0.4,   -0.1,    0.7,    0.7,    0.1,   -0.1,    0.1,    0.1,    0.1,    0.8,    0.8,    0.9,    0.1,    0.4,    0.1,    0.2,    0.1,    0.1,    0.1,    0.1,    0.1,    0.0,  999.0,    0.1,    0.1,    0.0,    0.0,  999.0,  999.0,   -0.1,   -0.1,   -0.1,   -0.1,  999.0,   -0.0,   -0.0
2003/02/26 00:20,  999.0,    0.4,    0.2,    0.0,    0.0,   -0.1,   -0.2,   -0.1,   -0.1,   -0.0,   -0.0,   -0.1,    0.1,    0.1,    0.1,   -0.0,   -0.0,    0.0,    0.0,    0.0,  999.0,  999.0,   -0.1,   -0.1,    0.1,    0.1,    0.2,    0.1,    0.1,    0.1,    0.1,   -0.1,    0.1,    0.1,    0.1,    0.1,   -0.0,   -0.1,   -0.1,   -0.0,    0.1,    0.0,   -0.0,   -0.1,   -0.0,   -0.1,   -0.1,   -0.0,    0.0,   -0.0,    0.1,    0.1,    0.1,    0.0,    0.0,    0.0,    0.4,    0.0,    0.6,    0.9,    0.2,    0.9,  999.0,  999.0,    1.3,    0.4,    0.2,    0.1,    0.4,    1.3,    0.7,    0.2,    0.1,    0.6,    1.2,    0.2,    0.8,    1.1,    0.9,    0.9,  999.0,    1.4,   -0.3,    0.3,    0.0,   -0.0,    1.3,    0.5,    0.3,    0.1,    0.1,    0.1,    0.3,    0.7,    0.5,    0.9,    0.0,  999.0,   -0.0,   -0.1,   -0.1,   -0.0,   -0.0,  999.0,   -0.0,    0.0,   -0.1,  999.0,   -0.0,   -0.1,   -0.0,   -0.1,    0.0,    0.0,    0.0,    0.0,    0.0,   -0.1,    0.0,  999.0
2003/02/26 00:30,   -0.4,   -0.1,   -0.1,   -0.0,   -0.1,   -0.1,   -0.2,   -0.1,   -0.2,   -0.2,   -0.1,   -0.1,   -0.2,   -0.2,   -0.2,   -0.3,   -0.3,   -0.2,   -0.2,   -0.3,   -0.3,   -0.3,   -0.3,   -0.1,   -0.1,   -0.1,   -0.1,    0.1,    0.2,    0.3,    0.2,    0.1,    0.1,    0.1,    0.1,    0.1,   -0.1,   -0.1,   -0.0,    0.1,    0.1,    0.1,    0.2,    0.1,    0.3,   -0.0,   -0.1,   -0.0,    0.1,    0.0,    0.1,    0.0,    0.1,    0.2,    0.1,    0.1,    0.3,    0.1,    0.4,    0.9,    0.3,    0.4,    1.3,  999.0,  999.0,    0.4,    0.2,    0.1,    0.5,  999.0,    0.3,    0.5,    0.3,    0.7,  999.0,    0.7,    0.8,    1.9,    0.9,    1.1,  999.0,    0.5,    0.3,    0.7,    0.3,    0.4,  999.0,    0.7,    0.5,    0.4,    0.2,    0.3,    0.3,    0.7,    0.6,    0.2,    0.0,    0.1,   -0.0,   -0.2,   -0.1,   -0.2,   -0.2,  999.0,   -0.1,   -0.1,   -0.1,   -0.0,   -0.1,   -0.1,   -0.1,   -0.2,    0.0,    0.1,    0.1,    0.1,    0.1,    0.0,    0.0,  999.0
2003/02/26 00:40,    0.3,   -0.0,   -0.0,   -0.0,   -0.1,   -0.1,   -0.1,   -0.1,    0.0,    0.0,    0.1,    0.2,    0.2,    0.1,    0.1,    0.1,    0.0,    0.1,    0.1,    0.0,    0.0,    0.0,    0.1,    0.1,    0.1,    0.0,   -0.1,    0.0,   -0.1,   -0.1,   -0.1,   -0.1,   -0.1,   -0.2,   -0.1,   -0.2,   -0.2,   -0.2,   -0.0,    0.0,    0.0,    0.0,    0.1,    0.1,    0.1,    0.1,    0.0,    0.0,   -0.1,    0.1,    0.1,    0.1,    0.1,    0.1,    0.2,    0.2,    0.2,    0.1,    0.2,    0.3,    0.2,    0.3,    0.8,    0.7,  999.0,    0.5,    0.4,    0.2,    0.6,  999.0,    0.3,    0.6,    0.3,    0.5,    0.7,    1.0,    0.7,    1.2,    0.9,    0.4,  999.0,    0.3,    0.1,    0.4,    0.2,    0.3,    1.0,    0.7,    0.3,    0.2,    0.1,    0.1,    0.3,    0.7,    0.7,    0.1,    0.2,    0.1,   -0.0,   -0.0,   -0.0,   -0.0,  999.0,  999.0,   -0.1,   -0.0,  999.0,    0.0,    0.0,    0.1,    0.1,  999.0,    0.0,   -0.0,   -0.0,   -0.1,   -0.2,   -0.1,  999.0,  999.0
2003/02/26 00:50,    0.2,    0.0,   -0.0,   -0.2,   -0.2,   -0.1,   -0.1,   -0.0,    0.1,    0.1,    0.0,    0.2,    0.1,    0.1,    0.2,    0.1,    0.0,    0.1,    0.1,    0.1,  999.0,   -0.1,   -0.1,    0.1,    0.1,   -0.0,   -0.0,    0.0,    0.0,   -0.0,   -0.0,   -0.0,   -0.0,   -0.0,   -0.1,   -0.0,    0.0,    0.0,    0.1,    0.1,    0.0,    0.0,    0.1,    0.1,    0.1,    0.1,    0.0,    0.0,   -0.0,   -0.0,    0.1,    0.0,   -0.0,   -0.0,    0.1,    0.1,    0.1,    0.1,    0.1,    0.0,    0.1,    0.1,    0.1,    0.1,    0.1,    0.1,    0.1,    0.1,    0.1,    0.1,   -0.1,    0.1,    0.1,    0.0,    0.1,  999.0,    0.2,    0.4,   -0.1,   -0.0,    0.1,   -0.0,   -0.0,    0.1,    0.1,   -0.5,    0.1,    0.0,    0.1,    0.1,    0.1,    0.1,    0.1,    0.2,    0.1,    0.1,    0.2,  999.0,   -0.0,   -0.0,    0.1,    0.1,    0.0,  999.0,    0.1,   -0.0,  999.0,  999.0,    0.1,    0.0,    0.0,    0.0,   -0.1,   -0.0,   -0.0,   -0.0,   -0.3,  999.0,    0.1,  999.0
2003/02/26 01:00,    1.1,    0.1,    0.1,    0.1,    0.1,    0.1,    0.2,    0.2,    0.2,    0.1,    0.1,    0.2,    0.1,    0.2,    0.1,    0.1,    0.1,    0.1,    0.1,    0.2,    0.2,    0.1,    0.1,    0.1,    0.2,    0.1,    0.2,    0.1,    0.1,    0.1,   -0.0,    0.0,    0.0,    0.0,   -0.0,   -0.1,   -0.1,    0.0,    0.0,   -0.0,   -0.1,   -0.0,   -0.1,    0.0,   -0.0,    0.1,    0.1,    0.2,    0.2,    0.1,    0.1,    0.1,    0.1,    0.0,    0.1,    0.3,    0.5,    0.2,    0.3,    0.7,    0.2,    0.3,    0.7,  999.0,    0.6,  999.0,    0.3,    0.1,    0.9,    1.2,    0.1,    1.0,    0.8,    1.0,    1.6,  999.0,    1.2,  999.0,    1.0,    1.0,    0.3,    0.2,    0.0,    0.4,   -0.0,   -0.3,    1.1,    1.0,    0.1,    0.2,    0.1,   -0.0,    0.7,    1.0,  999.0,   -0.1,   -0.0,   -0.0,   -0.1,   -0.1,    0.1,    0.0,    0.1,  999.0,    0.1,   -0.1,  999.0,  999.0,    0.1,   -0.1,    0.1,  999.0,    0.0,    0.1,    0.1,    0.1,   -0.0,   -0.0,  999.0,    0.1
2003/02/26 01:10,    1.0,   -0.1,    0.0,   -0.0,   -0.1,   -0.1,   -0.1,   -0.1,   -0.0,   -0.0,   -0.0,    0.1,    0.1,    0.1,    0.1,    0.1,    0.1,    0.2,    0.1,    0.1,    0.0,    0.0,    0.0,    0.1,   -0.1,    0.0,    0.1,    0.1,    0.0,    0.0,    0.0,    0.0,    0.0,    0.0,    0.0,    0.0,    0.0,    0.0,   -0.1,    0.0,   -0.1,   -0.1,   -0.1,   -0.1,   -0.0,   -0.1,    0.1,    0.2,    0.2,    0.2,    0.2,    0.2,    0.1,    0.1,    0.1,  999.0,    0.3,    0.3,    0.4,    0.8,    0.4,    0.4,    0.5,    0.7,  999.0,  999.0,    0.4,    0.2,    0.8,  999.0,    0.5,    1.0,    2.2,    1.4,  999.0,    0.7,    1.1,  999.0,    0.3,    0.5,    0.2,    0.2,    0.0,    1.1,    0.1,    0.2,  999.0,  999.0,    0.2,    0.1,    0.1,    0.1,    0.7,  999.0,  999.0,   -0.1,    0.0,   -0.1,   -0.0,    0.1,    0.2,    0.1,    0.0,  999.0,   -0.1,   -0.1,  999.0,   -0.0,   -0.0,   -0.0,   -0.0,  999.0,    0.0,   -0.0,    0.0,    0.0,   -0.0,   -0.0,  999.0,    0.0
2003/02/26 01:20,  999.0,   -0.2,   -0.1,   -0.1,   -0.1,   -0.2,   -0.1,   -0.1,   -0.1,   -0.1,   -0.1,   -0.1,   -0.1,   -0.0,    0.0,    0.0,    0.1,    0.2,    0.2,    0.1,    0.2,    0.2,    0.1,    0.1,    0.1,    0.1,    0.1,    0.1,    0.1,    0.1,    0.1,    0.0,    0.0,   -0.1,    0.0,    0.1,    0.2,    0.1,    0.0,    0.1,   -0.0,   -0.0,   -0.0,    0.0,   -0.0,   -0.1,    0.0,    0.2,    0.1,    0.1,   -0.0,   -0.0,   -0.0,   -0.0,    0.1,    0.1,    0.6,   -0.0,    0.3,    0.9,    0.2,    0.4,    0.9,    0.8,    1.4,    1.2,   -0.2,   -0.0,    0.7,  999.0,   -0.0,    0.1,    0.2,    0.8,  999.0,    0.0,    0.6,    1.1,   -0.0,    0.1,   -0.2,    0.0,   -0.1,    0.7,   -0.3,  999.0,  999.0,  999.0,   -0.2,   -0.2,   -0.1,    0.1,    0.9,  999.0,  999.0,   -0.0,    0.1,    0.0,    0.0,    0.1,    0.2,    0.1,    0.1,  999.0,   -0.0,  999.0,  999.0,   -0.1,   -0.1,   -0.0,   -0.0,   -0.1,   -0.0,   -0.0,   -0.0,   -0.0,   -0.1,   -0.1,  999.0,    0.1
2003/02/26 01:30,    1.1,   -0.0,    0.0,   -0.0,    0.0,   -0.0,    0.0,    0.0,   -0.0,    0.0,    0.0,    0.2,    0.2,    0.2,    0.2,    0.2,    0.2,    0.2,    0.3,    0.2,    0.2,    0.2,    0.1,    0.1,    0.1,  999.0,  999.0,   -0.1,   -0.1,   -0.1,   -0.1,   -0.1,   -0.2,   -0.1,   -0.0,   -0.0,   -0.1,   -0.1,   -0.0,    0.1,    0.1,    0.2,    0.2,    0.1,    0.1,    0.1,    0.1,    0.2,    0.1,    0.1,   -0.1,   -0.1,   -0.1,   -0.0,   -0.1,    0.0,    0.5,   -0.0,    0.2,    0.7,   -0.0,    0.2,  999.0,    0.5,    0.8,    0.1,    0.0,   -0.0,  999.0,  999.0,    0.4,    0.3,    0.3,    0.2,  999.0,    0.3,  999.0,    0.5,    0.3,    0.4,   -0.0,    0.2,    0.1,  999.0,    0.9,  999.0,    1.3,  999.0,    0.3,    0.2,    0.1,    0.2,    0.7,  999.0,  999.0,   -0.1,  999.0,   -0.1,   -0.1,    0.0,    0.1,    0.1,    0.0,  999.0,   -0.0,   -0.0,   -0.1,   -0.1,   -0.1,   -0.0,   -0.1,   -0.1,   -0.0,   -0.0,    0.0,   -0.0,   -0.0,   -0.2,  999.0,    0.1
2003/02/26 01:40,    0.1,    0.0,    0.0,   -0.0,   -0.1,   -0.2,   -0.2,   -0.2,   -0.2,   -0.2,   -0.1,   -0.0,   -0.0,    0.0,   -0.0,    0.0,    0.0,    0.2,    0.1,    0.2,    0.2,    0.2,    0.2,    0.1,    0.2,    0.1,    0.1,    0.1,    0.1,    0.1,    0.1,    0.1,    0.1,    0.1,    0.1,    0.1,    0.1,    0.0,    0.0,    0.1,    0.1,    0.1,    0.1,    0.1,    0.0,   -0.1,   -0.1,    0.1,    0.0,   -0.1,   -0.2,   -0.2,   -0.1,   -0.1,   -0.1,   -0.1,    0.6,   -0.1,    0.2,    0.7,   -0.1,    0.5,    0.8,    1.1,    0.6,   -0.0,   -0.1,    0.0,    0.7,  999.0,    0.5,    0.3,    0.9,    0.5,    1.1,    0.1,    0.7,    0.7,    0.2,    0.6,    0.3,    0.3,    0.4,  999.0,  999.0,  999.0,    1.1,  999.0,    0.4,    0.3,    0.4,    0.3,    1.0,    1.5,    0.8,   -0.1,  999.0,    0.0,    0.1,   -0.1,   -0.0,    0.1,    0.0,  999.0,    0.1,    0.1,    0.0,   -0.0,   -0.0,   -0.0,    0.0,   -0.0,   -0.0,    0.1,    0.1,    0.0,    0.0,   -0.0,  999.0,    0.1
2003/02/26 01:50,    0.2,    0.2,    0.2,    0.3,    0.1,   -0.0,   -0.0,   -0.1,   -0.1,   -0.2,   -0.1,   -0.1,   -0.0,    0.0,    0.1,   -0.0,  999.0,    0.0,  999.0,    0.0,    0.1,    0.1,    0.1,    0.0,    0.0,  999.0,  999.0,  999.0,   -0.0,   -0.0,  999.0,  999.0,   -0.0,  999.0,    0.0,    0.1,    0.1,    0.1,   -0.1,   -0.1,   -0.0,   -0.0,   -0.0,   -0.1,   -0.1,   -0.1,    0.1,    0.2,    0.1,    0.0,    0.1,    0.1,    0.1,    0.1,    0.3,    0.1,    0.8,    0.2,    0.3,    0.7,    0.0,    0.6,    0.8,    0.8,  999.0,    0.2,   -0.0,    0.1,    0.6,  999.0,    0.4,    0.4,    0.0,    1.1,  999.0,    0.0,    0.6,    0.7,    0.2,    0.4,    0.6,    0.5,    0.3,  999.0,  999.0,  999.0,    1.5,  999.0,    0.3,    0.1,    0.1,    0.2,  999.0,  999.0,    0.4,   -0.0,  999.0,    0.0,    0.0,   -0.0,   -0.0,    0.0,    0.0,  999.0,   -0.1,   -0.2,   -0.0,   -0.0,   -0.0,    0.0,  999.0,    0.1,    0.0,    0.0,   -0.0,   -0.0,   -0.0,  999.0,  999.0,    0.0
2003/02/26 02:00,    0.0,    0.1,    0.2,    0.3,    0.2,    0.3,    0.4,    0.2,    0.1,    0.0,    0.0,    0.0,   -0.0,   -0.1,   -0.1,   -0.1,   -0.1,   -0.1,    0.1,    0.1,    0.1,    0.1,   -0.0,   -0.1,    0.1,   -0.1,   -0.1,   -0.0,   -0.1,   -0.0,   -0.1,    0.0,    0.0,   -0.0,   -0.0,   -0.0,   -0.1,   -0.1,   -0.1,   -0.1,    0.0,    0.1,   -0.1,   -0.1,   -0.1,   -0.1,    0.1,    0.1,    0.1,   -0.0,    0.0,   -0.0,    0.0,    0.1,    0.1,    0.2,    0.7,    0.0,    0.5,    0.7,   -0.1,    1.1,    1.4,    0.4,    0.2,    0.1,   -0.0,    0.0,    1.3,    1.1,    0.3,    0.3,   -0.1,    0.7,    1.1,   -0.3,    0.1,    0.2,    0.3,    1.0,  999.0,    0.2,   -0.1,  999.0,  999.0,    0.1,  999.0,  999.0,    0.3,   -0.1,   -0.2,   -0.0,    1.1,    1.3,    0.0,   -0.1,  999.0,    0.0,    0.1,    0.1,    0.0,    0.1,    0.1,  999.0,   -0.0,  999.0,    0.0,   -0.0,   -0.1,   -0.1,  999.0,   -0.1,   -0.1,    0.0,   -0.1,   -0.0,   -0.0,  999.0,  999.0,    0.1
2003/02/26 02:10,   -0.1,   -0.1,   -0.2,    0.1,    0.3,    0.3,    0.3,    0.2,    0.0,   -0.1,   -0.1,   -0.2,   -0.3,   -0.4,   -0.3,   -0.3,   -0.2,   -0.3,   -0.2,   -0.2,    0.1,    0.1,    0.2,    0.1,    0.1,    0.1,   -0.1,   -0.1,   -0.1,   -0.0,   -0.2,   -0.1,   -0.2,   -0.2,    0.0,   -0.0,   -0.0,    0.0,    0.1,    0.1,    0.1,    0.1,   -0.0,   -0.0,   -0.1,   -0.1,   -0.0,    0.0,   -0.1,   -0.1,   -0.0,   -0.1,   -0.1,   -0.0,    0.0,    0.2,    0.8,   -0.0,    0.3,    0.8,   -0.1,    0.5,    0.4,    0.0,   -0.0,    0.2,    0.2,    0.1,    0.8,  999.0,    0.3,    0.2,    0.0,    0.6,  999.0,   -0.0,    0.9,    1.0,    0.6,    1.1,  999.0,    0.2,    0.0,  999.0,   -0.2,  999.0,  999.0,  999.0,    0.3,   -0.1,   -0.1,   -0.1,  999.0,    1.5,   -0.1,    0.0,  999.0,    0.1,  999.0,    0.1,    0.1,    0.1,    0.1,  999.0,   -0.0,  999.0,    0.0,   -0.0,   -0.1,   -0.0,  999.0,    0.0,    0.0,    0.1,    0.1,    0.1,    0.2,  999.0,  999.0,    0.1
2003/02/26 02:20,    0.1,    0.1,    0.1,    0.2,    0.2,    0.2,    0.1,    0.1,    0.0,   -0.1,   -0.0,   -0.1,   -0.0,   -0.0,   -0.1,   -0.1,   -0.1,   -0.2,   -0.1,   -0.1,   -0.1,   -0.0,    0.1,    0.1,   -0.1,   -0.1,   -0.1,   -0.1,   -0.1,   -0.1,   -0.1,   -0.1,   -0.0,   -0.0,    0.0,   -0.1,   -0.1,    0.0,    0.1,    0.1,    0.2,    0.1,    0.0,    0.1,   -0.0,    0.0,    0.1,    0.1,    0.0,   -0.1,   -0.1,   -0.0,   -0.0,    0.1,    0.0,    0.2,    0.5,    0.1,    0.2,    0.7,    0.2,    0.4,    0.8,    0.3,    0.2,    0.1,    0.2,    0.3,    0.9,  999.0,    0.4,    0.4,    0.4,    0.6,  999.0,    0.4,    1.2,    1.0,    0.5,    0.7,  999.0,    0.3,    0.8,  999.0,   -0.1,    0.7,  999.0,    1.3,    0.4,    0.1,    0.1,    0.1,    1.1,  999.0,   -0.0,  999.0,  999.0,   -0.0,  999.0,   -0.0,   -0.0,   -0.0,    0.0,  999.0,    0.0,  999.0,   -0.0,   -0.0,   -0.1,   -0.1,  999.0,    0.1,    0.0,    0.1,    0.1,    0.2,    0.1,  999.0,  999.0,  999.0
2003/02/26 02:30,   -0.0,    0.0,    0.2,    0.2,    0.2,    0.2,    0.1,    0.1,    0.0,    0.0,    0.0,   -0.0,   -0.0,   -0.0,   -0.0,   -0.1,   -0.1,   -0.1,   -0.1,   -0.1,   -0.1,   -0.2,   -0.2,   -0.1,   -0.1,   -0.1,   -0.3,   -0.4,   -0.4,   -0.3,   -0.2,   -0.2,   -0.1,   -0.0,   -0.0,   -0.1,   -0.2,   -0.1,   -0.1,   -0.0,    0.1,    0.1,    0.0,   -0.0,    0.1,    0.0,    0.1,    0.1,    0.1,    0.1,    0.1,    0.2,    0.2,    0.1,    0.1,    0.2,    0.4,    0.1,    0.2,    0.7,    0.2,    0.5,    1.1,    0.4,    0.3,    0.2,    0.2,    0.2,    0.8,  999.0,    0.3,    0.6,    0.1,    0.9,  999.0,    0.9,    0.5,    0.4,    0.3,    1.2,    0.4,    0.3,    0.6,  999.0,    0.2,  999.0,  999.0,  999.0,    0.3,    0.1,    0.1,    0.2,  999.0,  999.0,    0.0,    1.0,  999.0,    0.0,    0.0,    0.0,    0.1,    0.1,    0.1,   -0.0,   -0.0,  999.0,    0.0,    0.0,    0.1,    0.0,  999.0,    0.1,    0.1,    0.1,    0.0,    0.1,    0.0,  999.0,  999.0,  999.0
2003/02/26 02:40,   -0.0,   -0.2,   -0.3,   -0.2,    0.0,    0.3,    0.2,    0.2,    0.1,    0.1,    0.1,    0.2,    0.1,    0.1,    0.0,   -0.1,   -0.1,   -0.1,   -0.1,    0.0,    0.0,    0.0,    0.0,    0.0,   -0.1,   -0.2,   -0.3,   -0.3,   -0.3,   -0.3,   -0.2,   -0.2,   -0.2,   -0.1,   -0.1,   -0.2,   -0.2,   -0.2,   -0.2,   -0.1,   -0.1,   -0.1,   -0.0,   -0.0,   -0.0,   -0.1,   -0.0,    0.0,    0.0,    0.0,   -0.0,   -0.1,    0.0,   -0.1,    0.1,    0.1,    0.6,    0.1,    0.1,    0.5,    0.2,    0.5,  999.0,    0.5,    0.3,    0.1,    0.2,    0.2,    0.9,  999.0,    0.6,    0.4,   -0.0,    0.9,  999.0,    0.3,   -0.0,    0.0,    0.2,  999.0,    0.2,    0.2,    0.0,    0.4,   -0.0,    0.6,  999.0,  999.0,    0.2,   -0.0,   -0.1,   -0.0,    0.6,  999.0,    0.0,  999.0,  999.0,    0.2,    0.2,    0.2,    0.2,    0.2,    0.2,    0.1,    0.1,  999.0,   -0.0,   -0.1,   -0.0,   -0.0,  999.0,   -0.1,   -0.0,    0.1,    0.1,    0.0,    0.0,   -0.1,  999.0,  999.0
2003/02/26 02:50,   -0.1,   -0.1,   -0.4,   -0.5,    0.1,   -0.0,   -0.0,   -0.0,   -0.0,   -0.1,   -0.1,   -0.1,   -0.0,    0.1,    0.0,   -0.1,   -0.1,   -0.1,   -0.1,   -0.1,   -0.1,   -0.1,   -0.1,   -0.1,   -0.3,   -0.2,   -0.2,   -0.2,   -0.1,   -0.1,   -0.2,   -0.1,   -0.1,   -0.1,   -0.1,   -0.1,   -0.1,   -0.0,    0.0,    0.0,    0.0,    0.1,   -0.0,    0.1,    0.0,   -0.1,   -0.0,    0.0,   -0.0,   -0.0,   -0.1,   -0.0,   -0.1,   -0.1,   -0.1,   -0.1,    0.7,   -0.0,    0.1,    0.6,    0.6,    1.0,    1.3,  999.0,  999.0,    0.4,    0.5,    0.7,  999.0,  999.0,    0.9,    0.7,    1.8,    1.0,  999.0,   -0.0,    0.1,    0.1,    0.2,    0.8,   -0.2,    0.1,    0.4,  999.0,    0.1,    0.3,  999.0,    0.8,    0.3,   -0.1,   -0.1,   -0.0,  999.0,  999.0,    0.0,  999.0,  999.0,    0.1,    0.1,   -0.0,    0.0,    0.0,    0.1,  999.0,    0.1,    0.1,    0.1,    0.1,    0.1,    0.1,  999.0,    0.0,    0.0,  999.0,    0.0,    0.0,   -0.0,   -0.1,  999.0,  999.0
2003/02/26 03:00,    0.1,    0.0,   -0.2,   -0.5,   -0.4,   -0.3,   -0.2,   -0.2,   -0.2,   -0.2,   -0.2,   -0.1,   -0.1,   -0.1,   -0.1,   -0.1,   -0.1,   -0.1,   -0.1,   -0.1,   -0.1,   -0.1,   -0.1,   -0.1,   -0.1,   -0.1,   -0.1,   -0.1,   -0.1,   -0.0,    0.1,    0.1,    0.1,   -0.1,    0.1,   -0.0,    0.1,    0.1,    0.1,    0.1,    0.1,    0.1,    0.1,    0.4,    0.1,    0.1,    0.1,    0.1,    0.1,    0.1,    0.0,    0.0,    0.0,   -0.0,   -0.1,    0.1,    0.5,   -0.1,    0.1,    0.7,    0.1,    0.3,    1.2,   -0.0,   -0.0,    0.2,    0.2,    0.3,  999.0,  999.0,  999.0,    0.7,    0.2,    0.9,  999.0,   -0.2,   -0.0,    0.2,    0.3,    0.3,  999.0,    0.2,    0.5,  999.0,   -0.2,   -0.0,    0.6,    0.2,    0.1,    0.0,   -0.1,   -0.2,  999.0,  999.0,    0.4,  999.0,   -0.0,   -0.1,   -0.1,   -0.1,   -0.1,   -0.1,   -0.1,  999.0,    0.1,    0.1,    0.1,    0.1,    0.1,    0.1,  999.0,    0.0,    0.0,   -0.0,   -0.0,   -0.0,   -0.0,  999.0,  999.0,   -0.1
2003/02/26 03:10,    0.1,    0.0,   -0.2,   -0.2,   -0.1,   -0.2,   -0.1,   -0.1,   -0.1,   -0.2,   -0.2,   -0.2,   -0.2,   -0.1,   -0.1,   -0.1,   -0.1,   -0.1,   -0.1,    0.0,   -0.1,   -0.0,    0.0,    0.0,    0.0,    0.1,    0.1,    0.3,    0.2,   -0.0,   -0.1,   -0.1,   -0.1,   -0.0,   -0.0,   -0.0,    0.0,   -0.0,    0.0,    0.0,    0.1,    0.0,   -0.0,   -0.1,   -0.1,   -0.0,    0.0,    0.1,    0.1,    0.0,    0.0,   -0.0,    0.0,    0.1,    0.1,    0.1,    0.6,    0.1,    0.4,    0.7,    0.2,    0.6,  999.0,    0.4,    0.4,    0.2,    0.3,    0.0,    1.0,  999.0,    0.8,    1.3,    0.4,    0.6,  999.0,   -0.2,   -0.0,   -0.1,   -0.0,    0.0,  999.0,    0.5,    0.1,  999.0,    0.0,    0.1,    0.4,    0.3,    0.3,    0.1,    0.1,   -0.0,    0.6,  999.0,    0.9,  999.0,   -0.1,   -0.1,   -0.1,   -0.1,   -0.1,   -0.1,   -0.1,  999.0,  999.0,    0.0,   -0.0,    0.0,    0.1,    0.1,  999.0,  999.0,   -0.0,   -0.1,   -0.0,   -0.1,   -0.1,  999.0,  999.0,    0.0
2003/02/26 03:20,    0.4,    0.1,    0.0,   -0.2,   -0.3,   -0.3,   -0.2,   -0.1,   -0.0,   -0.0,    0.1,   -0.0,   -0.1,   -0.1,   -0.1,   -0.2,   -0.1,   -0.0,   -0.0,    0.1,    0.2,    0.2,    0.0,    0.0,    0.2,    0.1,   -0.0,   -0.0,   -0.1,   -0.1,   -0.2,   -0.1,   -0.2,   -0.0,   -0.1,   -0.1,   -0.1,   -0.1,   -0.1,   -0.0,   -0.0,   -0.1,   -0.1,   -0.2,   -0.1,   -0.1,   -0.0,    0.1,   -0.0,   -0.1,   -0.0,   -0.1,    0.0,    0.1,    0.1,    0.2,    0.6,    0.0,    0.2,    0.8,    0.1,    0.3,    0.6,   -0.1,    0.5,    0.3,    0.3,    0.3,    0.7,  999.0,    0.3,    0.7,   -0.1,    0.4,    1.1,   -0.1,    0.2,    0.3,    0.4,    0.4,    0.5,    0.4,    0.7,    1.4,  999.0,    0.2,    0.8,    0.9,    0.4,    0.2,    0.2,    0.1,    0.9,    1.4,    0.7,  999.0,    0.0,    0.1,    0.0,   -0.0,    0.0,    0.0,    0.0,  999.0,  999.0,   -0.1,  999.0,    0.0,    0.0,    0.1,    0.1,    0.0,   -0.1,   -0.0,   -0.0,   -0.1,   -0.1,  999.0,  999.0,   -0.0
2003/02/26 03:30,   -0.0,    0.1,    0.0,    0.0,   -0.0,   -0.1,   -0.0,    0.1,   -0.0,   -0.0,   -0.1,   -0.1,   -0.0,   -0.1,   -0.0,   -0.0,    0.0,    0.1,   -0.0,    0.0,    0.1,    0.0,    0.0,   -0.0,   -0.1,   -0.0,   -0.1,   -0.1,   -0.0,   -0.1,  999.0,    0.0,   -0.1,   -0.1,    0.0,    0.1,    0.0,  999.0,    0.1,    0.1,    0.2,    0.2,    0.1,    0.1,    0.0,   -0.0,    0.0,    0.0,    0.0,   -0.0,   -0.0,   -0.0,   -0.0,    0.0,    0.0,    0.1,  999.0,    0.1,    0.6,    0.6,    0.0,    0.3,    0.4,    0.0,   -0.1,   -0.1,   -0.0,   -0.1,  999.0,  999.0,    0.3,    0.2,    0.3,    0.4,  999.0,   -0.1,    0.2,    0.2,    0.9,    0.9,  999.0,    0.6,    0.4,  999.0,  999.0,   -0.2,    0.5,    0.3,    0.0,    0.0,    0.0,   -0.2,    0.1,  999.0,  999.0,  999.0,   -0.1,    0.1,    0.0,    0.0,    0.0,    0.0,   -0.0,  999.0,   -0.1,   -0.1,   -0.1,   -0.0,   -0.0,   -0.0,    0.0,    0.0,    0.0,    0.1,    0.1,    0.1,    0.1,  999.0,  999.0,  999.0
2003/02/26 03:40,   -0.0,   -0.1,   -0.2,   -0.1,   -0.2,   -0.2,   -0.1,   -0.1,    0.0,    0.1,    0.1,    0.0,    0.2,   -0.0,    0.0,    0.0,    0.2,    0.1,    0.1,    0.1,    0.1,   -0.0,  999.0,    0.0,   -0.1,   -0.1,   -0.2,   -0.2,   -0.1,   -0.1,  999.0,  999.0,    0.0,  999.0,    0.0,   -0.0,   -0.1,  999.0,  999.0,    0.1,    0.2,    0.1,    0.1,    0.2,    0.0,    0.0,    0.1,   -0.0,    0.0,    0.0,    0.0,    0.0,    0.1,    0.1,    0.1,    0.0,  999.0,    0.1,    0.2,    0.4,    0.1,    0.5,    0.6,    0.2,    0.1,    0.1,   -0.1,   -0.2,    0.5,  999.0,    0.3,    0.1,    0.1,    0.3,    0.8,    0.1,    0.3,    0.6,    0.5,    1.6,  999.0,    0.7,    0.4,    1.3,  999.0,    0.2,    0.2,    0.4,    0.3,    0.2,    0.1,    0.1,    1.1,    1.7,  999.0,  999.0,  999.0,    0.0,   -0.0,    0.0,    0.0,    0.0,  999.0,  999.0,    0.0,    0.1,    0.0,   -0.0,   -0.0,   -0.0,   -0.0,  999.0,    0.1,    0.1,    0.1,    0.1,    0.1,  999.0,    0.1,    0.1
2003/02/26 03:50,    0.1,    0.0,    0.0,   -0.1,   -0.2,   -0.1,   -0.2,   -0.1,   -0.1,   -0.1,    0.0,    0.1,    0.1,    0.1,    0.1,    0.1,    0.2,    0.2,    0.1,   -0.0,   -0.1,   -0.1,   -0.1,   -0.2,   -0.2,   -0.2,   -0.2,   -0.1,   -0.1,    0.0,    0.1,    0.1,    0.0,   -0.1,   -0.0,   -0.1,    0.0,    0.1,   -0.1,    0.0,    0.2,   -0.0,    0.0,    0.2,   -0.1,   -0.2,   -0.2,   -0.1,   -0.2,   -0.1,   -0.1,   -0.1,   -0.1,   -0.1,   -0.1,    0.1,  999.0,    0.0,    0.0,    0.5,   -0.0,    0.4,    0.5,    0.3,    0.2,   -0.0,   -0.2,   -0.1,    0.4,  999.0,    0.1,    0.0,   -0.2,    0.2,    0.8,   -0.0,    0.4,    0.4,    0.2,  999.0,    0.3,    0.3,    0.2,    1.4,  999.0,    0.1,    0.1,    0.3,    0.1,    0.1,   -0.0,    0.0,  999.0,  999.0,    1.2,    0.0,  999.0,    0.1,   -0.0,    0.0,    0.2,    0.1,    0.1,  999.0,   -0.0,    0.0,   -0.0,   -0.0,   -0.1,   -0.1,  999.0,   -0.1,   -0.1,   -0.1,   -0.0,    0.0,   -0.0,   -0.0,    0.0,    0.1
2003/02/26 04:00,   -0.1,   -0.1,   -0.1,   -0.1,   -0.1,   -0.1,   -0.1,   -0.1,   -0.0,   -0.1,    0.1,    0.2,    0.1,    0.1,    0.1,    0.0,    0.0,    0.1,   -0.0,   -0.1,   -0.1,    0.1,  999.0,   -0.0,   -0.2,   -0.3,   -0.3,   -0.2,   -0.1,    0.1,    0.1,    0.2,    0.1,    0.1,    0.1,    0.0,    0.1,    0.1,    0.0,    0.0,   -0.0,    0.0,    0.1,    0.2,   -0.0,   -0.0,    0.1,    0.3,    0.2,    0.1,    0.1,    0.0,    0.1,    0.0,    0.0,    0.1,    0.4,    0.1,    0.4,    0.7,    0.2,    0.4,    0.3,    0.1,    0.2,    0.0,   -0.1,    0.0,    0.6,    1.1,    0.2,    0.1,   -0.1,    0.6,    1.4,    0.1,    0.3,    0.1,    0.1,    0.3,  999.0,    0.3,   -0.1,  999.0,   -0.4,   -0.1,    0.4,    0.1,    0.1,    0.0,   -0.1,   -0.1,    0.9,  999.0,  999.0,  999.0,  999.0,  999.0,   -0.1,    0.0,    0.1,    0.1,    0.0,  999.0,   -0.1,   -0.1,   -0.0,   -0.0,   -0.0,   -0.1,   -0.1,   -0.0,   -0.0,   -0.1,   -0.2,   -0.1,   -0.2,  999.0,   -0.0,  999.0
2003/02/26 04:10,   -0.1,  999.0,   -0.1,   -0.1,    0.0,    0.0,    0.0,    0.0,   -0.1,    0.0,    0.1,    0.1,    0.1,    0.2,    0.1,    0.0,   -0.0,   -0.1,   -0.1,   -0.1,   -0.2,   -0.3,   -0.2,   -0.3,   -0.4,   -0.3,   -0.2,   -0.2,   -0.1,    0.1,    0.1,    0.1,    0.1,    0.0,   -0.0,    0.0,    0.0,   -0.1,    0.0,   -0.1,   -0.0,    0.0,   -0.0,    0.1,   -0.0,   -0.0,    0.1,    0.2,    0.1,    0.0,    0.0,   -0.1,    0.0,    0.1,   -0.0,    0.1,    0.7,    0.2,    0.5,    0.8,    0.1,    0.5,    0.7,    0.1,   -0.0,   -0.1,   -0.1,   -0.0,    0.5,    1.2,    0.2,    0.1,    0.8,    0.4,  999.0,    0.2,    0.1,    0.3,    0.1,    0.3,   -0.0,    0.1,    0.1,  999.0,    0.0,    0.0,    1.1,    0.6,    0.4,   -0.0,    0.1,    0.2,    0.8,  999.0,  999.0,    1.0,  999.0,  999.0,   -0.2,   -0.0,   -0.1,   -0.1,   -0.0,  999.0,   -0.1,   -0.3,    0.0,    0.1,    0.1,    0.1,   -0.1,    0.0,   -0.1,   -0.1,    0.0,   -0.0,   -0.1,  999.0,  999.0,  999.0
2003/02/26 04:20,   -0.1,   -0.1,   -0.0,   -0.0,   -0.1,   -0.1,   -0.0,    0.1,    0.2,    0.2,    0.2,    0.2,    0.2,    0.1,    0.1,    0.1,   -0.0,   -0.1,   -0.1,   -0.1,   -0.2,   -0.2,   -0.2,   -0.1,   -0.1,   -0.1,   -0.0,    0.0,    0.1,    0.1,    0.2,    0.2,    0.1,    0.1,   -0.0,   -0.0,   -0.1,   -0.0,   -0.0,   -0.0,   -0.0,   -0.0,    0.0,   -0.0,    0.0,   -0.1,    0.0,    0.0,   -0.1,    0.0,   -0.0,   -0.0,    0.0,   -0.1,   -0.2,   -0.0,    0.6,   -0.0,    0.2,    0.9,    0.1,    0.6,    1.0,    0.2,    0.3,    0.2,   -0.0,    0.0,    0.7,    1.2,    0.6,    0.1,    0.8,    0.7,    1.2,    0.2,    0.4,    0.3,    0.2,    0.2,    0.0,    0.7,  999.0,    1.0,   -0.1,   -0.0,    1.2,    0.6,    0.7,    0.0,    0.1,    0.2,    0.3,    1.2,    1.2,    1.0,  999.0,  999.0,    0.0,    0.0,   -0.0,    0.0,    0.1,  999.0,   -0.0,  999.0,    0.1,   -0.0,    0.0,    0.1,   -0.2,    0.1,    0.1,    0.1,   -0.0,   -0.0,    0.0,  999.0,  999.0,  999.0
2003/02/26 04:30,   -0.0,   -0.1,   -0.1,   -0.2,   -0.1,   -0.1,   -0.3,    0.0,    0.1,    0.1,    0.2,    0.3,    0.1,    0.1,    0.1,    0.1,    0.1,   -0.1,   -0.0,   -0.1,   -0.1,   -0.1,   -0.1,   -0.0,    0.2,    0.3,    0.3,    0.3,    0.2,    0.1,    0.1,   -0.1,   -0.1,   -0.1,   -0.1,   -0.1,   -0.1,    0.1,    0.6,    0.0,    0.1,   -0.0,    0.2,   -0.1,    0.0,    0.0,    0.1,    0.1,   -0.0,    0.1,    0.0,    0.1,    0.0,    0.1,    0.1,    0.1,    0.7,    0.1,    0.2,    0.4,    0.1,    0.6,    1.1,    0.9,    0.6,    0.6,    0.3,    0.3,    0.8,    1.1,    0.7,    0.7,    0.6,    1.1,    1.6,    1.2,    0.8,    0.3,    0.0,    0.2,    0.0,    0.9,  999.0,    1.2,   -0.2,   -0.1,    1.2,    0.4,    0.1,    0.0,    0.1,    0.1,    0.4,    1.1,  999.0,    0.3,  999.0,   -0.0,    0.0,   -0.1,   -0.0,   -0.0,   -0.0,  999.0,   -0.1,  999.0,    0.0,    0.0,    0.0,   -0.0,   -0.0,    0.1,    0.1,    0.1,    0.0,   -0.0,    0.0,  999.0,  999.0,  999.0
2003/02/26 04:40,   -0.1,   -0.2,   -0.1,   -0.1,    0.0,   -0.1,   -0.1,    0.1,    0.1,    0.1,    0.1,    0.1,    0.1,    0.0,   -0.0,   -0.0,   -0.1,   -0.1,   -0.0,  999.0,    0.1,  999.0,    0.1,    0.1,    0.2,    0.2,    0.2,    0.1,    0.0,   -0.1,   -0.1,   -0.2,   -0.2,   -0.1,   -0.1,   -0.1,   -0.1,  999.0,    0.0,   -0.1,   -0.0,   -0.0,   -0.1,   -0.1,    0.0,   -0.0,    0.0,   -0.0,    0.0,    0.0,    0.0,    0.0,    0.0,    0.1,    0.1,    0.1,    0.5,    0.1,    0.1,    0.3,    0.2,    0.2,    0.7,    1.0,    0.6,    0.7,    0.4,    0.4,    0.7,    1.0,    0.3,    0.6,    0.5,    1.1,    1.5,    0.8,    0.3,   -0.1,   -0.0,   -0.0,   -0.1,    0.8,  999.0,    0.7,   -0.4,   -0.1,    0.4,   -0.0,   -0.1,   -0.2,   -0.1,   -0.1,    0.4,  999.0,  999.0,    0.6,  999.0,   -0.1,    0.1,   -0.1,   -0.1,   -0.1,   -0.1,  999.0,    0.1,  999.0,    0.1,    0.0,   -0.0,   -0.1,   -0.1,   -0.1,    0.1,    0.1,    0.1,   -0.1,    0.1,  999.0,  999.0,  999.0
2003/02/26 04:50,   -0.1,    0.0,    0.0,   -0.0,    0.1,    0.1,    0.2,    0.2,    0.2,    0.1,    0.1,    0.0,    0.0,   -0.0,   -0.1,   -0.2,   -0.2,   -0.1,   -0.2,   -0.3,   -0.0,   -0.3,   -0.0,   -0.0,   -0.1,   -0.0,   -0.1,   -0.1,   -0.1,   -0.0,   -0.1,   -0.1,   -0.0,    0.1,    0.1,    0.1,    0.1,    0.1,  999.0,  999.0,   -0.1,   -0.1,   -0.1,   -0.0,   -0.1,   -0.1,   -0.1,   -0.1,   -0.1,   -0.1,   -0.1,   -0.2,   -0.1,   -0.0,   -0.0,   -0.0,    0.2,    0.0,    0.0,    0.1,    0.0,    0.1,    0.2,    0.3,    0.1,    0.2,    0.1,    0.2,    0.1,    0.1,    0.1,    0.1,    0.1,    0.1,    0.3,   -0.2,    0.0,    0.0,    0.1,   -0.2,   -0.1,    0.1,   -0.2,    0.1,   -0.1,   -0.1,    0.1,    0.1,    0.1,    0.0,    0.0,    0.0,    0.1,    0.0,    0.4,    0.2,  999.0,   -0.2,    0.2,    0.1,    0.1,    0.0,    0.1,  999.0,    0.0,   -0.1,    0.1,    0.0,    0.0,    0.0,   -0.2,    0.0,    0.1,    0.1,    0.1,    0.1,    0.1,    0.1,  999.0,  999.0
2003/02/26 05:00,   -0.2,   -0.0,   -0.0,   -0.1,    0.0,    0.1,    0.1,    0.1,    0.2,    0.1,    0.2,    0.1,    0.0,    0.0,   -0.1,   -0.0,    0.1,   -0.0,   -0.1,   -0.1,   -0.0,   -0.0,    0.0,    0.1,   -0.0,    0.1,   -0.1,   -0.1,   -0.1,   -0.1,   -0.0,   -0.0,    0.0,    0.1,    0.1,    0.1,   -0.0,   -0.0,   -0.1,   -0.1,   -0.1,   -0.1,   -0.1,   -0.1,   -0.1,   -0.1,   -0.1,   -0.1,   -0.0,   -0.2,   -0.1,   -0.2,   -0.2,   -0.1,   -0.1,   -0.1,    0.0,   -0.1,   -0.0,    0.0,   -0.0,   -0.0,   -0.0,   -0.0,   -0.0,    0.0,    0.0,   -0.1,   -0.0,   -0.0,   -0.1,   -0.1,   -0.1,   -0.0,   -0.0,   -0.2,   -0.0,   -0.0,    0.0,   -0.1,   -0.0,    0.1,   -0.1,    0.0,   -0.2,    0.1,    0.0,   -0.0,   -0.0,    0.0,   -0.1,    0.0,    0.0,   -0.0,   -0.0,    0.1,  999.0,  999.0,    0.1,   -0.0,    0.0,    0.0,   -0.0,  999.0,   -0.0,   -0.0,   -0.3,    0.1,    0.1,    0.1,  999.0,  999.0,    0.1,    0.1,    0.0,   -0.0,    0.0,  999.0,  999.0,  999.0
2003/02/26 05:10,   -0.1,   -0.0,   -0.0,    0.2,    0.1,    0.1,    0.1,    0.1,    0.1,    0.1,    0.2,    0.1,    0.0,   -0.0,   -0.1,   -0.1,    0.1,   -0.1,   -0.0,    0.1,    0.0,    0.1,    0.0,    0.2,    0.1,    0.1,    0.1,    0.0,    0.1,    0.0,    0.0,    0.1,    0.0,   -0.0,    0.0,   -1.2,    0.1,   -0.0,    0.0,   -0.0,   -0.1,   -0.0,    0.0,   -0.1,   -0.1,   -0.2,   -0.0,    0.0,    0.0,    0.0,   -0.0,   -0.1,   -0.1,   -0.1,   -0.0,   -0.0,   -0.0,   -0.2,   -0.1,   -0.0,   -0.0,   -0.1,   -0.0,   -0.0,   -0.1,   -0.1,    0.1,   -0.0,   -0.0,   -0.0,    0.1,    0.0,   -0.1,   -0.0,    0.0,   -0.0,    0.0,   -0.0,   -0.0,   -0.1,    0.0,    0.0,   -0.1,    0.0,   -0.1,    0.1,    0.0,   -0.1,    0.0,   -0.1,   -0.1,   -0.0,    0.0,    0.0,   -0.0,   -0.0,   -0.7,   -0.0,    0.3,    0.0,    0.1,    0.1,    0.1,    0.0,    0.1,    0.1,    0.1,    0.1,    0.2,    0.1,  999.0,  999.0,    0.1,    0.1,    0.0,    0.0,    0.1,  999.0,  999.0,    0.0
2003/02/26 05:20,  999.0,   -0.0,   -0.1,   -0.0,    0.0,    0.0,   -0.0,    0.1,    0.2,    0.1,    0.1,    0.1,    0.1,    0.1,    0.0,   -0.1,    0.2,    0.2,    0.2,    0.3,    0.2,    0.1,    0.1,    0.1,    0.1,    0.1,    0.1,    0.0,    0.1,   -0.0,    0.0,    0.0,   -0.0,   -0.1,   -0.1,   -0.1,   -0.1,   -0.1,   -0.2,   -0.1,   -0.1,   -0.1,   -0.1,   -0.1,   -0.0,   -0.0,   -0.0,   -0.1,   -0.1,   -0.1,   -0.1,   -0.1,   -0.1,   -0.0,   -0.0,    0.0,    0.0,   -0.0,   -0.0,    0.0,   -0.0,    0.0,    0.0,    0.0,    0.0,   -0.0,    0.0,   -0.0,    0.0,    0.0,    0.0,    0.0,   -0.1,   -0.0,    0.0,    0.1,    0.0,    0.0,    0.0,   -0.0,    0.1,    0.0,  999.0,    0.0,    0.1,    0.1,    0.1,    0.1,    0.1,    0.1,    0.2,    0.1,    0.1,    0.0,    0.0,    0.1,   -0.2,  999.0,    0.3,  999.0,    0.1,    0.1,    0.0,  999.0,    0.1,    0.0,   -0.1,    0.0,   -0.0,   -0.1,   -0.2,    0.0,   -0.1,   -0.1,   -0.1,   -0.2,   -0.1,  999.0,  999.0,   -0.1
2003/02/26 05:30,   -0.1,   -0.1,   -0.1,   -0.1,   -0.1,   -0.1,   -0.1,   -0.0,    0.1,    0.0,   -0.0,    0.0,    0.0,   -0.0,   -0.0,   -0.1,   -0.1,    0.0,   -0.0,   -0.0,    0.0,    0.0,    0.0,    0.0,    0.1,    0.0,   -0.0,  999.0,   -0.1,   -0.1,  999.0,  999.0,   -0.0,   -0.1,    0.0,   -0.1,   -0.1,   -0.1,   -0.1,   -0.0,   -0.1,   -0.1,   -0.1,   -0.1,   -0.0,   -0.0,   -0.1,   -0.1,   -0.2,   -0.3,   -0.1,   -0.1,   -0.1,    0.0,    0.0,    0.0,    0.0,   -0.1,   -0.0,    0.0,   -0.1,   -0.0,    0.0,   -0.1,   -0.0,   -0.1,   -0.1,   -0.1,   -0.0,    0.0,    0.0,   -0.0,   -0.2,    0.1,    0.0,    0.1,   -0.0,    0.0,    0.0,   -0.0,   -0.0,    0.1,  999.0,    0.0,  999.0,  999.0,   -0.0,    0.1,    0.0,    0.1,    0.2,    0.1,    0.0,    0.0,    0.1,    0.1,   -0.5,    0.5,    0.1,    0.0,    0.1,    0.1,    0.0,    0.1,    0.1,    0.1,   -0.0,    0.1,    0.0,   -0.0,   -0.6,   -0.2,    0.1,   -0.0,   -0.1,   -0.0,   -0.0,  999.0,    0.2,    0.0
2003/02/26 05:40,   -0.0,   -0.0,    0.0,   -0.1,    0.0,    0.1,    0.1,    0.0,    0.2,    0.0,    0.0,    0.1,    0.0,    0.0,    0.0,   -0.1,   -0.1,   -0.1,   -0.0,   -0.1,   -0.1,   -0.0,    0.0,    0.0,    0.0,    0.1,    0.1,    0.1,    0.1,    0.0,  999.0,  999.0,    0.1,    0.1,    0.1,    0.1,    0.1,  999.0,    0.1,  999.0,  999.0,    0.0,    0.3,    0.0,    0.1,    0.1,    0.1,   -0.1,   -0.1,   -0.1,   -0.0,    0.0,   -0.0,    0.0,   -0.0,    0.1,   -0.1,   -0.1,   -0.1,    0.3,    0.1,    0.5,    0.4,    0.1,    0.1,   -0.1,   -0.1,   -0.2,    0.3,    0.3,    0.2,   -0.1,   -0.0,    0.3,    0.5,   -0.0,    0.2,    0.1,    0.1,    0.3,   -0.0,    0.2,    0.6,    0.4,  999.0,    0.4,    0.4,    0.1,    0.1,    0.0,    0.1,    0.1,    0.4,    0.5,    0.8,    0.1,  999.0,    0.1,    0.1,   -0.0,    0.1,    0.1,    0.1,    0.0,    0.0,   -0.1,   -0.3,    0.0,   -0.0,   -0.1,  999.0,   -0.1,    0.0,   -0.0,   -0.0,    0.0,    0.1,  999.0,   -0.0,    0.1
2003/02/26 05:50,    0.1,    0.2,    0.1,    0.0,    0.1,    0.1,   -0.0,    0.0,    0.2,    0.1,    0.2,    0.1,    0.0,   -0.1,   -0.1,   -0.2,   -0.3,   -0.2,   -0.3,   -0.3,   -0.2,   -0.2,   -0.1,   -0.0,   -0.1,    0.0,    0.0,   -0.0,    0.0,    0.1,    0.1,    0.1,    0.1,    0.0,    0.1,    0.1,    0.1,    0.1,    0.1,    0.1,    0.1,    0.1,    0.1,    0.2,    0.2,    0.2,    0.1,    0.0,    0.0,    0.0,    0.0,    0.1,    0.2,    0.1,    0.2,    0.2,    0.2,    0.1,    0.1,    1.1,    0.3,    0.6,    1.1,    1.0,    0.5,    0.5,    0.2,   -0.1,  999.0,    1.2,    0.7,    0.5,    0.5,    0.5,  999.0,    0.3,    0.7,    0.5,    0.3,    0.3,    0.2,    0.7,  999.0,    1.2,  999.0,    0.4,    1.0,    0.7,    0.3,    0.2,    0.2,    0.2,    0.7,  999.0,  999.0,    0.2,   -0.0,   -0.0,    0.0,    0.0,   -0.1,   -0.1,   -0.1,   -0.1,   -0.0,   -0.1,    0.0,   -0.0,   -0.0,   -0.1,  999.0,   -0.1,    0.0,    0.0,    0.0,    0.0,    0.1,  999.0,  999.0,    0.1
2003/02/26 06:00,   -0.0,    0.1,    0.1,    0.1,    0.0,    0.0,    0.1,    0.1,    0.1,    0.1,    0.1,    0.1,    0.1,    0.1,    0.1,    0.1,  999.0,   -0.1,  999.0,  999.0,    0.0,    0.1,    0.2,    0.2,    0.2,    0.3,    0.3,    0.3,    0.2,    0.2,    0.2,    0.1,    0.1,    0.0,   -0.1,    0.0,    0.1,    0.0,   -0.0,    0.1,  999.0,    0.1,    0.1,    0.1,    0.0,    0.1,    0.1,    0.1,   -0.0,   -0.1,   -0.1,   -0.1,   -0.0,    0.0,   -0.1,   -0.0,    0.3,   -0.1,   -0.0,    0.6,   -0.1,    0.5,  999.0,  999.0,  999.0,    0.5,   -0.1,   -0.2,  999.0,  999.0,    0.5,    0.7,  999.0,  999.0,  999.0,  999.0,    0.8,    0.6,    0.3,    0.4,    0.1,  999.0,  999.0,    1.3,  999.0,    0.1,    0.4,    0.7,    0.1,    0.1,   -0.0,    0.1,    0.6,  999.0,  999.0,    0.0,  999.0,  999.0,    0.1,   -0.0,   -0.0,   -0.1,   -0.0,   -0.0,   -0.1,   -0.1,    0.1,   -0.0,    0.0,   -0.0,   -0.1,    0.0,   -0.0,    0.0,  999.0,   -0.0,  999.0,    0.2,  999.0,   -0.0
2003/02/26 06:10,   -0.0,  999.0,   -0.0,   -0.1,   -0.0,    0.1,   -0.0,    0.0,  999.0,    0.0,   -0.0,   -0.1,   -0.1,   -0.1,   -0.1,   -0.1,   -0.1,   -0.1,   -0.1,   -0.1,   -0.1,    0.0,    0.0,    0.1,    0.1,   -0.0,   -0.0,   -0.0,   -0.2,   -0.0,   -0.0,   -0.0,   -0.1,   -0.1,   -0.1,   -0.1,   -0.1,   -0.1,   -0.0,    0.0,  999.0,    0.0,    0.0,    0.0,    0.0,   -0.0,    0.1,    0.1,    0.0,    0.1,   -0.0,    0.1,   -0.0,   -0.0,    0.0,    0.1,    0.2,    0.1,   -0.0,    0.6,    0.3,    0.7,    1.2,    1.1,  999.0,    0.4,    0.1,    0.1,    1.0,    1.1,    0.6,  999.0,   -0.2,    0.8,    0.9,    0.2,    0.7,    0.6,    0.5,    0.7,    0.0,    0.6,  999.0,    1.2,    1.2,   -0.0,    0.9,    1.0,    0.2,   -0.1,   -0.0,    0.1,    0.4,    1.2,    1.0,    0.0,    0.0,  999.0,    0.1,   -0.0,    0.0,   -0.0,    0.0,    0.0,    0.0,    0.0,    0.1,    0.0,    0.0,    0.0,    0.3,    0.0,   -0.0,   -0.0,   -0.2,   -0.0,   -0.0,   -0.0,  999.0,    0.0
2003/02/26 06:20,    0.1,  999.0,    0.1,    0.0,   -0.0,    0.0,   -0.1,   -0.0,   -0.1,   -0.1,   -0.1,   -0.1,   -0.1,   -0.1,   -0.1,   -0.1,   -0.0,    0.0,    0.0,   -0.0,   -0.0,    0.0,    0.1,    0.1,    0.1,    0.0,   -0.0,    0.0,   -0.0,   -0.1,   -0.1,   -0.1,   -0.1,   -0.1,   -0.0,   -0.1,   -0.1,   -0.1,  999.0,   -0.1,   -0.1,   -0.1,   -0.1,   -0.1,    0.0,   -0.0,   -0.1,   -0.2,   -0.1,   -0.1,   -0.1,   -0.1,   -0.1,   -0.1,   -0.1,    0.2,    0.2,   -0.0,    0.0,    0.8,    0.8,    0.6,    1.1,    1.2,    1.4,    0.9,    1.0,    0.1,    0.9,    1.3,    0.4,    0.7,    0.2,    0.5,    0.9,    0.1,    0.6,    0.6,    0.3,    0.8,    0.2,    0.6,    0.4,    1.8,  999.0,    0.4,    0.9,    0.9,    0.4,    0.2,    0.2,    0.1,    0.3,    0.7,    0.6,    0.1,    0.3,  999.0,  999.0,   -0.0,   -0.1,   -0.1,   -0.1,   -0.1,   -0.0,   -0.0,   -0.0,   -0.1,   -0.1,   -0.2,   -0.2,    0.0,   -0.1,   -0.1,  999.0,  999.0,    0.1,  999.0,  999.0,    0.1
2003/02/26 06:30,    0.0,   -0.0,   -0.1,   -0.1,   -0.1,   -0.1,   -0.1,   -0.1,   -0.0,   -0.1,   -0.1,   -0.1,   -0.2,   -0.2,   -0.1,   -0.1,   -0.1,   -0.1,   -0.1,   -0.1,   -0.0,   -0.0,    0.0,    0.0,    0.0,   -0.0,   -0.0,    0.0,   -0.0,   -0.1,   -0.1,   -0.1,   -0.1,   -0.1,   -0.1,   -0.1,   -0.1,  999.0,   -0.0,   -0.1,   -0.1,   -0.1,   -0.0,   -0.1,   -0.0,   -0.0,   -0.1,   -0.0,    0.0,    0.0,    0.1,    0.2,    0.3,    0.2,    0.2,    0.2,    0.5,    0.1,    0.8,    0.8,    1.0,    1.0,    1.4,    1.0,    1.1,    0.7,    1.1,    0.1,    0.8,    1.4,    0.6,    0.6,    0.3,    0.5,    0.9,    0.3,    0.5,    0.8,    0.5,  999.0,    0.5,    1.1,  999.0,    1.4,  999.0,    0.4,    0.6,    1.2,    0.3,    0.1,    0.2,    0.1,    0.4,    1.3,    0.8,    0.7,  999.0,  999.0,  999.0,    0.1,    0.0,    0.1,    0.0,   -0.0,   -0.0,   -0.1,   -0.1,   -0.1,   -0.1,  999.0,   -0.3,   -0.1,   -0.0,    0.0,  999.0,    0.2,    0.2,    0.2,  999.0,  999.0
2003/02/26 06:40,    0.1,    0.1,    0.0,   -0.0,    0.0,    0.0,    0.1,   -0.0,    0.0,   -0.0,   -0.0,   -0.1,   -0.1,   -0.2,   -0.2,   -0.1,   -0.1,   -0.1,   -0.1,   -0.1,   -0.1,    0.0,    0.0,   -0.0,    0.0,   -0.0,   -0.1,   -0.0,   -0.1,   -0.0,   -0.2,   -0.1,   -0.1,   -0.1,   -0.1,   -0.1,   -0.1,   -0.0,    0.0,    0.1,   -0.0,    0.1,    0.0,    0.1,    0.2,    0.1,    0.1,    0.2,    0.1,    0.2,    0.2,    0.1,    0.2,    0.2,    0.2,    0.2,    0.2,    0.2,    0.2,    0.9,    0.3,    0.2,    1.6,    1.1,    1.4,    0.6,    0.2,   -0.0,    0.8,    1.1,    0.1,    0.2,    0.3,    0.7,    1.3,    0.1,    1.2,    2.4,    1.0,    0.8,   -0.2,    0.5,  999.0,    1.3,  999.0,    0.0,    0.3,    0.9,    0.2,    0.0,   -0.0,   -0.1,    0.6,    1.4,    1.2,    0.2,    0.0,  999.0,    0.2,    0.1,   -0.0,   -0.0,    0.0,    0.0,   -0.0,   -0.1,   -0.0,   -0.0,   -0.0,  999.0,   -0.1,   -0.0,    0.0,    0.1,  999.0,  999.0,  999.0,    0.1,  999.0,   -0.1
2003/02/26 06:50,    0.0,    0.1,    0.1,    0.1,    0.2,    0.2,    0.2,    0.1,    0.0,    0.0,   -0.0,   -0.0,   -0.1,   -0.1,   -0.1,   -0.1,   -0.1,   -0.1,   -0.1,   -0.1,   -0.1,   -0.0,    0.0,   -0.1,   -0.0,   -0.1,   -0.1,   -0.1,   -0.1,    0.0,    0.0,    0.0,    0.1,    0.1,    0.2,    0.1,    0.1,    0.2,    0.1,    0.2,    0.1,    0.1,    0.2,    0.1,    0.1,    0.1,    0.2,    0.1,    0.2,    0.2,    0.2,    0.1,    0.2,    0.2,    0.2,    0.2,    0.2,    0.1,    0.2,  999.0,    0.2,    0.5,    0.9,    1.2,    1.1,    0.5,   -0.0,   -0.1,    0.8,    1.4,    0.2,    0.2,    0.4,    0.6,  999.0,    0.4,  999.0,    1.4,    1.4,    0.6,    0.1,    0.5,    0.3,    1.6,    0.1,    0.1,    1.3,    0.6,    0.2,    0.2,    0.1,   -0.0,    0.8,    1.4,  999.0,   -0.0,    0.1,  999.0,    0.1,    0.1,    0.0,    0.0,   -0.0,   -0.1,   -0.1,   -0.1,   -0.1,   -0.0,   -0.0,  999.0,    0.3,    0.0,    0.1,    0.1,  999.0,  999.0,  999.0,    0.1,  999.0,    0.0
2003/02/26 07:00,    0.0,    0.1,    0.1,    0.1,    0.1,    0.1,    0.2,    0.1,    0.1,    0.1,    0.0,    0.0,   -0.1,   -0.1,    0.0,    0.1,    0.1,   -0.0,   -0.2,   -0.0,   -0.1,    0.0,    0.0,   -0.1,   -0.0,    0.1,    0.1,    0.0,   -0.1,   -0.1,   -0.0,    0.1,   -0.0,   -0.0,   -0.1,   -0.1,   -0.1,   -0.0,   -0.2,   -0.1,  999.0,   -0.1,   -0.1,   -0.1,   -0.1,   -0.1,   -0.2,   -0.1,   -0.1,   -0.1,   -0.1,   -0.2,    0.0,    0.0,    0.2,    0.3,    0.5,    0.0,    0.1,    0.7,    0.2,    0.4,    0.8,    0.7,    0.8,    0.8,    0.0,   -0.1,    1.2,  999.0,    0.2,    0.7,    0.3,    0.9,    1.2,    0.9,    0.6,  999.0,    1.1,    1.5,   -0.0,    0.6,    0.7,    1.1,    0.3,    0.2,    1.3,    0.8,    0.3,    0.1,    0.1,    0.1,    0.7,    1.5,    1.5,    0.0,  999.0,  999.0,    0.2,    0.1,    0.1,    0.0,    0.0,    0.0,    0.0,    0.0,    0.0,    0.1,    0.0,  999.0,    0.0,   -0.0,   -0.0,    0.1,  999.0,  999.0,    0.1,    0.1,  999.0,    0.1
2003/02/26 07:10,   -0.0,    0.0,    0.1,    0.0,    0.0,    0.0,    0.0,   -0.1,    0.1,    0.1,   -0.0,    0.0,    0.0,   -0.0,    0.1,    0.1,    0.1,   -0.0,   -0.0,   -0.0,   -0.1,   -0.1,   -0.1,   -0.1,   -0.0,    0.1,    0.1,    0.1,  999.0,  999.0,  999.0,   -0.1,    0.1,    0.0,   -0.0,  999.0,    0.1,    0.0,    0.1,    0.1,    0.2,    0.1,    0.0,    0.2,    0.0,  999.0,  999.0,    0.0,   -0.0,   -0.0,    0.1,    0.1,    0.1,    0.1,    0.1,    0.2,    0.7,    0.0,    0.1,    0.6,    0.2,    0.5,    0.9,    1.1,    1.2,    1.1,    0.1,  999.0,  999.0,  999.0,    0.5,  999.0,    0.2,    1.4,    1.3,    1.1,    1.2,  999.0,    0.7,    0.7,   -0.1,    0.4,    0.2,    0.6,  999.0,  999.0,    1.5,    1.2,    0.1,   -0.0,   -0.1,    0.0,    0.9,    1.1,    1.1,   -0.1,  999.0,  999.0,    0.1,    0.1,    0.0,    0.1,    0.0,    0.1,    0.1,   -0.0,   -0.0,    0.1,    0.1,  999.0,    0.0,    0.0,    0.0,    0.0,   -0.1,  999.0,   -0.0,   -0.0,  999.0,   -0.0
2003/02/26 07:20,    0.0,    0.2,    0.1,    0.1,    0.0,    0.1,    0.1,    0.0,    0.1,    0.1,    0.1,    0.1,    0.1,    0.1,    0.1,    0.1,    0.1,    0.0,    0.1,    0.1,    0.0,   -0.1,   -0.1,   -0.1,  999.0,    0.1,    0.1,    0.1,    0.1,    0.1,    0.1,    0.1,    0.0,    0.1,    0.0,    0.0,   -0.0,   -0.0,   -0.0,   -0.0,   -0.1,   -0.1,   -0.0,   -0.0,   -0.0,   -0.0,   -0.0,   -0.1,    0.1,   -0.1,   -0.0,   -0.1,   -0.1,    0.1,   -0.1,   -0.1,    0.2,   -0.0,    0.0,    0.8,    0.1,    0.7,    0.9,    1.2,    1.5,  999.0,    0.5,   -0.0,    0.8,    1.7,    1.3,  999.0,    0.3,    0.9,    1.2,    0.2,    0.8,    0.4,    0.3,    0.3,   -0.1,    0.0,   -0.1,    0.9,  999.0,  999.0,    0.6,    1.0,    0.3,    0.1,   -0.0,    0.1,    0.5,    1.3,  999.0,   -0.1,  999.0,  999.0,    0.1,    0.1,    0.1,    0.1,   -0.0,    0.1,    0.1,   -0.1,    0.1,    0.0,    0.1,  999.0,    0.0,    0.0,   -0.0,    0.0,  999.0,   -0.0,   -0.2,   -0.3,  999.0,   -0.1
2003/02/26 07:30,    0.1,    0.1,    0.1,    0.1,    0.1,    0.1,    0.0,   -0.0,   -0.1,   -0.0,   -0.1,   -0.1,  999.0,   -0.0,   -0.0,   -0.0,   -0.0,    0.0,   -0.0,   -0.1,   -0.1,   -0.1,   -0.1,   -0.1,  999.0,    0.1,  999.0,    0.1,    0.1,    0.1,  999.0,  999.0,   -0.1,   -0.1,   -0.1,   -0.1,   -0.1,   -0.1,   -0.0,   -0.0,   -0.1,   -0.1,   -0.1,   -0.1,   -0.0,   -0.0,   -0.0,   -0.1,   -0.0,   -0.0,   -0.0,   -0.0,   -0.1,   -0.1,   -0.0,   -0.0,    0.2,   -0.1,    0.0,    1.0,   -0.1,    1.2,    1.3,    1.3,    1.3,    0.7,    0.3,   -0.1,    1.1,    1.4,    0.5,    0.1,    0.3,    1.1,    1.3,   -0.1,    0.2,    0.3,    0.2,    1.1,   -0.1,    0.2,    0.6,    1.6,  999.0,  999.0,    0.5,    0.9,    0.5,    0.1,    0.1,    0.3,    0.5,    1.4,  999.0,    0.1,  999.0,  999.0,    0.1,    0.2,    0.0,    0.1,    0.0,   -0.0,   -0.1,   -0.1,   -0.0,   -0.0,    0.0,  999.0,  999.0,    0.1,    0.0,    0.1,    0.0,  999.0,   -0.0,    0.1,  999.0,  999.0
2003/02/26 07:40,   -0.1,   -0.0,    0.0,    0.1,    0.1,    0.1,   -0.1,   -0.0,   -0.2,   -0.2,   -0.3,   -0.2,   -0.4,   -0.2,   -0.2,   -0.3,   -0.2,   -0.2,   -0.2,   -0.2,   -0.2,   -0.1,   -0.0,   -0.1,   -0.0,    0.1,    0.1,    0.1,    0.1,   -0.1,   -0.0,  999.0,  999.0,    0.1,    0.1,    0.1,    0.1,    0.1,    0.1,    0.1,    0.1,    0.1,    0.1,    0.2,    0.2,    0.2,    0.2,    0.0,    0.2,    0.1,    0.1,    0.1,   -0.0,    0.0,    0.2,    0.2,    0.4,   -0.0,    0.0,    0.5,    0.3,    0.3,    0.8,    0.6,    0.5,    0.6,    0.1,  999.0,    0.5,    0.7,   -0.0,    0.1,    0.2,    0.5,    0.8,    0.2,    0.1,    0.2,    0.1,    0.3,   -0.0,    0.5,  999.0,    0.7,  999.0,  999.0,    0.3,    0.7,    0.4,    0.1,   -0.0,    0.1,    0.5,    0.8,    0.9,    0.1,    0.1,  999.0,    0.0,    0.1,   -0.0,   -0.0,   -0.1,   -0.0,    0.0,   -0.0,    0.1,    0.1,    0.1,  999.0,  999.0,    0.1,    0.0,    0.0,    0.1,  999.0,   -0.1,    0.1,  999.0,  999.0
2003/02/26 07:50,    0.0,    0.0,    0.1,    0.0,    0.0,    0.0,   -0.1,   -0.0,   -0.2,   -0.3,   -0.3,   -0.2,   -0.3,   -0.1,   -0.1,   -0.1,   -0.1,   -0.0,  999.0,   -0.1,    0.1,    0.1,    0.1,    0.1,    0.1,  999.0,  999.0,  999.0,   -0.0,   -0.1,   -0.1,   -0.1,   -0.1,  999.0,   -0.0,    0.0,  999.0,  999.0,    0.0,  999.0,  999.0,    0.1,    0.1,    0.3,    0.1,    0.2,    0.1,    0.1,    0.2,    0.1,    0.1,    0.0,    0.1,    0.1,    0.1,    0.1,    0.2,    0.0,    0.3,    0.5,    0.4,    0.4,    0.8,    0.8,    0.5,    0.3,    0.4,    0.0,    0.6,    0.6,    0.1,    0.1,    0.0,    0.4,    0.8,    0.1,    0.3,    0.4,    0.1,    0.3,   -0.1,    0.5,    0.5,    0.8,  999.0,    0.8,    0.4,    0.7,    0.2,    0.2,    0.0,    0.2,    0.3,    0.7,    0.8,    0.2,    0.2,  999.0,    0.0,    0.0,    0.1,    0.0,   -0.0,    0.0,   -0.0,   -0.0,    0.1,    0.0,    0.1,    0.0,  999.0,   -0.0,    0.1,    0.0,    0.1,  999.0,  999.0,  999.0,    0.1,  999.0
2003/02/26 08:00,   -0.1,    0.0,    0.1,    0.1,    0.2,    0.1,    0.2,    0.2,    0.2,    0.0,    0.1,   -0.0,    0.1,    0.1,    0.0,   -0.0,   -0.1,   -0.1,  999.0,   -0.1,   -0.1,    0.0,    0.1,    0.0,    0.1,   -0.0,   -0.0,    0.0,    0.0,    0.1,    0.1,    0.1,   -0.0,   -0.0,   -0.1,   -0.1,   -0.1,   -0.1,   -0.1,   -0.0,   -0.1,  999.0,    0.0,    0.1,   -0.0,   -0.0,   -0.1,   -0.1,   -0.0,   -0.2,   -0.1,   -0.1,   -0.1,   -0.1,   -0.0,   -0.1,    0.2,   -0.0,    0.2,    0.3,    0.2,    0.3,    0.5,    0.3,    0.2,    0.2,    0.0,    0.1,    0.4,    0.5,    0.3,    0.4,    0.2,    0.3,    0.5,    0.1,    0.2,    0.7,    0.5,    0.4,    0.0,    0.4,    1.0,    0.5,  999.0,    1.2,    0.3,    0.6,    0.3,    0.4,    0.1,    0.1,    0.2,    0.5,    0.5,    0.4,  999.0,   -0.1,    0.1,   -0.1,   -0.2,   -0.1,   -0.2,   -0.0,   -0.1,   -0.2,    0.0,    0.0,    0.1,    0.0,  999.0,   -0.1,    0.0,    0.0,    0.0,  999.0,    0.0,  999.0,    0.1,   -0.0
2003/02/26 08:10,   -0.2,   -0.1,   -0.1,    0.0,  999.0,    0.0,    0.1,    0.1,    0.1,    0.1,    0.0,  999.0,    0.1,    0.1,    0.1,    0.1,    0.1,    0.1,    0.1,    0.1,    0.2,    0.1,    0.1,    0.1,    0.1,    0.0,  999.0,    0.0,    0.0,    0.1,    0.1,   -0.1,   -0.0,   -0.1,   -0.1,   -0.2,   -0.1,   -0.1,   -0.1,   -0.1,   -0.2,   -0.1,   -0.1,   -0.1,   -0.1,   -0.1,   -0.0,   -0.0,   -0.1,   -0.1,   -0.0,   -0.0,    0.0,   -0.0,   -0.0,   -0.0,    0.2,    0.0,    0.6,    0.8,    0.3,    0.4,    0.4,    0.2,    0.3,    0.1,    0.0,    0.2,    0.9,  999.0,    0.6,    0.0,    0.2,    0.5,    1.0,    0.3,    0.6,    0.3,    0.3,  999.0,  999.0,  999.0,  999.0,  999.0,  999.0,  999.0,    0.8,    0.6,    0.2,    0.4,    0.1,   -0.0,    0.3,    0.7,    1.0,    0.8,  999.0,    0.2,   -0.1,    0.1,   -0.1,    0.3,    0.1,    0.1,    0.1,    0.1,    0.0,    0.1,   -0.1,   -0.1,  999.0,   -0.1,   -0.1,   -0.0,   -0.0,  999.0,    0.1,   -0.1,    0.1,   -0.0
2003/02/26 08:20,   -0.1,   -0.0,    0.0,    0.0,    0.1,    0.0,    0.1,    0.1,    0.0,  999.0,  999.0,   -0.0,  999.0,   -0.1,   -0.0,    0.0,    0.1,    0.1,    0.0,   -0.1,    0.0,   -0.1,   -0.1,   -0.1,    0.1,   -0.0,   -0.1,   -0.1,   -0.1,   -0.0,   -0.0,   -0.0,    0.1,   -0.0,   -0.1,   -0.1,   -0.1,    0.0,   -0.1,   -0.0,    0.0,   -0.0,   -0.0,   -0.1,    0.0,    0.0,   -0.0,   -0.0,   -0.0,    0.0,    0.0,    0.0,    0.0,    0.0,   -0.0,    0.2,    0.1,    0.1,    0.5,    0.3,    0.2,    0.3,    0.2,    0.1,    0.1,    0.1,    0.1,   -0.1,    0.1,    0.0,    0.2,   -0.2,  999.0,   -0.0,    0.0,   -0.0,    0.4,    0.1,    0.2,  999.0,  999.0,    0.1,  999.0,    0.1,  999.0,  999.0,   -0.1,   -0.1,   -0.1,   -0.3,   -0.2,   -0.2,    0.0,    0.0,    0.3,    0.7,  999.0,    0.1,   -0.0,   -0.0,    0.0,    0.1,    0.1,    0.1,    0.0,    0.2,    0.2,    0.1,    0.0,  999.0,   -0.0,   -0.0,   -0.1,   -0.0,   -0.0,   -0.1,   -0.1,   -0.0,  999.0,   -0.0
2003/02/26 08:30,   -0.1,    0.1,    0.1,    0.1,    0.2,    0.1,    0.1,    0.1,  999.0,   -0.1,   -0.1,   -0.1,   -0.2,   -0.2,   -0.2,   -0.2,   -0.1,   -0.0,   -0.1,   -0.1,    0.0,   -0.1,   -0.1,  999.0,    0.1,    0.1,    0.2,    0.1,    0.1,    0.0,    0.0,    0.1,   -0.1,  999.0,   -0.1,   -0.1,   -0.1,   -0.0,   -0.2,   -0.2,   -0.1,   -0.0,   -0.2,   -0.1,   -0.0,   -0.0,   -0.0,   -0.1,   -0.1,   -0.1,   -0.1,   -0.1,   -0.1,   -0.1,    0.1,    0.0,    0.0,    0.0,    0.2,    0.1,    0.1,    0.2,    0.3,    0.1,    0.2,    0.3,    0.0,    0.2,   -0.0,   -0.0,    0.1,   -0.1,   -0.1,   -0.1,    0.3,   -0.2,    0.2,    0.3,  999.0,   -0.3,  999.0,   -0.3,   -0.5,    0.0,  999.0,  999.0,   -0.1,    0.0,    0.0,    0.0,    0.0,   -0.1,    0.2,   -0.0,    0.3,  999.0,    0.0,    0.2,    0.1,    0.1,    0.1,    0.1,    0.2,    0.1,    0.0,    0.1,    0.1,   -0.0,   -0.1,   -0.1,   -0.0,   -0.0,    0.0,    0.0,    0.0,  999.0,    0.2,    0.2,    0.3,    0.0
2003/02/26 08:40,   -0.1,   -0.1,   -0.0,   -0.0,    0.1,    0.1,    0.1,    0.1,   -0.0,   -0.1,   -0.1,   -0.1,   -0.2,   -0.2,   -0.1,   -0.2,   -0.1,   -0.1,   -0.1,   -0.1,    0.1,    0.1,    0.0,  999.0,    0.1,    0.1,    0.1,    0.2,    0.1,    0.1,    0.1,    0.1,    0.1,    0.1,  999.0,    0.0,    0.1,    0.1,    0.1,    0.1,    0.1,    0.1,    0.1,    0.1,    0.1,    0.1,    0.1,    0.0,    0.0,    0.0,    0.0,   -0.0,   -0.1,   -0.1,    0.1,   -0.1,    0.3,    0.0,    0.0,    0.3,    0.1,    0.4,    0.4,    0.3,    0.4,    0.3,    0.5,  999.0,    0.0,    0.1,    0.1,   -0.1,    0.1,    0.0,    0.5,   -0.0,    0.2,    0.3,    0.0,  999.0,  999.0,    0.5,   -0.5,    0.3,  999.0,  999.0,    0.7,    0.3,    0.1,    0.1,    0.1,    0.1,    0.3,    0.7,    0.4,  999.0,  999.0,  999.0,    0.2,    0.1,    0.1,    0.1,    0.1,    0.0,   -0.0,   -0.0,   -0.1,   -0.1,   -0.1,   -0.1,    0.1,    0.1,  999.0,    0.1,    0.0,  999.0,  999.0,    0.1,    0.0,   -0.0
2003/02/26 08:50,    0.0,   -0.1,   -0.0,   -0.0,   -0.1,   -0.0,   -0.0,    0.1,    0.1,    0.1,    0.1,   -0.1,   -0.1,   -0.1,   -0.1,   -0.1,   -0.2,   -0.2,   -0.1,   -0.1,   -0.1,   -0.1,   -0.1,   -0.1,    0.1,    0.0,    0.1,    0.1,    0.1,    0.0,    0.1,    0.1,    0.1,    0.1,    0.1,    0.1,    0.0,    0.1,    0.1,    0.1,    0.1,    0.1,    0.0,   -0.0,   -0.1,   -0.0,   -0.1,   -0.1,   -0.1,   -0.1,   -0.1,   -0.0,   -0.1,   -0.1,   -0.1,   -0.1,    0.1,   -0.0,   -0.1,    0.0,   -0.0,    0.1,    0.1,    0.2,    0.1,    0.1,    0.4,    0.2,    0.1,    0.1,    0.0,    0.0,    0.0,    0.1,    0.2,   -0.1,    0.1,    0.1,  999.0,    0.8,  999.0,    0.5,  999.0,    0.1,  999.0,   -0.0,    0.2,    0.2,    0.1,   -0.0,    0.1,   -0.0,    0.2,    0.2,    0.1,    0.1,  999.0,  999.0,  999.0,   -0.0,   -0.1,    0.0,   -0.1,   -0.1,   -0.1,   -0.1,    0.1,    0.1,    0.0,  999.0,  999.0,    0.1,    0.1,    0.1,    0.1,  999.0,  999.0,    0.0,   -0.1,   -0.1
2003/02/26 09:00,    0.0,  999.0,    0.0,    0.0,  999.0,   -0.0,    0.1,    0.1,    0.1,    0.1,    0.1,    0.1,    0.1,    0.1,   -0.0,   -0.1,   -0.1,   -0.1,   -0.1,   -0.1,  999.0,   -0.1,    0.0,    0.1,    0.1,  999.0,    0.1,   -0.0,    0.1,   -0.1,   -0.1,  999.0,   -0.1,   -0.1,   -0.1,   -0.1,   -0.1,   -0.1,   -0.1,   -0.1,   -0.1,   -0.1,   -0.1,   -0.2,   -0.2,   -0.2,   -0.2,   -0.2,   -0.2,   -0.2,   -0.1,   -0.2,   -0.1,   -0.1,   -0.1,   -0.0,    0.1,    0.0,   -0.0,    0.1,    0.2,    0.2,    0.2,    0.4,    0.2,    0.3,    0.3,    0.2,    0.2,    0.3,    0.1,    0.2,    0.2,    0.2,    0.3,    0.1,    0.1,    0.5,    0.2,    0.4,  999.0,    0.6,  999.0,    0.2,  999.0,  999.0,    0.2,    0.2,    0.2,    0.3,    0.3,    0.1,    0.2,    0.3,    0.4,    0.1,  999.0,  999.0,  999.0,   -0.0,    0.0,   -0.0,   -0.1,   -0.0,   -0.1,   -0.1,   -0.0,   -0.0,   -0.0,   -0.0,  999.0,    0.0,    0.0,  999.0,    0.1,    0.1,  999.0,   -0.0,   -0.0,    0.0
2003/02/26 09:10,   -0.0,    0.0,    0.1,    0.1,    0.2,    0.1,    0.1,    0.2,    0.2,    0.1,    0.2,    0.2,    0.1,    0.1,    0.1,    0.0,    0.0,    0.0,    0.0,    0.1,   -0.1,  999.0,    0.1,    0.1,    0.1,    0.0,    0.1,    0.0,    0.0,    0.0,   -0.1,   -0.1,    0.0,   -0.0,   -0.0,   -0.1,   -0.1,   -0.1,   -0.1,   -0.1,   -0.1,   -0.1,   -0.1,   -0.1,   -0.1,   -0.1,   -0.1,   -0.1,   -0.1,   -0.1,   -0.1,   -0.1,   -0.1,   -0.0,   -0.1,   -0.1,   -0.0,    0.0,    0.1,    0.3,    0.2,    0.4,    0.6,    0.6,    0.5,    0.3,    0.4,  999.0,    0.5,    0.6,    0.6,    0.3,    0.2,    0.3,    0.9,    0.2,    0.3,    0.6,    0.3,    0.5,  999.0,    0.6,  999.0,    0.4,  999.0,  999.0,    0.6,    0.5,    0.3,    0.1,    0.2,    0.3,    0.3,    0.5,    0.5,    0.1,    0.0,    0.2,    0.1,    0.1,    0.1,    0.0,    0.1,    0.0,    0.0,   -0.1,   -0.0,   -0.0,   -0.1,  999.0,  999.0,   -0.0,    0.1,    0.0,    0.1,   -0.0,   -0.1,   -0.0,    0.1,  999.0
2003/02/26 09:20,    0.1,    0.1,    0.0,    0.0,   -0.0,   -0.1,   -0.1,    0.0,    0.1,    0.2,    0.1,    0.0,    0.1,    0.1,    0.0,   -0.1,   -0.0,   -0.0,   -0.0,   -0.1,   -0.1,   -0.1,   -0.0,   -0.0,   -0.1,   -0.0,   -0.1,   -0.1,   -0.1,   -0.1,   -0.1,   -0.1,   -0.1,   -0.0,   -0.1,   -0.1,   -0.0,   -0.0,   -0.0,   -0.0,    0.0,  999.0,   -0.0,    0.0,   -0.0,    0.0,    0.0,   -0.0,    0.0,   -0.1,   -0.0,   -0.1,   -0.1,   -0.1,   -0.3,   -0.2,   -0.1,   -0.1,   -0.1,    0.6,    0.3,    0.4,    1.1,    0.7,    1.1,    0.3,    0.0,    0.1,    1.0,  999.0,  999.0,  999.0,  999.0,    1.3,  999.0,    0.3,    0.3,    1.8,    0.9,    0.4,  999.0,    1.4,  999.0,  999.0,  999.0,  999.0,    1.5,    0.5,    0.2,   -0.1,   -0.1,   -0.1,    0.6,    1.0,    0.5,    0.4,  999.0,  999.0,   -0.0,    0.0,    0.0,    0.0,    0.0,   -0.0,   -0.0,   -0.1,   -0.1,   -0.0,    0.0,  999.0,  999.0,  999.0,    0.0,    0.1,    0.1,   -0.0,    0.0,   -0.0,  999.0,   -0.1
2003/02/26 09:30,    0.1,    0.1,    0.1,    0.1,   -0.1,   -0.1,   -0.1,   -0.0,  999.0,    0.0,   -0.0,    0.0,    0.1,    0.1,    0.1,    0.0,    0.1,    0.1,    0.0,   -0.0,   -0.2,   -0.1,   -0.1,   -0.0,    0.0,   -0.1,   -0.1,   -0.2,   -0.1,   -0.1,   -0.0,  999.0,   -0.1,   -0.1,   -0.1,   -0.1,   -0.1,  999.0,    0.0,    0.0,   -0.0,    0.1,    0.1,    0.1,    0.1,    0.1,    0.1,    0.1,    0.1,    0.1,    0.1,    0.0,    0.0,    0.1,   -0.0,    0.1,    0.0,   -0.0,    0.1,    1.1,    0.3,    0.8,    1.0,    1.0,    0.9,    0.2,    0.1,    0.4,    1.1,    1.3,    0.5,  999.0,    1.5,    1.3,    1.5,    0.1,    0.6,    1.2,  999.0,    0.8,  999.0,    1.5,  999.0,    2.5,  999.0,  999.0,    0.5,    0.6,    0.4,    0.3,    0.2,    0.2,    0.5,    0.8,    0.7,    1.0,  999.0,  999.0,    0.0,    0.1,   -0.1,   -0.1,   -0.1,   -0.1,   -0.1,   -0.1,   -0.1,   -0.0,   -0.0,  999.0,  999.0,  999.0,    0.1,    0.0,    0.1,   -0.0,    0.0,   -0.0,  999.0,   -0.0
2003/02/26 09:40,    0.0,   -0.0,   -0.0,    0.1,   -0.0,  999.0,  999.0,   -0.0,   -0.1,   -0.1,   -0.1,   -0.1,   -0.0,   -0.0,   -0.1,    0.1,   -0.0,    0.0,    0.2,    0.0,    0.1,    0.0,    0.1,   -0.0,   -0.0,   -0.0,   -0.0,  999.0,   -0.0,   -0.0,   -0.0,    0.1,    0.0,   -0.1,   -0.0,   -0.0,   -0.0,  999.0,    0.1,    0.0,    0.1,   -0.0,    0.2,    0.1,    0.1,    0.2,    0.1,   -0.0,    0.0,    0.1,   -0.0,    0.0,    0.1,    0.1,    0.0,    0.1,    0.2,    0.0,    0.4,    1.1,    0.4,    0.7,    1.2,    0.6,    0.9,    0.1,   -0.0,    0.1,    1.2,  999.0,    0.9,  999.0,    0.7,    0.7,    1.2,    0.0,    1.0,    1.2,    1.1,    0.7,  999.0,    1.5,  999.0,    1.6,  999.0,  999.0,    0.4,    0.7,    0.1,    0.1,    0.1,    0.1,    0.5,    0.9,    0.5,    0.9,  999.0,    0.1,    0.1,    0.0,    0.0,   -0.0,   -0.1,    0.1,    0.0,    0.0,    0.0,    0.0,   -0.0,   -0.1,  999.0,   -0.0,   -0.0,  999.0,    0.1,    0.0,    0.1,    0.1,  999.0,  999.0
2003/02/26 09:50,   -0.2,   -0.1,   -0.1,   -0.1,   -0.1,   -0.2,   -0.2,   -0.1,   -0.2,   -0.1,   -0.1,   -0.1,   -0.1,   -0.1,   -0.2,   -0.1,   -0.1,   -0.0,   -0.0,   -0.0,    0.1,    0.1,    0.1,    0.1,    0.0,    0.1,   -0.0,    0.0,    0.0,   -0.0,   -0.0,   -0.0,   -0.1,   -0.1,    0.0,    0.1,    0.0,   -0.1,    0.2,    0.3,    0.1,    0.2,    0.1,    0.1,    0.1,    0.0,   -0.0,   -0.0,   -0.0,    0.1,   -0.1,   -0.1,    0.2,    0.0,   -0.1,    0.1,    0.2,   -0.1,    0.3,    0.7,    0.5,    0.4,    1.1,    0.5,    1.2,   -0.2,    0.1,   -0.1,    1.2,    1.3,    0.3,    0.4,    0.3,    1.4,    1.5,    1.1,    1.3,    1.1,    1.9,    0.3,  999.0,    1.6,    1.5,    1.3,  999.0,  999.0,    0.5,    0.5,   -0.1,    0.1,    0.1,    0.2,    0.3,    0.9,    0.4,    1.3,  999.0,    0.6,    0.1,    0.0,   -0.0,    0.0,   -0.0,    0.1,    0.0,   -0.0,   -0.0,   -0.1,   -0.1,  999.0,  999.0,    0.0,    0.1,  999.0,   -0.0,   -0.0,    0.1,   -0.0,  999.0,    0.1
2003/02/26 10:00,    0.8,  999.0,    0.1,    0.1,    0.0,   -0.0,   -0.0,   -0.0,   -0.1,   -0.1,   -0.1,   -0.1,   -0.0,   -0.0,   -0.1,   -0.1,   -0.0,   -0.0,    0.0,  999.0,  999.0,  999.0,  999.0,   -0.1,   -0.0,  999.0,  999.0,    0.1,   -0.0,   -0.1,   -0.1,   -0.1,   -0.1,   -0.0,   -0.1,   -0.1,   -0.1,    0.0,    0.1,    0.0,    0.0,    0.1,    0.1,    0.1,    0.1,    0.1,    0.1,    0.1,    0.1,    0.1,    0.1,    0.1,    0.1,    0.1,   -0.0,    0.2,    0.1,   -0.0,    0.2,    0.8,    0.4,    0.3,    0.7,    1.0,  999.0,    0.2,    0.2,  999.0,  999.0,  999.0,    0.0,    0.3,    0.2,    0.4,  999.0,    0.6,    0.8,    1.4,    1.3,    1.0,  999.0,    1.6,  999.0,    1.8,  999.0,  999.0,    0.6,    0.6,    0.2,    0.2,    0.0,    0.2,    0.5,  999.0,    0.4,   -0.0,  999.0,    0.5,    0.0,   -0.0,    0.0,    0.1,   -0.1,   -0.1,   -0.2,    0.0,    0.0,   -0.1,   -0.0,  999.0,  999.0,    0.0,   -0.0,   -0.1,   -0.0,   -0.0,  999.0,   -0.0,  999.0,  999.0
2003/02/26 10:10,   -0.1,   -0.0,    0.1,    0.1,    0.1,    0.1,    0.1,  999.0,   -0.0,   -0.1,   -0.1,   -0.1,   -0.1,   -0.1,   -0.1,   -0.0,  999.0,    0.0,   -0.1,   -0.1,   -0.1,   -0.1,   -0.1,   -0.1,   -0.1,   -0.0,   -0.1,   -0.1,   -0.1,   -0.0,    0.0,    0.1,    0.0,   -0.0,    0.1,   -0.0,   -0.1,   -0.0,  999.0,    0.1,   -0.1,    0.1,    0.1,    0.1,    0.2,    0.1,    0.2,    0.2,    0.2,    0.2,    0.3,    0.2,    0.3,    0.2,    0.1,    0.2,    0.3,    0.1,    0.2,    1.3,    0.1,    0.4,    0.7,    0.5,  999.0,    0.6,    0.2,   -0.1,  999.0,  999.0,    0.1,    0.2,    0.1,   -0.0,  999.0,    0.2,    0.9,    1.7,    1.7,    2.1,  999.0,    1.7,    1.7,    1.6,  999.0,    0.1,    0.3,    0.6,    0.1,   -0.0,   -0.1,   -0.0,    0.1,    0.7,    0.1,    0.0,   -0.4,   -0.1,   -0.2,   -0.1,   -0.1,   -0.1,   -0.2,    0.0,    0.1,    0.1,    0.0,    0.1,    0.1,    0.0,  999.0,    0.2,    0.1,    0.0,    0.2,    0.0,  999.0,   -0.0,  999.0,    0.2
2003/02/26 10:20,   -0.2,   -0.4,   -0.2,   -0.2,   -0.2,   -0.1,   -0.1,   -0.0,    0.0,    0.0,    0.0,    0.0,    0.1,    0.1,    0.1,    0.2,    0.2,    0.2,    0.1,    0.1,    0.1,    0.1,    0.0,    0.1,    0.0,   -0.1,   -0.1,   -0.1,   -0.1,   -0.2,   -0.1,   -0.1,   -0.1,   -0.0,   -0.0,    0.1,  999.0,   -0.1,   -0.1,    0.0,  999.0,    0.0,    0.0,    0.1,    0.1,    0.1,    0.1,    0.2,    0.2,    0.2,    0.2,    0.2,    0.1,    0.1,  999.0,    0.0,    0.1,    0.1,    0.2,    1.0,    0.0,    0.6,    0.6,    0.2,  999.0,    0.2,    0.4,    0.1,    1.2,  999.0,    0.1,    0.1,    0.1,    0.2,    0.7,    0.3,  999.0,    1.3,    1.5,  999.0,  999.0,  999.0,    1.3,  999.0,  999.0,    0.2,    0.5,  999.0,    0.1,    0.1,    0.1,    0.2,    0.4,    1.1,    0.4,    0.2,   -0.1,   -0.1,   -0.2,   -0.1,    0.0,   -0.0,    0.0,    0.1,    0.1,    0.1,    0.1,    0.0,   -0.0,   -0.1,  999.0,    0.0,    0.1,   -0.0,    0.0,  999.0,   -0.1,   -0.0,  999.0,    0.1
2003/02/26 10:30,   -0.2,   -0.1,   -0.1,   -0.0,    0.1,    0.1,    0.1,    0.1,    0.1,    0.2,    0.1,    0.0,   -0.1,    0.0,    0.0,   -0.0,   -0.0,   -0.1,   -0.0,    0.0,    0.1,    0.1,    0.0,    0.0,    0.1,    0.2,  999.0,    0.0,    0.0,    0.0,    0.0,    0.0,    0.0,   -0.0,    0.0,    0.1,   -0.1,   -0.0,   -0.1,   -0.1,   -0.0,   -0.0,   -0.0,    0.0,    0.1,    0.1,    0.1,    0.1,    0.1,    0.1,    0.0,    0.0,   -0.0,   -0.0,   -0.1,   -0.1,    0.2,    0.1,    0.1,    0.9,    0.1,    0.3,    0.7,    0.5,  999.0,   -0.2,    0.3,    0.0,    0.9,  999.0,    0.2,    0.1,    0.1,    0.4,    0.6,    0.8,    1.2,    1.3,    1.1,    1.0,  999.0,  999.0,    1.6,  999.0,  999.0,  999.0,    0.6,  999.0,    0.4,    0.2,    0.2,    0.3,    0.7,  999.0,    0.5,    0.6,    0.7,    0.6,   -0.0,    0.0,    0.1,    0.1,    0.1,   -0.0,    0.1,    0.1,   -0.0,   -0.0,   -0.0,    0.0,    0.1,    0.1,  999.0,    0.0,   -0.0,  999.0,    0.1,  999.0,  999.0,    0.1
2003/02/26 10:40,    0.1,    0.1,    0.2,    0.1,    0.1,    0.1,    0.1,   -0.0,    0.0,    0.1,   -0.0,   -0.0,   -0.1,   -0.1,   -0.0,    0.1,    0.1,    0.2,    0.1,    0.1,    0.0,    0.0,    0.0,   -0.0,    0.0,  999.0,  999.0,  999.0,   -0.1,   -0.1,   -0.0,   -0.0,   -0.0,    0.0,    0.0,   -0.0,   -0.2,   -0.1,   -0.0,   -0.0,   -0.0,   -0.0,   -0.1,   -0.2,   -0.1,   -0.3,   -0.2,   -0.2,   -0.2,   -0.2,   -0.2,   -0.2,   -0.2,   -0.2,   -0.1,   -0.1,   -0.1,   -0.1,   -0.1,    0.5,    0.2,    0.3,    0.2,    0.1,    0.4,   -0.0,   -0.0,   -0.1,    0.3,    0.8,   -0.0,   -0.1,    0.1,    0.3,  999.0,   -0.4,    1.2,    1.2,  999.0,  999.0,  999.0,    0.5,  999.0,  999.0,  999.0,   -0.4,    0.3,  999.0,    0.5,    0.0,   -0.1,   -0.2,    0.1,    0.8,    0.1,    0.2,    0.1,    0.2,    0.1,    0.1,    0.2,    0.1,    0.2,   -0.1,   -0.1,    0.2,   -0.0,    0.1,    0.1,   -0.3,  999.0,    0.1,  999.0,    0.1,    0.0,    0.0,    0.2,   -0.3,  999.0,  999.0
2003/02/26 10:50,   -0.1,   -0.1,   -0.0,   -0.1,   -0.1,   -0.0,   -0.2,   -0.1,   -0.2,   -0.1,   -0.1,   -0.1,   -0.1,   -0.1,    0.1,    0.1,    0.2,    0.2,    0.2,    0.2,    0.2,    0.1,    0.1,    0.1,    0.1,    0.2,    0.1,    0.1,    0.0,    0.0,    0.0,    0.0,    0.0,   -0.0,   -0.1,    0.0,   -0.0,   -0.1,   -0.1,   -0.0,   -0.1,   -0.1,   -0.2,   -0.2,   -0.2,   -0.2,   -0.2,   -0.2,   -0.2,   -0.2,   -0.2,   -0.2,   -0.1,   -0.1,   -0.1,   -0.1,  999.0,   -0.0,    0.1,    0.6,    0.2,    0.6,    0.6,    0.4,    0.0,    0.0,    0.2,   -0.0,  999.0,  999.0,    0.1,    0.1,    0.0,    0.3,    1.0,    0.3,    1.6,    1.1,    1.4,    0.5,  999.0,    0.6,  999.0,  999.0,  999.0,   -0.0,    0.4,  999.0,    0.4,   -0.3,   -0.1,   -0.0,    0.1,    0.7,    0.1,    0.1,   -0.2,    0.2,    0.3,    0.3,    0.1,    0.0,    0.2,    0.1,   -0.0,    0.1,   -0.0,    0.1,    0.1,   -0.0,  999.0,    0.0,   -0.1,    0.1,   -0.1,   -0.1,    0.0,   -0.3,  999.0,  999.0
2003/02/26 11:00,   -0.1,   -0.0,    0.0,    0.0,    0.1,    0.0,   -0.0,   -0.1,   -0.1,   -0.1,   -0.1,   -0.2,   -0.1,   -0.2,   -0.2,   -0.1,   -0.0,    0.1,    0.1,    0.1,    0.2,    0.1,    0.1,    0.0,   -0.0,   -0.0,   -0.0,    0.1,    0.1,    0.1,    0.1,    0.1,    0.1,  999.0,   -0.1,   -0.0,   -0.1,   -0.1,   -0.1,   -0.1,   -0.1,   -0.1,   -0.2,   -0.2,   -0.1,   -0.2,   -0.1,   -0.1,   -0.1,   -0.1,   -0.1,   -0.2,   -0.2,   -0.2,   -0.1,   -0.3,    0.0,   -0.0,    0.0,    0.6,    0.1,    0.5,    1.3,    0.5,    0.5,    0.3,    0.5,    0.3,    1.2,    1.3,    0.6,    0.4,   -0.0,    0.4,    0.9,    0.4,    1.2,    1.3,    1.7,    0.5,  999.0,    0.9,  999.0,  999.0,    0.7,    0.5,    1.1,  999.0,    0.4,    0.3,    0.2,    0.2,    0.2,    0.5,    0.3,    0.1,    0.0,    0.0,    0.0,    0.1,    0.1,    0.1,    0.1,    0.1,    0.1,    0.0,   -0.1,   -0.3,   -0.2,   -0.1,  999.0,   -0.0,  999.0,    0.2,    0.1,    0.0,    0.0,  999.0,  999.0,    0.1
2003/02/26 11:10,   -0.2,   -0.1,   -0.1,   -0.2,   -0.1,   -0.3,   -0.3,   -0.3,   -0.2,   -0.1,   -0.1,   -0.2,   -0.3,   -0.3,   -0.2,   -0.2,   -0.1,   -0.0,    0.1,    0.1,    0.1,    0.1,   -0.0,   -0.1,    0.0,    0.0,    0.1,    0.1,    0.1,   -0.1,    0.0,    0.0,   -0.0,  999.0,   -0.0,   -0.0,   -0.0,   -0.0,   -0.1,    0.1,    0.1,    0.0,   -0.0,    0.1,    0.1,   -0.0,    0.0,    0.1,    0.1,    0.2,    0.1,    0.1,    0.1,    0.1,    0.0,   -0.1,    0.2,    0.2,   -0.1,    0.7,    0.2,    0.3,    1.4,    0.7,    0.7,    0.5,    0.5,    0.1,    0.4,  999.0,    0.6,    0.7,    0.2,    0.3,    0.6,    0.6,    1.3,    1.4,    1.3,    1.0,  999.0,    1.6,    1.2,  999.0,  999.0,    1.2,  999.0,  999.0,    0.7,    0.4,    0.4,    0.3,    0.3,    0.9,    0.5,    0.0,   -0.1,   -0.0,    0.1,    0.0,   -0.2,   -0.0,   -0.1,    0.0,    0.1,    0.0,    0.1,   -0.2,   -0.1,  999.0,  999.0,    0.0,    0.2,    0.1,    0.1,    0.1,  999.0,    0.0,  999.0,  999.0
2003/02/26 11:20,   -0.0,   -0.1,   -0.1,   -0.2,   -0.0,    0.0,   -0.2,   -0.2,   -0.3,   -0.3,   -0.2,   -0.3,   -0.3,   -0.3,   -0.1,   -0.1,   -0.1,   -0.1,   -0.1,    0.0,   -0.0,    0.0,    0.0,    0.1,    0.1,    0.1,    0.1,    0.1,    0.1,    0.1,    0.1,    0.0,    0.0,   -0.1,   -0.1,   -0.1,   -0.1,   -0.1,   -0.1,   -0.1,   -0.1,   -0.1,   -0.1,   -0.1,   -0.1,   -0.1,   -0.1,   -0.1,   -0.1,   -0.1,   -0.1,   -0.2,   -0.1,    0.0,    0.0,    0.1,    0.3,    0.2,    0.6,    0.6,    0.1,    0.5,    1.4,  999.0,    0.4,    0.3,    0.2,   -0.2,    0.3,  999.0,    0.0,    0.1,    0.1,   -0.4,    1.1,    1.0,    1.1,    1.8,  999.0,  999.0,  999.0,    1.0,    0.9,    1.7,    0.5,  999.0,    1.3,    1.3,    0.5,   -0.4,   -0.3,   -0.2,   -0.0,    1.2,    0.4,    0.0,    0.0,    0.3,    0.6,    0.2,   -0.1,    0.0,   -0.2,   -0.1,   -0.3,    0.2,    0.1,   -0.1,    0.0,  999.0,  999.0,   -0.1,   -0.1,   -0.2,   -0.2,   -0.3,  999.0,  999.0,  999.0,  999.0
2003/02/26 11:30,    0.1,    0.2,    0.3,    0.2,    0.3,    0.2,    0.1,    0.0,   -0.0,   -0.0,   -0.0,   -0.0,   -0.1,   -0.1,   -0.1,   -0.1,   -0.1,   -0.1,  999.0,    0.1,  999.0,   -0.1,   -0.1,   -0.1,   -0.1,  999.0,  999.0,    0.1,    0.1,    0.1,    0.1,   -0.1,    0.0,   -0.0,  999.0,  999.0,    0.0,    0.1,    0.0,    0.1,    0.0,    0.0,   -0.0,    0.1,    0.0,   -0.0,   -0.1,   -0.2,   -0.2,   -0.2,   -0.1,   -0.2,   -0.2,   -0.3,   -0.4,   -0.1,    0.1,   -0.1,   -0.0,    0.2,   -0.0,    0.4,  999.0,  999.0,  999.0,  999.0,    0.2,   -0.0,    0.2,  999.0,    0.3,    0.1,    0.2,    0.2,  999.0,    1.1,    1.3,    1.5,  999.0,  999.0,  999.0,  999.0,    0.8,  999.0,  999.0,  999.0,  999.0,  999.0,    0.2,   -0.1,   -0.4,   -0.3,    0.1,  999.0,    0.5,    0.2,    0.6,    0.2,    0.3,    0.3,    0.3,    0.2,   -0.1,   -0.1,   -0.1,    0.2,   -0.0,   -0.0,    0.2,  999.0,  999.0,    0.2,    0.1,   -0.0,   -0.1,   -0.0,  999.0,  999.0,  999.0,  999.0
2003/02/26 11:40,   -0.1,    0.1,    0.1,    0.2,    0.2,    0.2,    0.3,    0.1,   -0.0,    0.1,    0.1,    0.1,    0.0,    0.0,   -0.0,   -0.0,   -0.0,   -0.0,   -0.1,   -0.0,   -0.1,   -0.1,   -0.1,   -0.2,   -0.1,   -0.1,   -0.1,   -0.1,   -0.0,   -0.0,    0.0,    0.0,    0.0,    0.1,    0.1,    0.1,    0.2,    0.3,    0.2,    0.1,    0.1,    0.1,    0.1,    0.2,    0.1,    0.1,    0.1,    0.1,    0.2,    0.2,    0.2,    0.2,    0.0,    0.1,    0.0,    0.1,    0.4,   -0.1,   -0.2,    0.2,   -0.0,    0.5,    0.8,    0.4,    0.4,   -0.6,    0.3,    0.3,    0.7,  999.0,   -0.4,   -0.3,    0.1,    0.1,  999.0,    0.8,    1.3,    2.1,    1.4,    0.8,  999.0,  999.0,    0.8,  999.0,  999.0,    0.4,    1.2,  999.0,    0.2,    0.0,   -0.0,    0.1,    0.5,  999.0,    0.5,    0.1,    0.1,    0.0,   -0.0,    0.1,   -0.0,    0.0,   -0.0,    0.1,    0.0,    0.0,   -0.0,   -0.0,  999.0,  999.0,  999.0,    0.1,    0.1,   -0.2,   -0.1,    0.1,    0.0,  999.0,  999.0,  999.0
2003/02/26 11:50,   -0.3,   -0.2,   -0.1,   -0.1,   -0.1,   -0.0,    0.0,    0.1,    0.1,    0.1,    0.1,    0.1,    0.1,    0.1,    0.1,    0.1,    0.2,    0.1,    0.1,    0.1,  999.0,    0.1,    0.1,    0.1,    0.0,    0.1,    0.0,   -0.1,    0.1,   -0.0,   -0.0,   -0.1,    0.0,    0.0,    0.0,    0.0,   -0.0,   -0.0,    0.0,    0.1,    0.0,    0.0,    0.0,    0.1,    0.0,    0.0,    0.1,    0.0,    0.0,    0.0,    0.0,   -0.0,   -0.1,   -0.1,   -0.1,   -0.0,    0.4,   -0.1,    0.0,    0.2,   -0.1,    0.4,    0.7,   -0.0,   -0.2,   -0.5,    0.0,    0.3,    0.5,  999.0,   -0.4,   -0.5,   -0.1,   -0.1,  999.0,    0.4,    0.6,    1.4,    1.2,  999.0,    0.4,    0.7,    0.9,  999.0,  999.0,    0.2,    1.3,    1.0,    0.2,    0.1,    0.0,    0.1,    0.4,  999.0,    0.7,    0.2,    0.1,    0.1,    0.1,   -0.0,   -0.0,    0.0,    0.0,    0.1,    0.1,    0.1,    0.0,   -0.0,   -0.2,  999.0,  999.0,   -0.1,   -0.1,   -0.1,   -0.1,   -0.0,   -0.1,  999.0,  999.0,  999.0
2003/02/26 12:00,    0.1,    0.2,    0.2,    0.1,    0.1,    0.1,    0.0,    0.0,    0.1,    0.2,    0.2,    0.1,    0.1,    0.1,    0.1,    0.1,    0.2,    0.0,    0.0,   -0.0,    0.1,    0.0,    0.1,    0.1,    0.0,   -0.0,   -0.1,  999.0,   -0.1,   -0.1,   -0.1,   -0.1,   -0.1,   -0.0,   -0.1,   -0.1,    0.1,  999.0,    0.0,    0.1,    0.1,    0.0,    0.1,    0.3,    0.2,    0.3,    0.3,    0.2,    0.3,    0.2,    0.2,    0.2,    0.2,    0.2,    0.1,    0.2,    0.3,    0.2,    0.0,    0.2,    0.1,    0.4,    0.8,    0.4,    0.4,    0.2,    0.4,    0.4,    0.4,    0.7,   -0.1,    0.1,    0.1,    0.2,    1.2,    0.2,    1.3,    1.5,    0.9,    0.6,    0.6,    0.4,    0.5,  999.0,  999.0,    1.3,  999.0,    0.5,    0.9,    0.2,    0.1,    0.1,    0.4,    1.3,    0.7,    0.2,   -0.1,   -0.0,    0.0,   -0.2,   -0.0,   -0.0,   -0.0,    0.1,    0.1,    0.0,   -0.0,   -0.1,   -0.2,  999.0,  999.0,   -0.1,   -0.0,   -0.0,   -0.0,   -0.0,  999.0,   -0.1,  999.0,  999.0
2003/02/26 12:10,   -0.1,   -0.1,   -0.0,    0.0,    0.1,    0.1,    0.1,    0.1,    0.0,    0.1,    0.1,    0.1,    0.1,    0.1,    0.1,    0.1,    0.1,    0.1,    0.0,    0.1,    0.1,    0.1,    0.2,    0.1,    0.1,    0.1,    0.1,    0.1,    0.0,    0.1,    0.1,   -0.0,   -0.0,   -0.0,   -0.1,   -0.1,    0.1,  999.0,    0.0,    0.0,    0.1,    0.0,   -0.0,   -0.1,   -0.0,    0.0,   -0.0,    0.1,    0.1,    0.1,   -0.1,   -0.0,   -0.0,   -0.0,    0.2,    0.1,    0.2,    0.0,   -0.2,    0.8,    0.1,    0.4,    0.5,    0.1,    0.2,    0.1,    0.5,    0.1,    0.1,  999.0,   -0.0,    0.0,    0.0,    0.2,  999.0,    0.2,  999.0,  999.0,    0.9,  999.0,    0.5,    0.4,    0.0,    1.3,  999.0,    0.6,  999.0,    0.7,    0.7,    0.2,    0.2,    0.1,  999.0,  999.0,  999.0,    0.0,   -0.0,   -0.0,   -0.1,   -0.0,   -0.0,    0.0,    0.1,    0.0,    0.1,    0.1,    0.1,    0.1,   -0.0,   -0.0,   -0.2,   -0.1,   -0.1,   -0.2,  999.0,   -0.0,   -0.0,    0.1,   -0.0,    0.0
2003/02/26 12:20,   -0.2,   -0.2,   -0.2,   -0.1,   -0.1,    0.0,    0.0,   -0.0,   -0.1,   -0.0,    0.0,   -0.1,    0.0,    0.1,    0.1,    0.0,    0.1,    0.1,    0.1,    0.1,    0.1,    0.1,    0.1,    0.1,    0.1,    0.1,    0.0,  999.0,    0.0,    0.1,    0.2,    0.1,    0.1,    0.1,    0.1,    0.1,    0.2,    0.1,    0.1,    0.1,   -0.0,   -0.0,   -0.2,   -0.1,   -0.1,   -0.2,   -0.2,   -0.2,   -0.2,   -0.1,   -0.1,   -0.1,   -0.1,   -0.1,   -0.1,   -0.1,   -0.2,   -0.2,   -0.2,    0.7,   -0.2,    0.3,    1.0,    0.1,    0.8,    0.2,    0.3,   -0.1,   -0.0,    0.9,   -0.2,   -0.2,   -0.2,    0.0,  999.0,    0.5,    1.3,    1.7,    1.5,  999.0,    0.1,    0.3,   -0.0,    2.1,  999.0,    2.0,    1.7,  999.0,    0.7,    0.1,    0.1,    0.1,    0.4,    1.1,    0.8,    0.1,    0.0,   -0.0,   -0.0,   -0.0,   -0.0,    0.1,    0.0,   -0.0,    0.0,    0.0,   -0.0,    0.1,   -0.1,  999.0,   -0.1,    0.1,    0.2,    0.1,    0.1,   -0.1,    0.1,  999.0,    0.1,   -0.0
2003/02/26 12:30,   -0.0,    0.1,   -0.1,   -0.1,   -0.1,    0.0,    0.0,   -0.0,    0.0,    0.1,    0.1,    0.0,    0.2,    0.2,    0.2,    0.2,    0.2,    0.1,    0.1,    0.1,    0.1,    0.1,    0.1,    0.1,   -0.0,    0.0,   -0.1,   -0.1,   -0.1,   -0.1,   -0.1,   -0.1,    0.1,    0.0,    0.0,   -0.1,   -0.1,    0.1,   -0.1,   -0.1,   -0.1,   -0.1,   -0.1,   -0.2,   -0.2,   -0.2,   -0.1,   -0.2,   -0.2,   -0.1,   -0.0,   -0.0,   -0.1,   -0.1,   -0.1,   -0.0,   -0.2,   -0.2,   -0.1,    0.7,   -0.0,    0.2,    0.6,  999.0,  999.0,    0.4,    0.4,   -0.0,    0.5,  999.0,   -0.1,   -0.0,   -0.0,    0.4,  999.0,  999.0,    1.2,  999.0,    0.7,    0.5,    0.1,  999.0,   -0.2,  999.0,  999.0,  999.0,    1.5,  999.0,    0.3,    0.1,    0.1,    0.1,    0.5,    1.6,    0.6,   -0.0,    0.1,    0.1,    0.1,    0.1,    0.1,    0.0,    0.0,   -0.0,   -0.1,   -0.1,   -0.1,   -0.1,    0.0,  999.0,    0.1,   -0.0,   -0.1,   -0.1,   -0.0,   -0.2,    0.0,  999.0,    0.1,   -0.0
2003/02/26 12:40,    0.5,    0.4,    0.2,   -0.0,   -0.1,   -0.1,   -0.2,   -0.1,   -0.0,    0.2,    0.2,    0.1,    0.2,    0.2,    0.2,    0.1,   -0.0,   -0.0,   -0.0,   -0.1,   -0.0,   -0.1,  999.0,   -0.1,   -0.0,   -0.1,   -0.0,   -0.0,   -0.1,   -0.0,    0.0,   -0.0,    0.1,    0.1,  999.0,    0.1,    0.0,    0.1,    0.1,    0.0,    0.0,    0.0,    0.1,  999.0,    0.2,    0.1,    0.1,    0.1,    0.1,    0.1,   -0.0,   -0.1,   -0.2,   -0.1,   -0.1,   -0.0,   -0.1,   -0.0,   -0.0,  999.0,    0.0,    0.7,  999.0,  999.0,  999.0,  999.0,    1.0,   -0.0,  999.0,  999.0,   -0.1,   -0.1,   -0.0,    0.7,  999.0,    1.2,  999.0,  999.0,    0.4,    0.1,   -0.1,  999.0,  999.0,    1.4,  999.0,  999.0,  999.0,  999.0,    0.3,   -0.0,   -0.0,   -0.1,  999.0,  999.0,    0.5,    0.1,    0.0,    0.1,    0.1,    0.1,    0.1,    0.1,    0.1,   -0.0,    0.0,    0.1,   -0.0,   -0.0,  999.0,  999.0,    0.0,    0.1,   -0.0,    0.0,    0.1,   -0.1,    0.0,    0.1,  999.0,  999.0
2003/02/26 12:50,    0.0,   -0.1,   -0.2,   -0.3,   -0.4,   -0.2,   -0.1,   -0.1,   -0.0,   -0.1,    0.0,    0.1,    0.1,    0.1,    0.1,    0.0,    0.0,   -0.0,    0.1,    0.2,    0.1,    0.2,    0.1,    0.1,    0.0,    0.1,    0.1,    0.1,    0.1,    0.1,    0.1,   -0.0,   -0.0,    0.1,   -0.1,    0.0,    0.0,    0.0,    0.0,    0.0,    0.0,   -0.1,   -0.1,   -0.1,   -0.1,   -0.2,   -0.2,   -0.1,   -0.1,   -0.0,   -0.2,   -0.2,   -0.2,   -0.2,    0.5,    0.0,    0.1,    0.1,    0.0,    0.3,    0.1,    0.4,    1.7,    1.1,  999.0,    0.2,    0.9,    0.0,  999.0,  999.0,    0.1,   -0.0,    0.2,    0.6,  999.0,    2.0,    1.0,    1.8,    0.8,    0.7,    0.4,    1.4,    1.4,    2.1,  999.0,    0.1,  999.0,  999.0,    0.4,   -0.0,   -0.0,    0.1,  999.0,  999.0,    0.8,    0.1,   -0.1,    0.0,    0.0,    0.1,   -0.0,    0.0,    0.1,    0.1,    0.0,    0.2,   -0.0,   -0.0,    0.0,  999.0,    0.0,   -0.0,   -0.0,   -0.1,   -0.0,   -0.2,   -0.2,   -0.1,  999.0,  999.0
2003/02/26 13:00,   -0.2,   -0.1,   -0.1,   -0.2,   -0.2,   -0.0,    0.0,   -0.0,    0.1,    0.1,    0.1,    0.1,    0.1,    0.1,    0.1,    0.1,    0.1,    0.1,    0.0,    0.1,   -0.0,   -0.0,    0.0,    0.0,    0.0,    0.1,   -0.1,    0.0,    0.0,    0.0,   -0.0,   -0.1,    0.1,    0.1,   -0.0,    0.0,    0.1,    0.1,   -0.0,   -0.1,    0.0,    0.0,    0.0,   -0.0,    0.0,   -0.0,   -0.0,   -0.0,    0.0,    0.0,   -0.1,   -0.0,   -0.1,   -0.0,    0.4,   -0.1,   -0.0,    0.1,    0.1,    0.4,    0.0,    0.6,    1.3,  999.0,  999.0,    0.8,  999.0,    0.1,    1.0,  999.0,    0.1,    0.3,    0.4,    1.1,  999.0,    0.9,    1.1,    1.5,    0.8,    1.1,  999.0,    1.5,  999.0,    1.5,    1.0,    0.7,    1.2,    2.2,    0.6,    0.4,    0.3,    0.3,    0.9,  999.0,    1.7,    0.2,    0.1,    0.1,    0.0,   -0.0,   -0.1,   -0.1,   -0.1,   -0.1,   -0.1,   -0.0,   -0.0,   -0.0,    0.0,  999.0,    0.1,    0.1,    0.1,    0.1,    0.0,    0.2,    0.1,  999.0,  999.0,  999.0
2003/02/26 13:10,   -0.2,   -0.1,   -0.2,   -0.2,   -0.2,   -0.2,   -0.1,   -0.1,   -0.1,    0.0,    0.1,    0.1,    0.0,   -0.0,    0.1,    0.1,    0.1,    0.1,    0.1,    0.1,    0.0,    0.0,    0.2,    0.1,    0.1,    0.1,   -0.1,    0.1,    0.1,    0.0,   -0.0,    0.0,    0.0,    0.0,    0.1,    0.0,   -0.1,   -0.1,   -0.1,   -0.2,   -0.0,   -0.0,   -0.0,   -0.0,   -0.0,   -0.1,   -0.1,   -0.1,   -0.1,   -0.0,   -0.1,   -0.1,   -0.1,    0.1,    0.7,    0.3,    0.1,    0.1,   -0.0,    0.6,    0.2,    0.5,    1.3,    0.6,    0.6,    0.7,    0.8,    0.2,    0.6,    1.1,    0.2,    0.5,    0.3,    1.3,  999.0,    1.0,    1.3,    1.5,    0.5,    1.3,    1.1,    1.4,    1.3,    1.4,    1.0,    1.3,    1.4,  999.0,    1.1,    0.1,    0.1,    0.1,    0.3,  999.0,    1.4,   -0.1,    0.1,    0.2,    0.0,    0.0,   -0.0,   -0.1,   -0.1,    0.0,   -0.1,   -0.0,   -0.0,    0.0,    0.0,  999.0,    0.2,    0.1,    0.3,    0.1,    0.1,    0.1,    0.1,    0.1,  999.0,  999.0
2003/02/26 13:20,   -0.2,   -0.2,   -0.2,   -0.2,   -0.1,   -0.1,   -0.1,   -0.1,   -0.1,   -0.1,   -0.1,   -0.1,   -0.1,   -0.1,  999.0,    0.1,  999.0,    0.0,  999.0,   -0.1,   -0.1,   -0.1,   -0.0,   -0.0,    0.0,    0.0,  999.0,   -0.1,    0.0,    0.1,    0.1,    0.1,    0.1,    0.1,    0.1,    0.1,    0.1,    0.1,    0.1,    0.1,    0.0,    0.0,    0.0,    0.0,    0.0,    0.0,    0.1,    0.1,    0.1,    0.1,    0.1,    0.1,    0.0,    0.4,    0.3,    0.0,    0.3,   -0.0,   -0.1,  999.0,    0.0,    0.6,  999.0,    0.1,  999.0,    0.4,  999.0,   -0.1,    0.3,  999.0,    0.0,    0.1,    0.1,  999.0,  999.0,    1.8,    1.4,    1.4,    1.6,  999.0,  999.0,    1.5,    1.1,    1.7,  999.0,    0.9,    2.2,  999.0,    1.2,   -0.2,    0.0,   -0.1,    0.4,  999.0,  999.0,    1.0,   -0.1,    0.0,    0.0,    0.0,    0.0,    0.1,    0.0,    0.0,   -0.0,    0.1,    0.1,    0.1,    0.1,  999.0,  999.0,    0.1,    0.2,    0.1,    0.1,    0.1,    0.1,    0.1,    0.0,   -0.0
2003/02/26 13:30,    0.1,    0.0,   -0.1,   -0.1,   -0.1,   -0.1,   -0.0,   -0.1,   -0.1,   -0.1,   -0.1,   -0.1,    0.0,    0.0,    0.1,    0.1,    0.1,   -0.1,   -0.1,   -0.1,   -0.0,   -0.0,   -0.1,   -0.1,   -0.1,   -0.1,    0.0,    0.0,    0.0,    0.1,    0.0,    0.1,    0.0,    0.1,    0.0,    0.1,    0.1,    0.1,    0.1,    0.1,    0.1,    0.1,    0.1,    0.2,    0.3,    0.2,    0.1,    0.2,    0.3,    0.1,    0.2,    0.2,    0.2,    0.2,    0.1,    0.3,    0.4,    0.2,    0.2,    0.6,    0.3,    0.7,    1.2,    0.2,    0.6,   -0.1,    0.3,   -0.1,    0.2,  999.0,    0.2,    0.1,    0.3,  999.0,    1.7,    1.8,    1.3,    1.5,    1.3,    0.6,  999.0,    1.4,  999.0,  999.0,  999.0,    0.8,  999.0,  999.0,    0.8,    0.1,    0.1,    0.1,    0.4,  999.0,  999.0,    0.6,   -0.0,    0.0,    0.0,    0.1,    0.0,    0.1,   -0.0,    0.2,    0.0,    0.1,    0.1,    0.0,    0.0,  999.0,  999.0,    0.0,    0.0,    0.1,   -0.0,   -0.0,   -0.0,   -0.1,   -0.1,   -0.2
2003/02/26 13:40,    0.1,    0.1,    0.0,   -0.0,   -0.1,   -0.1,   -0.1,   -0.2,   -0.2,   -0.1,   -0.2,   -0.2,   -0.1,   -0.1,   -0.1,   -0.1,   -0.1,   -0.0,   -0.2,   -0.1,   -0.1,    0.0,  999.0,   -0.1,   -0.1,   -0.0,    0.0,   -0.0,   -0.0,   -0.1,   -0.1,   -0.1,   -0.1,   -0.1,    0.0,   -0.0,   -0.0,   -0.1,   -0.0,    0.0,    0.0,    0.1,    0.1,    0.1,    0.0,    0.1,    0.1,    0.1,    0.1,    0.1,    0.0,    0.1,    0.2,    0.1,   -0.0,   -0.1,   -0.0,   -0.2,   -0.1,    0.6,    0.3,    0.6,    0.4,    0.1,    0.5,   -0.1,    0.4,   -0.2,    0.8,  999.0,    0.7,  999.0,    0.4,    1.0,    1.6,    1.0,    1.6,    1.0,  999.0,    0.4,  999.0,    1.7,  999.0,  999.0,  999.0,  999.0,    1.3,    0.8,    0.9,    0.3,    0.2,    0.2,    0.7,    2.1,    0.9,    0.4,    0.0,   -0.0,    0.0,   -0.1,    0.0,    0.0,    0.0,   -0.1,   -0.1,    0.0,    0.0,   -0.0,   -0.1,  999.0,  999.0,   -0.0,   -0.1,   -0.0,   -0.1,   -0.1,   -0.0,   -0.0,  999.0,   -0.2
2003/02/26 13:50,    0.2,    0.1,    0.2,    0.1,    0.1,    0.2,    0.0,   -0.1,   -0.2,   -0.1,   -0.1,   -0.1,   -0.1,   -0.1,   -0.0,    0.1,    0.1,    0.1,    0.0,   -0.0,    0.0,    0.1,    0.1,    0.1,   -0.0,    0.0,    0.1,   -0.0,   -0.1,   -0.2,   -0.0,   -0.0,    0.0,    0.1,    0.1,    0.2,    0.1,    0.1,    0.2,    0.1,    0.2,    0.3,    0.2,    0.2,  999.0,    0.2,    0.2,    0.1,    0.1,    0.2,    0.2,    0.2,    0.2,    0.1,    0.1,    0.1,    0.2,    0.1,   -0.1,    1.1,    0.5,    0.9,    0.1,    1.1,    0.0,   -0.1,  999.0,   -0.1,    1.1,  999.0,    0.2,   -0.1,    0.5,  999.0,    1.5,    0.8,    1.1,    1.7,  999.0,  999.0,    0.9,    1.0,  999.0,    1.3,  999.0,  999.0,    1.3,    1.0,    0.9,    0.4,    0.3,    0.3,    0.5,    1.1,    0.8,    0.4,    0.1,    0.1,    0.1,   -0.0,    0.0,    0.1,   -0.1,   -0.1,   -0.1,   -0.0,   -0.1,    0.0,   -0.1,  999.0,  999.0,   -0.0,   -0.0,   -0.1,   -0.1,    0.0,    0.1,    0.1,  999.0,    0.0
2003/02/26 14:00,    0.6,    0.5,    0.2,    0.1,   -0.1,   -0.2,   -0.1,   -0.3,   -0.3,   -0.4,   -0.5,   -0.4,   -0.3,   -0.2,   -0.2,   -0.1,    0.0,   -0.0,    0.0,   -0.0,    0.0,    0.1,    0.1,    0.1,    0.1,    0.2,    0.0,    0.1,    0.0,   -0.0,    0.0,    0.0,    0.0,  999.0,    0.1,    0.0,    0.0,    0.1,    0.1,    0.0,    0.1,   -0.0,   -0.0,    0.0,    0.2,    0.1,    0.1,    0.0,   -0.0,   -0.0,    0.0,   -0.0,   -0.1,   -0.0,   -0.1,   -0.0,    0.0,   -0.1,   -0.1,    0.9,    0.1,    0.4,  999.0,    0.9,    0.2,    0.1,    0.7,    0.2,  999.0,  999.0,    0.1,    0.5,  999.0,    0.2,  999.0,    1.5,    1.6,    1.3,    1.8,  999.0,  999.0,    1.1,    1.8,  999.0,  999.0,    0.6,  999.0,    1.7,    0.4,    0.2,    0.1,    0.3,    0.5,  999.0,    0.6,    0.2,    0.2,    0.1,    0.1,   -0.0,    0.0,    0.0,   -0.1,    0.0,   -0.0,    0.0,    0.0,   -0.0,   -0.0,  999.0,  999.0,   -0.5,   -0.0,   -0.1,   -0.1,    0.0,   -0.1,   -0.0,   -0.2,   -0.0
2003/02/26 14:10,    0.2,    0.1,   -0.1,   -0.1,   -0.1,   -0.2,   -0.2,   -0.4,   -0.4,   -0.5,   -0.5,   -0.5,   -0.7,   -0.4,   -0.3,   -0.1,    0.0,    0.1,    0.0,   -0.0,   -0.1,   -0.0,    0.1,   -0.0,   -0.1,   -0.2,   -0.1,   -0.3,    0.1,   -0.1,   -0.1,   -0.1,   -0.1,   -0.1,   -0.1,   -0.1,   -0.0,    0.0,    0.0,    0.1,   -0.0,    0.0,   -0.0,    0.1,    0.1,    0.1,    0.2,    0.1,    0.2,    0.2,    0.2,    0.3,    0.3,    0.2,    0.3,    0.3,    0.4,    0.1,    0.3,    0.6,    0.2,    0.5,    1.1,    0.7,    0.3,    0.2,    0.6,    0.3,    0.8,    1.3,   -0.1,  999.0,    1.1,    0.5,  999.0,  999.0,    1.1,    1.6,    1.3,    1.4,  999.0,    1.1,    1.5,    1.5,    1.2,  999.0,    1.8,    1.5,    0.5,   -0.2,   -0.1,   -0.1,    0.4,    1.1,    0.6,    0.3,   -0.2,    0.1,   -0.0,    0.1,    0.1,    0.0,   -0.1,   -0.0,    0.0,    0.0,    0.0,    0.0,    0.1,    0.0,  999.0,  999.0,    0.0,   -0.1,   -0.1,    0.0,    0.0,    0.0,   -0.0,    0.1
2003/02/26 14:20,    0.1,   -0.1,   -0.2,   -0.1,   -0.0,   -0.1,   -0.3,   -0.2,   -0.4,   -0.5,   -0.4,   -0.3,   -0.4,   -0.2,   -0.1,    0.1,    0.1,    0.3,    0.1,    0.1,    0.1,    0.1,    0.1,    0.1,  999.0,    0.1,    0.1,    0.1,    0.2,    0.1,    0.1,    0.1,    0.0,    0.1,    0.0,   -0.1,    0.0,    0.0,    0.0,   -0.0,   -0.0,   -0.0,   -0.0,    0.0,    0.0,    0.1,    0.1,    0.1,    0.1,   -0.0,   -0.1,   -0.1,   -0.1,    0.0,    0.1,    0.2,    0.5,   -0.1,    0.1,    0.6,    0.1,    0.3,    0.8,    0.9,    0.1,   -0.2,    0.1,   -0.2,    0.8,    0.8,  999.0,    1.3,    0.3,    0.5,    0.5,   -0.0,    0.5,    1.0,    0.8,    0.4,  999.0,    0.9,  999.0,    1.7,  999.0,  999.0,    0.6,    1.0,    0.2,   -0.5,    0.0,    0.0,    0.6,    0.9,    1.2,    1.0,  999.0,  999.0,   -0.0,    0.0,    0.1,    0.0,   -0.0,   -0.1,   -0.1,   -0.1,   -0.1,   -0.0,   -0.0,   -0.1,  999.0,  999.0,   -0.1,   -0.2,   -0.1,  999.0,   -0.1,   -0.0,  999.0,  999.0
2003/02/26 14:30,    0.8,    0.1,    0.0,   -0.1,   -0.2,   -0.3,   -0.3,   -0.2,   -0.5,   -0.5,   -0.3,   -0.6,   -0.3,   -0.2,   -0.1,    0.0,    0.1,    0.2,    0.2,    0.1,  999.0,  999.0,   -0.0,    0.1,    0.1,   -0.0,   -0.0,    0.1,    0.1,    0.1,    0.1,    0.0,    0.0,    0.1,    0.0,    0.0,    0.1,    0.1,   -0.1,    0.0,    0.1,    0.0,   -0.0,    0.1,    0.0,    0.1,    0.0,    0.1,    0.1,   -0.0,   -0.0,   -0.1,   -0.0,   -0.1,    0.2,    0.2,    0.4,   -0.0,    0.1,    0.7,    0.4,    0.3,    1.4,    1.0,    0.2,    0.1,    0.5,    0.2,    0.9,    1.2,   -0.0,    0.0,   -0.4,    0.4,    0.9,    0.5,    0.3,    0.5,    0.8,   -0.3,    0.5,    0.5,  999.0,  999.0,  999.0,  999.0,  999.0,    1.2,    0.7,  999.0,    0.4,    0.7,    0.7,    1.6,    1.3,    1.0,  999.0,  999.0,    0.0,   -0.1,   -0.0,   -0.0,    0.0,    0.0,   -0.1,    0.0,    0.0,    0.1,   -0.0,   -0.1,  999.0,   -0.1,   -0.1,   -0.1,   -0.1,  999.0,    0.0,    0.0,  999.0,  999.0
2003/02/26 14:40,    0.9,    0.5,    0.3,    0.2,    0.2,   -0.1,   -0.3,   -0.2,   -0.4,   -0.5,   -0.4,   -0.5,   -0.5,   -0.5,   -0.4,   -0.4,   -0.3,   -0.1,   -0.3,   -0.1,   -0.3,   -0.3,   -0.1,   -0.1,   -0.1,    0.0,    0.0,    0.0,    0.0,    0.0,    0.0,    0.0,    0.1,    0.1,    0.1,    0.0,    0.1,   -0.0,  999.0,    0.1,    0.1,    0.0,    0.0,    0.1,    0.0,    0.1,    0.1,    0.1,    0.1,    0.1,   -0.0,    0.0,    0.1,    0.1,    0.0,    0.1,    0.0,    0.0,    0.1,    0.8,    0.3,    0.3,    1.1,    0.7,    0.3,    0.2,    0.4,   -0.2,    0.5,    0.3,    0.4,    0.5,    0.3,    0.3,    0.7,    0.4,    0.3,    0.4,    0.4,    0.3,  999.0,    0.3,  999.0,    1.0,  999.0,    0.4,    0.9,    0.5,    0.8,    0.2,    0.3,    0.4,    0.8,    1.0,  999.0,    0.8,  999.0,    0.0,    0.1,    0.0,   -0.0,   -0.1,   -0.1,   -0.0,   -0.1,    0.0,    0.0,    0.1,    0.1,  999.0,  999.0,    0.0,   -0.1,   -0.1,  999.0,  999.0,    0.0,   -0.1,  999.0,   -0.1
2003/02/26 14:50,    0.3,  999.0,    0.3,    0.1,    0.2,   -0.1,   -0.2,   -0.1,   -0.2,   -0.2,   -0.3,   -0.4,   -0.4,   -0.4,   -0.1,    0.1,    0.1,    0.2,    0.1,    0.1,    0.0,    0.1,    0.1,    0.1,    0.1,    0.0,    0.1,  999.0,   -0.1,   -0.1,   -0.2,   -0.2,   -0.1,   -0.1,   -0.1,   -0.1,   -0.1,   -0.1,   -0.0,   -0.0,   -0.1,   -0.0,    0.0,    0.0,    0.0,    0.1,    0.1,    0.1,    0.0,   -0.0,   -0.1,   -0.0,   -0.0,    0.0,   -0.0,    0.0,    0.0,    0.1,   -0.0,    0.2,   -0.0,    0.0,    0.0,    0.0,    0.0,    0.2,   -0.0,   -0.1,    0.1,    0.1,   -0.3,   -0.0,    0.1,    0.0,    0.1,    0.2,    0.1,    0.1,    0.2,    0.2,  999.0,    0.0,   -0.4,    0.0,  999.0,   -0.4,    0.0,    0.1,   -0.1,    0.0,    0.1,    0.2,    0.1,    0.1,   -0.0,   -0.1,  999.0,    0.0,    0.1,    0.0,    0.0,    0.1,    0.0,    0.1,    0.0,    0.0,   -0.1,   -0.0,   -0.0,  999.0,  999.0,   -0.0,   -0.1,   -0.1,    0.0,  999.0,   -0.1,   -0.2,  999.0,  999.0
2003/02/26 15:00,    0.5,    0.3,    0.4,    0.1,    0.2,    0.0,   -0.1,   -0.1,   -0.1,    0.0,   -0.1,   -0.3,   -0.4,   -0.3,   -0.3,   -0.1,   -0.1,    0.0,   -0.1,   -0.1,   -0.1,   -0.1,   -0.1,   -0.0,   -0.1,   -0.1,   -0.1,   -0.1,   -0.1,   -0.1,    0.0,   -0.1,   -0.0,   -0.0,    0.0,    0.1,    0.1,    0.0,    0.0,    0.0,   -0.1,   -0.1,   -0.1,   -0.1,   -0.1,   -0.1,   -0.1,   -0.1,   -0.2,   -0.1,   -0.2,   -0.2,   -0.3,   -0.2,    0.5,   -0.2,   -0.2,   -0.2,   -0.3,    0.7,   -0.2,    0.3,    1.2,    0.8,    0.2,    0.1,    0.6,    0.3,    1.2,    1.9,  999.0,    0.5,    0.9,    0.8,    1.7,    1.0,    1.3,    1.3,    1.4,    1.6,    1.3,    1.4,  999.0,    1.5,    0.9,  999.0,    1.6,    1.1,    0.8,   -0.2,    0.2,    0.1,    0.4,    1.1,    1.2,    0.5,  999.0,  999.0,   -0.1,   -0.1,   -0.0,   -0.0,    0.0,    0.1,    0.1,    0.1,   -0.2,   -0.1,   -0.1,  999.0,  999.0,   -0.1,    0.1,    0.1,    0.2,   -0.1,    0.1,    0.1,  999.0,  999.0
2003/02/26 15:10,   -0.0,    0.1,    0.4,    0.1,    0.0,   -0.1,   -0.3,   -0.1,    0.1,   -0.1,   -0.1,   -0.1,   -0.2,   -0.3,   -0.2,   -0.0,   -0.0,    0.1,    0.1,    0.2,    0.1,    0.1,    0.1,    0.0,    0.0,   -0.1,   -0.1,   -0.1,   -0.1,   -0.1,  999.0,  999.0,    0.1,    0.0,    0.1,  999.0,    0.2,    0.1,    0.0,    0.1,    0.1,   -0.0,   -0.0,   -0.0,   -0.0,   -0.1,   -0.1,   -0.0,   -0.0,    0.1,    0.2,    0.0,    0.0,    0.1,    0.4,    0.1,    0.2,    0.0,    0.1,    0.2,   -0.0,    0.1,    0.3,    0.1,   -0.0,   -0.1,   -0.0,    0.0,    0.3,    0.0,    0.4,    0.4,    0.2,    0.2,    0.5,    0.5,    0.2,    0.2,   -0.1,    0.5,  999.0,    1.0,  999.0,    0.5,  999.0,  999.0,    0.7,    0.5,    0.5,    0.0,    0.2,    0.2,    0.2,    0.4,    0.6,    0.3,  999.0,  999.0,   -0.0,   -0.1,    0.2,    0.1,    0.1,    0.1,    0.1,    0.4,    0.0,   -0.0,   -0.0,  999.0,  999.0,    0.0,    0.0,   -0.1,   -0.0,   -0.0,   -0.1,    0.1,  999.0,  999.0
2003/02/26 15:20,   -0.4,   -0.0,    0.2,   -0.0,   -0.0,   -0.2,   -0.4,   -0.5,   -0.4,   -0.4,   -0.4,   -0.3,   -0.2,   -0.2,   -0.3,   -0.0,    0.0,    0.1,    0.3,    0.3,    0.1,    0.1,    0.1,    0.2,    0.1,   -0.0,   -0.1,    0.1,    0.1,    0.0,    0.1,    0.1,    0.0,    0.0,    0.0,   -0.1,    0.0,   -0.1,   -0.1,   -0.2,   -0.2,   -0.2,   -0.1,   -0.2,   -0.2,   -0.2,   -0.1,   -0.1,   -0.0,   -0.0,   -0.1,   -0.1,   -0.1,    0.0,    0.0,   -0.0,    0.1,   -0.0,   -0.0,    0.0,    0.0,    0.0,   -0.0,    0.0,   -0.1,   -0.2,   -0.0,   -0.5,   -0.1,   -0.0,    0.2,    0.1,    0.0,    0.0,    0.0,   -0.1,   -0.3,   -0.1,   -0.1,   -0.3,  999.0,    0.3,   -0.7,   -0.0,  999.0,    0.5,    0.0,    0.1,    0.1,   -0.1,   -0.1,    0.0,   -0.1,   -0.0,    0.0,   -0.1,   -0.2,  999.0,   -0.1,    0.1,    0.1,    0.1,    0.1,    0.1,   -0.0,  999.0,   -0.1,   -0.1,   -0.1,  999.0,   -0.0,   -0.1,   -0.2,   -0.1,   -0.1,   -0.1,   -0.1,  999.0,  999.0,  999.0
2003/02/26 15:30,   -0.1,    0.1,    0.1,   -0.1,   -0.1,   -0.0,   -0.2,   -0.2,   -0.3,   -0.5,   -0.4,   -0.3,   -0.2,   -0.1,   -0.1,    0.1,    0.4,    0.5,    0.5,    0.2,    0.1,    0.2,    0.0,   -0.2,   -0.1,   -0.1,   -0.1,    0.0,    0.0,    0.0,   -0.0,   -0.1,   -0.1,    0.0,    0.0,   -0.1,   -0.1,   -0.2,   -0.0,   -0.1,    0.1,   -0.0,    0.1,    0.2,    0.1,    0.1,    0.2,    0.1,    0.1,    0.1,    0.1,    0.1,    0.2,    0.1,    0.1,    0.2,    0.2,    0.1,    0.1,    0.1,    0.1,    0.0,    0.1,    0.0,   -0.0,   -0.2,   -0.0,   -0.2,   -0.0,    0.0,   -0.0,   -0.1,   -0.1,   -0.0,    0.1,   -0.2,   -0.1,    0.0,   -0.2,   -0.0,  999.0,  999.0,    0.8,   -0.0,  999.0,    0.1,    0.1,   -0.0,    0.2,   -0.0,   -0.0,    0.1,    0.1,    0.1,    0.1,    0.1,   -0.1,  999.0,   -0.1,   -0.1,   -0.0,    0.1,    0.1,    0.1,    0.1,  999.0,   -0.1,   -0.0,   -0.1,  999.0,  999.0,   -0.0,   -0.1,   -0.0,    0.1,   -0.1,  999.0,  999.0,  999.0,  999.0
2003/02/26 15:40,    0.0,    0.1,    0.1,    0.0,    0.0,    0.0,    0.1,    0.1,    0.0,   -0.2,   -0.2,   -0.2,   -0.2,   -0.2,   -0.2,    0.1,    0.2,    0.5,    0.5,    0.4,    0.4,    0.2,    0.1,    0.0,   -0.1,   -0.1,   -0.4,   -0.2,   -0.3,   -0.3,   -0.2,   -0.1,   -0.2,   -0.2,    0.0,   -0.1,   -0.4,   -0.2,   -0.1,   -0.2,   -0.2,   -0.2,   -0.1,   -0.1,   -0.1,   -0.1,   -0.0,   -0.0,   -0.0,   -0.0,   -0.1,    0.0,   -0.0,    0.1,    0.0,    0.1,    0.1,   -0.0,   -0.1,    0.2,    0.1,    0.2,    0.3,    0.1,    0.1,   -0.1,    0.2,   -0.2,    0.2,    0.3,    0.2,    0.0,    0.1,    0.2,    0.3,    0.1,    0.4,    0.2,    0.0,    0.3,    0.3,    0.2,    0.9,    0.3,    0.1,    0.2,    0.4,    0.2,    0.3,    0.1,    0.1,    0.1,    0.2,    0.4,    0.2,    0.3,    0.0,  999.0,   -0.0,   -0.1,   -0.1,   -0.0,    0.0,    0.1,    0.1,    0.1,   -0.0,    0.0,   -0.1,  999.0,  999.0,   -0.0,   -0.1,   -0.1,   -0.1,   -0.1,    0.0,  999.0,  999.0,  999.0
2003/02/26 15:50,   -0.1,    0.2,    0.1,    0.0,   -0.0,   -0.1,   -0.2,   -0.2,   -0.3,   -0.3,   -0.2,   -0.3,   -0.4,   -0.5,   -0.5,   -0.2,   -0.1,   -0.1,   -0.1,    0.2,    0.1,    0.0,    0.1,    0.1,    0.1,    0.1,    0.2,    0.1,    0.0,    0.0,    0.0,    0.0,   -0.0,   -0.0,    0.0,   -0.0,    0.0,   -0.1,   -0.1,   -0.1,   -0.0,    0.0,    0.1,    0.1,    0.2,    0.2,    0.1,    0.1,    0.0,   -0.0,   -0.1,   -0.0,  999.0,    0.5,    0.3,    0.2,    0.1,    0.1,    0.1,    0.4,    0.3,    0.4,    0.6,    0.5,    0.4,    0.2,    0.3,    0.0,    0.6,    0.6,    0.8,    0.1,   -0.2,    0.3,    0.2,    0.3,    0.4,    0.7,    0.4,    0.9,  999.0,    0.7,    0.6,    0.7,    0.2,    0.8,    0.7,    0.7,    0.6,    0.4,    0.4,    0.4,    0.6,    0.7,    0.6,    0.2,   -0.0,  999.0,   -0.0,   -0.1,   -0.1,   -0.1,   -0.1,    0.0,   -0.0,   -0.0,   -0.0,   -0.0,   -0.0,  999.0,  999.0,   -0.0,   -0.0,   -0.0,   -0.0,   -0.1,   -0.0,  999.0,  999.0,  999.0
2003/02/26 16:00,    0.2,    0.1,    0.1,    0.3,    0.1,    0.1,    0.1,    0.1,   -0.0,   -0.2,   -0.1,   -0.3,   -0.3,   -0.3,   -0.2,   -0.0,    0.1,    0.2,    0.1,    0.0,    0.0,    0.0,   -0.0,   -0.0,    0.1,    0.1,    0.1,    0.1,    0.1,   -0.0,    0.0,    0.0,   -0.0,   -0.0,   -0.0,   -0.1,   -0.0,   -0.1,   -0.1,   -0.1,    0.0,    0.1,    0.0,    0.0,    0.1,   -0.1,    0.1,   -0.1,   -0.1,   -0.0,   -0.1,   -0.1,   -0.1,   -0.1,   -0.0,    0.0,    0.0,   -0.0,   -0.0,    0.1,    0.0,    0.2,    0.2,    0.3,    0.2,    0.1,    0.2,    0.0,    0.4,    0.4,    0.5,    0.1,   -0.1,    0.3,    0.4,    0.1,    0.3,    0.3,    0.3,    1.0,  999.0,    0.7,    1.1,    0.4,    0.4,  999.0,    0.5,    0.4,    0.3,    0.3,    0.3,    0.3,    0.7,    0.5,    0.7,    0.4,    0.4,  999.0,    0.2,    0.0,    0.0,    0.0,    0.0,   -0.0,   -0.1,   -0.1,   -0.1,    0.1,    0.0,   -0.1,  999.0,  999.0,   -0.0,   -0.0,    0.0,    0.0,   -0.0,  999.0,  999.0,  999.0
2003/02/26 16:10,    0.1,    0.2,    0.2,    0.1,    0.2,    0.1,    0.3,    0.3,    0.2,    0.1,    0.0,   -0.0,   -0.1,   -0.2,   -0.1,    0.1,    0.2,    0.1,   -0.0,   -0.1,   -0.1,   -0.1,   -0.1,   -0.1,   -0.0,    0.1,    0.0,   -0.2,   -0.0,   -0.1,    0.0,   -0.0,    0.0,    0.0,    0.1,   -0.0,   -0.0,   -0.0,   -0.0,   -0.0,   -0.0,   -0.1,   -0.0,   -0.0,    0.0,    0.2,    0.1,    0.1,    0.0,    0.1,    0.0,    0.1,   -0.0,   -0.0,    0.0,    0.0,    0.1,    0.0,    0.1,    0.2,    0.1,    0.2,    0.4,    0.4,    0.2,    0.2,    0.3,    0.1,    0.4,    0.4,    0.3,    0.3,    0.3,    0.3,    0.4,    0.2,    0.3,    0.5,    0.3,    0.7,  999.0,    0.2,  999.0,    0.5,  999.0,  999.0,    0.4,    0.4,    0.3,    0.2,    0.2,    0.2,    0.4,    0.4,    0.4,    0.2,    0.1,  999.0,   -0.1,    0.0,   -0.1,   -0.1,   -0.1,   -0.1,   -0.1,   -0.1,   -0.1,   -0.0,   -0.1,   -0.1,  999.0,   -0.1,   -0.1,   -0.1,   -0.1,    0.1,   -0.0,   -0.0,  999.0,  999.0
2003/02/26 16:20,    0.2,    0.7,    0.3,    0.3,    0.3,    0.2,    0.1,    0.2,    0.1,    0.0,   -0.1,   -0.1,   -0.1,   -0.2,   -0.0,    0.1,   -0.0,    0.1,    0.1,    0.0,   -0.0,   -0.1,    0.0,   -0.0,   -0.1,   -0.1,   -0.1,   -0.2,   -0.1,   -0.0,   -0.0,    0.0,    0.1,    0.0,    0.0,   -0.1,    0.0,   -0.1,   -0.1,   -0.1,    0.1,   -0.3,   -0.1,    0.0,    0.1,    0.1,    0.1,    0.1,   -0.1,   -0.1,   -0.1,    0.1,   -0.1,   -0.1,   -0.0,   -0.1,   -0.0,   -0.1,   -0.1,   -0.0,    0.0,    0.0,    0.0,    0.0,   -0.1,   -0.0,   -0.0,   -0.3,   -0.0,   -0.1,   -0.1,   -0.1,    0.4,    0.2,   -0.1,    0.4,   -0.0,    0.4,   -0.1,   -0.6,  999.0,  999.0,  999.0,   -0.0,  999.0,  999.0,   -0.0,   -0.2,   -0.1,   -0.0,    0.0,   -0.1,   -0.1,   -0.1,    0.1,   -0.1,   -0.3,   -0.1,   -0.2,   -0.1,   -0.2,   -0.1,   -0.2,   -0.2,   -0.2,   -0.2,   -0.1,    0.0,   -0.0,  999.0,  999.0,    0.0,    0.1,    0.1,    0.2,  999.0,    0.1,    0.0,  999.0,  999.0
2003/02/26 16:30,   -0.1,   -0.1,    0.0,    0.1,    0.1,    0.1,   -0.0,    0.1,   -0.0,   -0.1,   -0.1,   -0.1,   -0.2,   -0.2,   -0.1,    0.0,    0.1,    0.0,    0.0,   -0.1,   -0.1,   -0.1,   -0.2,   -0.1,   -0.0,    0.1,   -0.0,   -0.0,   -0.1,   -0.2,   -0.1,   -0.2,   -0.1,   -0.1,    0.0,   -0.0,   -0.0,   -0.1,   -0.0,   -0.1,    0.0,   -0.1,   -0.0,   -0.0,    0.0,    0.0,    0.1,    0.0,    0.0,    0.0,    0.1,    0.2,    0.1,    0.0,    0.1,    0.1,    0.1,    0.1,    0.1,    0.0,    0.0,    0.0,    0.1,    0.1,    0.1,    0.2,   -0.0,   -0.1,    0.1,    0.1,    0.2,    0.1,   -0.0,    0.1,    0.1,    0.2,    0.2,    0.3,    0.0,   -0.2,  999.0,    0.3,  999.0,    0.1,  999.0,  999.0,    0.1,   -0.1,    0.1,   -0.1,   -0.1,   -0.1,    0.1,    0.1,    0.1,    0.0,    0.0,   -0.1,    0.0,   -0.0,   -0.0,   -0.0,   -0.0,    0.0,    0.0,    0.0,    0.1,    0.1,    0.1,    0.0,  999.0,  999.0,    0.1,    0.1,    0.0,   -0.0,   -0.0,   -0.1,   -0.2,  999.0
2003/02/26 16:40,   -0.2,   -0.3,   -0.2,   -0.1,   -0.0,   -0.1,   -0.1,   -0.0,   -0.1,   -0.2,   -0.3,   -0.2,   -0.0,   -0.1,   -0.1,    0.0,    0.1,    0.1,    0.1,   -0.0,   -0.2,   -0.1,   -0.1,   -0.1,   -0.0,   -0.0,    0.2,    0.1,   -0.0,   -0.1,   -0.1,   -0.0,   -0.1,   -0.1,   -0.1,   -0.2,   -0.2,   -0.2,   -0.3,   -0.2,   -0.1,   -0.1,   -0.2,   -0.2,   -0.1,   -0.1,   -0.0,   -0.1,   -0.1,   -0.0,   -0.1,   -0.0,   -0.1,   -0.0,    0.0,   -0.0,   -0.1,   -0.1,   -0.1,    0.0,   -0.0,   -0.0,    0.1,    0.1,    0.1,    0.1,    0.1,    0.3,    0.2,    0.1,    0.6,   -0.0,    0.2,    0.2,    0.3,    0.2,    0.3,    0.3,    0.1,    0.1,    0.7,    0.5,    0.5,    0.2,    0.7,  999.0,    0.0,    0.1,    0.2,   -0.0,    0.1,    0.0,    0.1,    0.1,    0.1,    0.2,    0.2,   -0.1,    0.1,    0.1,    0.1,    0.0,    0.0,    0.1,    0.2,   -0.0,   -0.1,    0.0,   -0.1,   -0.0,  999.0,  999.0,    0.1,    0.2,   -0.1,   -0.1,    0.0,   -0.0,  999.0,  999.0
2003/02/26 16:50,    0.3,    0.1,    0.1,    0.0,    0.1,    0.0,   -0.0,   -0.0,    0.0,    0.1,   -0.0,    0.1,    0.2,    0.1,    0.1,    0.1,    0.1,    0.1,    0.2,    0.2,   -0.1,   -0.1,   -0.0,   -0.1,   -0.1,   -0.0,   -0.0,   -0.1,    0.0,   -0.0,   -0.1,    0.0,   -0.0,    0.0,   -0.0,   -0.0,   -0.1,   -0.2,   -0.2,   -0.1,    0.0,    0.0,    0.1,   -0.0,   -0.0,    0.0,    0.0,   -0.1,   -0.1,   -0.1,   -0.1,   -0.0,   -0.1,   -0.1,    0.0,   -0.1,   -0.1,   -0.1,   -0.0,    0.1,   -0.0,    0.1,    0.4,    0.3,    0.2,    0.0,    0.2,    0.0,    0.2,    0.3,    0.1,    0.1,    0.1,    0.2,    0.3,   -0.1,    0.0,    0.2,    0.1,   -0.1,    0.4,    0.4,    0.0,    0.3,  999.0,   -0.7,    0.2,    0.2,    0.3,   -0.2,    0.1,   -0.1,   -0.1,    0.1,    0.2,    0.2,    0.0,   -0.2,   -0.0,   -0.0,   -0.0,    0.0,    0.0,    0.1,    0.1,    0.1,   -0.0,    0.0,   -0.1,   -0.0,  999.0,  999.0,    0.0,    0.2,    0.0,    0.0,    0.1,    0.0,  999.0,    0.2
2003/02/26 17:00,   -0.1,   -0.0,   -0.0,   -0.0,   -0.1,   -0.0,   -0.1,   -0.1,   -0.2,   -0.3,   -0.2,   -0.2,   -0.0,   -0.1,   -0.0,   -0.1,   -0.1,    0.0,    0.1,    0.1,   -0.1,   -0.1,   -0.1,   -0.0,   -0.0,    0.0,   -0.1,   -0.2,   -0.2,   -0.1,    0.1,    0.2,    0.3,    0.3,    0.2,    0.3,    0.2,    0.2,    0.3,    0.3,    0.4,    0.3,    0.4,    0.4,    0.3,    0.2,    0.2,    0.1,    0.1,    0.0,    0.0,    0.1,    0.1,   -0.0,   -0.1,   -0.1,   -0.1,   -0.1,   -0.1,    0.6,   -0.2,    0.5,    1.7,    1.0,    0.8,   -0.3,    0.5,   -0.4,    1.2,    1.3,    0.2,    0.2,    0.1,    0.7,    1.1,    0.0,    0.3,    0.4,    0.7,    0.7,   -0.1,    0.7,   -0.7,  999.0,   -0.0,  999.0,    0.8,  999.0,    0.6,   -0.2,   -0.1,   -0.0,    0.1,    1.0,    1.1,    0.4,   -0.1,  999.0,    0.0,    0.1,    0.1,    0.1,    0.1,    0.1,    0.1,    0.0,   -0.1,   -0.1,   -0.1,   -0.1,  999.0,  999.0,  999.0,   -0.2,   -0.1,   -0.0,    0.1,   -0.0,  999.0,    0.1
2003/02/26 17:10,   -0.1,   -0.0,   -0.0,   -0.1,   -0.1,   -0.0,   -0.1,   -0.1,   -0.1,   -0.1,   -0.1,   -0.1,   -0.1,   -0.1,   -0.0,   -0.1,   -0.2,   -0.1,    0.0,    0.1,    0.1,    0.1,    0.2,    0.3,    0.3,    0.1,    0.1,   -0.0,   -0.1,   -0.1,    0.0,    0.0,    0.2,    0.2,    0.2,    0.1,    0.2,    0.2,    0.1,    0.1,   -0.0,   -0.1,   -0.1,   -0.1,   -0.1,   -0.2,   -0.2,   -0.1,   -0.2,   -0.2,   -0.2,   -0.2,   -0.2,   -0.3,   -0.2,   -0.2,   -0.1,   -0.2,   -0.2,    0.2,   -0.2,    0.2,    0.5,    0.5,    0.1,   -0.3,    0.4,   -0.3,    0.9,    0.9,    0.3,    0.3,    0.4,    0.5,    0.7,    0.3,    0.6,    0.4,    0.6,    0.5,    0.2,    0.4,   -0.0,    0.9,    0.0,    1.3,    0.6,    0.5,    0.9,    0.2,    0.2,    0.3,    0.4,    0.6,    0.6,    0.6,    0.2,  999.0,    0.1,    0.1,    0.0,    0.0,    0.0,   -0.0,   -0.1,  999.0,    0.0,   -0.0,   -0.0,    0.1,  999.0,  999.0,    0.4,   -0.1,   -0.0,    0.1,   -0.0,    0.1,    0.1,    0.5
2003/02/26 17:20,   -0.1,   -0.1,   -0.2,   -0.1,   -0.1,   -0.2,   -0.2,   -0.2,   -0.2,   -0.2,   -0.2,   -0.1,   -0.1,   -0.1,   -0.1,   -0.1,    0.0,   -0.0,    0.1,    0.3,    0.2,    0.0,   -0.1,   -0.1,   -0.1,   -0.1,   -0.1,   -0.1,   -0.1,   -0.0,   -0.1,   -0.1,   -0.1,    0.0,   -0.1,   -0.1,   -0.1,   -0.1,   -0.1,   -0.1,   -0.1,   -0.1,   -0.2,   -0.3,   -0.1,   -0.2,   -0.2,   -0.1,   -0.1,   -0.2,   -0.2,   -0.2,   -0.2,   -0.1,    0.0,    0.0,    0.1,    0.1,    0.1,    0.3,    0.3,    0.2,    0.4,    0.3,    0.3,    0.2,    0.3,    0.5,    0.4,    0.3,    0.6,    0.6,    0.6,    0.3,    0.4,    0.5,    0.5,    0.4,    0.5,    0.3,    0.7,    0.4,    0.5,    0.4,  999.0,  999.0,    0.4,    0.4,    0.5,    0.3,    0.4,    0.5,    0.4,    0.5,    0.3,    0.4,    0.2,  999.0,    0.1,    0.0,   -0.1,   -0.1,   -0.1,   -0.1,   -0.1,  999.0,   -0.1,    0.0,    0.0,    0.1,  999.0,  999.0,   -0.1,   -0.1,   -0.1,   -0.1,    0.2,   -0.0,  999.0,  999.0
2003/02/26 17:30,    0.0,   -0.1,   -0.2,   -0.1,   -0.1,   -0.1,   -0.1,   -0.1,   -0.2,   -0.1,   -0.4,   -0.5,   -0.3,   -0.2,   -0.2,   -0.1,   -0.1,    0.0,   -0.0,   -0.0,   -0.0,   -0.1,   -0.1,   -0.1,   -0.1,   -0.1,   -0.1,   -0.0,   -0.0,   -0.0,    0.0,    0.0,    0.0,   -0.0,   -0.0,   -0.1,   -0.0,    0.0,   -0.0,    0.0,   -0.1,   -0.1,   -0.1,    0.0,   -0.0,    0.0,   -0.0,   -0.0,   -0.0,    0.0,   -0.1,    0.0,    0.1,   -0.0,    0.1,    0.1,    0.1,    0.2,    0.2,    0.1,    0.2,    0.2,    0.2,    0.2,    0.2,    0.1,    0.1,    0.2,    0.1,    0.1,    0.5,    0.3,    0.5,    0.1,    0.1,    0.2,    0.1,    0.3,    0.1,    0.3,    0.3,    0.3,    0.6,    0.2,    0.4,   -0.1,    0.1,    0.1,    0.0,    0.0,    0.1,    0.1,   -0.0,    0.0,   -0.0,   -0.0,    0.1,  999.0,  999.0,   -0.2,   -0.2,   -0.1,   -0.1,   -0.1,  999.0,  999.0,   -0.1,   -0.0,    0.0,    0.0,  999.0,  999.0,   -0.0,   -0.1,   -0.1,    0.0,   -0.0,    0.1,  999.0,  999.0
2003/02/26 17:40,    0.1,   -0.0,    0.1,    0.1,    0.0,   -0.1,   -0.0,   -0.2,   -0.3,   -0.2,   -0.3,   -0.4,   -0.4,   -0.2,   -0.2,   -0.2,   -0.2,   -0.3,   -0.1,   -0.1,   -0.2,   -0.1,   -0.1,   -0.1,   -0.1,   -0.1,    0.1,    0.1,    0.0,    0.1,    0.1,    0.1,    0.2,    0.0,    0.0,   -0.0,   -0.0,    0.0,    0.0,    0.1,    0.0,   -0.0,    0.1,    0.1,    0.1,    0.1,    0.1,    0.1,    0.0,    0.1,    0.1,    0.0,    0.1,   -0.0,    0.0,    0.1,    0.1,    0.1,   -0.0,    0.0,    0.0,    0.1,    0.2,    0.1,    0.0,    0.1,    0.1,    0.2,    0.1,    0.1,    0.3,    0.0,    0.2,    0.0,    0.0,   -0.0,   -0.0,   -0.0,   -0.0,   -0.0,    0.4,    0.1,  999.0,    0.1,   -0.2,   -0.2,    0.0,    0.1,   -0.2,   -0.3,   -0.3,   -0.3,   -0.3,   -0.1,   -0.1,   -0.4,   -0.3,  999.0,    0.1,   -0.2,   -0.0,    0.0,    0.1,    0.2,    0.1,  999.0,   -0.0,    0.1,    0.1,    0.1,  999.0,  999.0,    0.0,    0.0,    0.0,  999.0,  999.0,    0.2,  999.0,  999.0
2003/02/26 17:50,    0.1,    0.2,    0.2,    0.2,    0.2,    0.1,    0.0,   -0.0,   -0.1,   -0.2,   -0.3,   -0.3,   -0.3,   -0.2,   -0.2,   -0.2,   -0.3,   -0.2,   -0.1,   -0.1,   -0.1,   -0.1,   -0.1,   -0.0,   -0.1,   -0.1,   -0.1,   -0.0,   -0.2,   -0.0,   -0.0,    0.0,   -0.0,   -0.0,   -0.1,   -0.0,    0.0,    0.0,   -0.0,   -0.1,   -0.1,   -0.0,    0.1,   -0.1,    0.0,    0.1,    0.1,    0.2,    0.1,    0.1,    0.0,    0.1,    0.1,    0.1,    0.0,    0.1,    0.2,    0.1,    0.0,    0.0,   -0.0,   -0.0,   -0.0,    0.0,   -0.0,   -0.0,   -0.0,   -0.0,    0.0,    0.0,  999.0,  999.0,   -0.1,    0.0,   -0.1,   -0.0,   -0.1,   -0.1,   -0.2,   -0.4,  999.0,   -0.3,  999.0,    0.1,   -0.6,  999.0,   -0.1,   -0.0,    0.0,  999.0,   -0.2,   -0.3,   -0.3,   -0.1,   -0.1,   -0.0,    0.4,  999.0,    0.1,    0.1,    0.1,    0.1,    0.2,    0.1,    0.1,  999.0,    0.0,   -0.0,   -0.1,    0.0,    0.2,   -0.0,   -0.1,   -0.1,   -0.0,  999.0,  999.0,  999.0,  999.0,  999.0
2003/02/26 18:00,   -0.2,   -0.1,    0.0,    0.0,   -0.0,   -0.1,   -0.2,   -0.1,   -0.1,   -0.2,   -0.3,   -0.4,   -0.4,   -0.4,   -0.2,   -0.2,   -0.2,   -0.1,    0.0,    0.0,   -0.1,    0.0,    0.0,   -0.0,    0.1,   -0.1,   -0.1,    0.0,    0.0,    0.1,   -0.1,   -0.0,    0.0,    0.0,   -0.1,   -0.1,   -0.1,   -0.1,    0.1,    0.1,    0.1,    0.0,    0.1,    0.1,    0.1,    0.0,    0.1,    0.1,    0.0,    0.2,    0.1,    0.1,    0.0,    0.0,    0.0,    0.0,    0.1,    0.1,   -0.0,    0.1,    0.0,    0.0,   -0.0,    0.1,    0.0,    0.2,   -0.1,    0.1,   -0.1,   -0.0,  999.0,  999.0,    0.3,    0.1,   -0.1,    0.2,    0.1,    0.2,    0.0,  999.0,  999.0,   -0.0,    0.6,   -0.0,  999.0,  999.0,   -0.4,   -0.1,    0.2,  999.0,  999.0,    0.1,    0.2,    0.1,    0.1,    0.4,  999.0,  999.0,  999.0,  999.0,    0.0,    0.0,    0.1,    0.1,    0.1,    0.1,    0.2,    0.1,    0.1,    0.0,  999.0,    0.0,   -0.0,   -0.0,  999.0,   -0.0,  999.0,   -0.1,  999.0,  999.0
2003/02/26 18:10,   -0.1,   -0.0,   -0.1,   -0.1,   -0.1,   -0.1,   -0.2,   -0.2,   -0.1,   -0.3,   -0.2,   -0.2,   -0.2,   -0.3,   -0.1,   -0.1,   -0.2,   -0.1,    0.1,    0.1,   -0.0,   -0.0,   -0.1,   -0.0,   -0.1,   -0.1,    0.0,   -0.0,   -0.0,   -0.1,   -0.1,   -0.1,   -0.0,   -0.1,    0.0,    0.0,    0.1,    0.1,    0.2,    0.2,    0.1,    0.1,    0.1,    0.1,    0.1,    0.0,    0.0,    0.1,    0.0,    0.0,   -0.0,    0.0,    0.0,   -0.0,    0.0,   -0.1,   -0.0,    0.0,    0.1,    0.0,   -0.0,   -0.0,    0.0,    0.1,    0.1,    0.1,    0.1,    0.1,   -0.0,   -0.0,  999.0,  999.0,  999.0,    0.2,   -0.1,    0.2,    0.1,    0.1,   -0.0,    0.2,    0.3,    0.3,    0.2,    0.0,  999.0,    0.1,    0.0,    0.0,    0.2,  999.0,  999.0,    0.2,    0.3,    0.2,    0.3,    0.2,    0.1,  999.0,  999.0,    0.1,   -0.1,   -0.2,   -0.1,   -0.2,   -0.2,   -0.1,   -0.1,   -0.1,   -0.1,  999.0,  999.0,  999.0,   -0.1,   -0.1,   -0.1,   -0.1,   -0.1,   -0.3,   -0.3,  999.0
2003/02/26 18:20,    0.0,    0.0,   -0.1,   -0.0,   -0.1,   -0.2,   -0.2,   -0.2,   -0.3,   -0.1,   -0.1,   -0.0,   -0.0,    0.0,    0.0,    0.1,    0.1,    0.0,    0.2,    0.1,    0.1,  999.0,   -0.1,   -0.1,   -0.0,   -0.0,    0.0,    0.0,   -0.1,    0.0,    0.0,   -0.0,    0.0,   -0.0,    0.1,    0.1,    0.1,    0.1,    0.3,    0.2,    0.2,    0.3,    0.2,    0.2,    0.3,    0.2,    0.3,    0.3,    0.2,    0.1,    0.2,    0.3,    0.0,    0.0,    0.0,   -0.0,   -0.0,    0.1,    0.1,    0.0,    0.1,    0.0,    0.0,    0.1,   -0.1,   -0.0,   -0.1,   -0.0,   -0.2,   -0.4,  999.0,  999.0,  999.0,   -0.2,   -0.4,  999.0,   -0.3,   -0.0,  999.0,  999.0,  999.0,   -0.1,  999.0,   -0.3,  999.0,  999.0,   -0.3,   -0.3,  999.0,  999.0,  999.0,  999.0,   -0.2,   -0.2,    0.0,   -0.1,    0.0,  999.0,  999.0,    0.1,   -0.0,    0.1,    0.1,    0.0,   -0.0,   -0.1,  999.0,   -0.0,    0.0,  999.0,  999.0,   -0.1,   -0.2,   -0.1,   -0.1,   -0.0,  999.0,  999.0,  999.0,  999.0
2003/02/26 18:30,    0.0,    0.1,    0.1,   -0.0,   -0.0,    0.0,   -0.1,   -0.1,   -0.1,    0.1,    0.0,    0.1,    0.1,    0.2,    0.2,    0.2,    0.2,    0.2,    0.3,    0.1,   -0.0,   -0.1,   -0.1,   -0.1,    0.1,    0.2,    0.1,    0.2,    0.1,    0.2,    0.2,    0.1,    0.0,   -0.0,   -0.0,    0.0,   -0.0,    0.1,    0.1,    0.1,    0.1,    0.0,    0.0,   -0.0,   -0.1,    0.1,    0.1,    0.0,   -0.0,    0.0,   -0.0,   -0.0,   -0.0,   -0.1,   -0.1,   -0.1,    0.0,    0.0,    0.0,   -0.0,    0.1,    0.0,    0.1,    0.1,   -0.3,   -0.4,   -0.5,   -0.1,   -0.1,   -0.4,  999.0,  999.0,  999.0,   -0.2,   -0.3,    0.4,   -0.0,  999.0,  999.0,   -0.5,  999.0,  999.0,  999.0,   -0.1,  999.0,  999.0,   -0.5,   -0.2,    0.2,  999.0,  999.0,   -0.2,   -0.2,    0.1,    0.2,    0.2,    0.1,  999.0,  999.0,    0.0,   -0.0,   -0.1,   -0.0,    0.0,   -0.0,    0.0,   -0.0,   -0.1,    0.2,  999.0,    0.1,    0.1,   -0.0,    0.0,   -0.1,    0.1,  999.0,    0.0,  999.0,  999.0
2003/02/26 18:40,   -0.1,    0.0,   -0.1,   -0.2,   -0.2,   -0.1,   -0.0,   -0.0,    0.1,    0.1,    0.0,    0.0,    0.1,    0.1,    0.2,    0.1,    0.2,    0.2,    0.1,    0.0,    0.0,   -0.0,    0.0,    0.0,    0.0,    0.0,    0.1,    0.0,    0.1,    0.1,    0.2,    0.1,    0.1,    0.1,    0.0,    0.0,    0.1,    0.1,    0.1,   -0.0,    0.0,    0.1,    0.0,   -0.1,   -0.0,    0.1,    0.1,    0.1,    0.1,    0.1,    0.1,    0.0,    0.0,    0.0,    0.0,   -0.0,    0.1,    0.1,    0.1,    0.1,    0.2,    0.1,    0.1,    0.2,   -0.1,    0.1,   -0.1,  999.0,    0.0,   -0.1,    0.3,   -0.2,  999.0,   -0.1,    0.1,  999.0,    0.2,   -0.0,    0.6,    0.1,   -0.2,    0.1,  999.0,    0.0,  999.0,  999.0,   -0.1,    0.1,    0.0,  999.0,  999.0,    0.1,   -0.1,   -0.0,    0.0,   -0.1,    0.1,   -0.0,   -0.7,  999.0,    0.0,   -0.1,   -0.1,   -0.1,  999.0,   -0.1,   -0.0,    0.1,    0.0,  999.0,  999.0,  999.0,    0.0,    0.1,   -0.1,   -0.0,    0.0,    0.1,  999.0,  999.0
2003/02/26 18:50,   -0.2,   -0.1,   -0.2,   -0.2,   -0.1,   -0.1,   -0.0,   -0.0,    0.0,   -0.0,   -0.0,   -0.0,   -0.1,   -0.1,   -0.1,   -0.0,    0.1,    0.1,    0.1,    0.1,    0.1,    0.1,    0.0,   -0.1,   -0.1,   -0.1,   -0.1,    0.0,    0.1,    0.1,    0.0,   -0.0,   -0.1,   -0.0,   -0.1,    0.1,    0.1,    0.0,    0.2,   -0.0,   -0.0,    0.0,    0.0,   -0.0,   -0.0,   -0.1,   -0.1,    0.0,    0.1,    0.1,    0.1,    0.1,    0.1,    0.1,    0.1,    0.0,    0.2,    0.1,    0.2,    0.2,    0.2,    0.1,    0.1,    0.2,    0.2,    0.3,    0.1,   -0.0,    0.1,    0.1,    0.3,    0.0,    0.1,    0.1,    0.1,    0.7,    0.1,    0.1,   -0.0,    0.2,   -0.2,   -0.2,   -0.7,    0.3,  999.0,   -0.1,    0.1,    0.3,    0.2,   -0.0,  999.0,    0.2,   -0.1,    0.1,   -0.1,   -0.2,   -0.2,   -0.1,  999.0,   -0.1,   -0.0,    0.0,    0.0,   -0.0,  999.0,   -0.1,   -0.1,   -0.0,   -0.0,  999.0,  999.0,  999.0,   -0.2,    0.0,   -0.0,   -0.0,   -0.1,  999.0,  999.0,  999.0
2003/02/26 19:00,   -0.0,   -0.1,   -0.2,   -0.2,   -0.3,   -0.3,   -0.2,   -0.2,   -0.2,   -0.2,   -0.2,   -0.3,   -0.3,   -0.3,   -0.2,   -0.2,   -0.1,   -0.0,    0.0,   -0.1,   -0.1,    0.1,    0.2,    0.2,    0.2,    0.1,    0.0,    0.1,    0.1,    0.1,    0.0,   -0.0,   -0.1,   -0.1,   -0.0,   -0.0,    0.1,    0.2,    0.2,    0.3,    0.2,    0.2,    0.0,   -0.0,    0.0,   -0.0,    0.0,    0.1,    0.0,   -0.0,    0.0,    0.1,    0.3,    0.2,    0.2,    0.1,    0.2,    0.2,    0.2,    0.3,    0.5,    0.2,    0.2,    0.4,    0.3,    0.5,    0.3,    0.1,    0.3,    0.3,    0.2,    0.4,    0.4,    0.4,    0.2,    0.0,    0.3,    0.3,    0.0,    0.3,    1.0,    0.2,  999.0,    0.3,  999.0,  999.0,    0.2,    0.3,    0.2,  999.0,  999.0,    0.1,    0.2,    0.1,    0.0,    0.0,   -0.0,    0.1,  999.0,  999.0,    0.1,    0.1,   -0.1,   -0.1,  999.0,   -0.0,    0.0,    0.0,    0.0,  999.0,  999.0,  999.0,   -0.2,    0.1,    0.1,   -0.0,   -0.1,  999.0,  999.0,  999.0
2003/02/26 19:10,    0.1,    0.3,    0.1,    0.1,    0.1,    0.1,    0.0,   -0.0,    0.0,    0.1,    0.0,    0.1,    0.0,    0.0,   -0.0,   -0.1,   -0.0,    0.0,    0.2,    0.1,   -0.0,    0.1,    0.1,    0.2,    0.1,    0.1,    0.1,    0.0,    0.1,   -0.0,   -0.1,   -0.0,    0.1,    0.1,   -0.1,    0.0,    0.1,    0.0,   -0.1,   -0.1,   -0.1,   -0.1,   -0.1,   -0.1,   -0.1,   -0.2,   -0.1,   -0.1,   -0.1,   -0.2,   -0.1,   -0.1,   -0.2,   -0.2,   -0.1,   -0.1,    0.0,   -0.1,    0.0,    0.0,   -0.3,    0.0,    0.1,    0.3,    0.1,    0.1,    0.1,    0.0,    0.0,    0.0,    0.3,    0.2,    0.4,   -0.2,    0.1,    0.2,    0.4,    0.2,    0.2,    0.3,  999.0,    0.1,   -0.8,   -0.0,   -0.0,    0.3,   -0.1,    0.2,    0.1,    0.2,    0.2,    0.2,    0.2,    0.1,    0.0,    0.2,    0.0,    0.1,  999.0,  999.0,   -0.0,   -0.1,   -0.1,   -0.1,  999.0,  999.0,    0.1,    0.0,  999.0,  999.0,  999.0,  999.0,   -0.0,    0.1,    0.1,    0.1,    0.0,   -0.1,    0.0,   -0.1
2003/02/26 19:20,    0.1,    0.1,    0.1,    0.1,    0.1,    0.1,    0.0,   -0.0,   -0.0,   -0.0,   -0.1,   -0.1,   -0.1,   -0.0,    0.1,    0.1,    0.1,    0.3,    0.2,    0.1,    0.1,    0.1,    0.1,    0.1,    0.1,    0.1,    0.1,    0.2,    0.2,    0.2,    0.2,    0.1,    0.0,   -0.1,   -0.0,    0.0,   -0.0,    0.0,    0.0,   -0.0,   -0.1,   -0.1,   -0.0,    0.0,    0.0,   -0.0,   -0.1,   -0.1,   -0.2,   -0.2,   -0.3,   -0.2,   -0.3,   -0.3,   -0.1,   -0.2,    0.1,   -0.1,   -0.1,    0.3,   -0.1,    0.0,    0.3,    0.3,    0.1,   -0.1,    0.3,    0.0,    0.3,    0.0,    0.7,   -0.2,   -0.2,    0.0,    0.5,    0.1,    0.2,    0.3,    0.3,    0.5,  999.0,    0.1,  999.0,    0.4,   -0.3,    0.1,    0.4,    0.4,    0.3,   -0.1,    0.2,    0.1,    0.3,    0.3,    0.2,    0.2,   -0.0,    0.2,  999.0,  999.0,    0.1,    0.1,    0.0,    0.0,  999.0,  999.0,   -0.0,   -0.0,   -0.1,  999.0,  999.0,   -0.1,    0.0,    0.0,    0.0,    0.0,    0.0,   -0.0,  999.0,   -0.1
2003/02/26 19:30,    0.1,   -0.0,   -0.0,   -0.0,   -0.1,   -0.1,   -0.1,   -0.3,   -0.3,   -0.3,   -0.2,   -0.3,   -0.2,   -0.2,   -0.2,   -0.1,    0.0,    0.1,    0.2,    0.0,    0.0,  999.0,    0.1,    0.0,    0.0,    0.1,   -0.0,    0.1,    0.1,    0.1,    0.1,    0.0,   -0.0,    0.0,    0.1,    0.1,    0.1,    0.1,    0.1,   -0.0,    0.0,    0.1,    0.1,    0.2,    0.2,    0.1,    0.2,    0.1,    0.2,    0.1,    0.1,    0.1,    0.1,    0.1,    0.1,    0.2,    0.8,    0.1,    0.3,    0.5,   -0.1,    0.4,    1.1,    1.0,    1.1,    0.1,    0.7,  999.0,  999.0,    1.4,    0.2,   -0.2,    0.0,    1.0,    0.9,    0.6,    1.0,    1.1,    1.1,    0.4,   -0.1,    0.6,    0.2,    0.8,  999.0,    0.1,    0.0,    0.7,    0.4,    0.4,    0.2,    0.1,    0.3,    0.8,    0.4,    0.0,   -0.0,    0.0,    0.4,  999.0,    0.0,   -0.0,    0.0,    0.0,  999.0,   -0.0,   -0.1,   -0.1,   -0.2,  999.0,  999.0,    0.1,    0.0,    0.1,    0.1,    0.1,    0.1,  999.0,  999.0,   -0.0
2003/02/26 19:40,    0.1,   -0.1,   -0.1,   -0.0,   -0.1,   -0.0,   -0.1,   -0.1,   -0.0,    0.0,   -0.0,   -0.0,   -0.0,   -0.0,   -0.0,   -0.0,    0.0,    0.1,    0.1,    0.1,    0.0,    0.1,    0.1,    0.1,    0.1,    0.1,    0.0,    0.0,   -0.1,   -0.1,   -0.0,   -0.1,   -0.1,    0.1,    0.0,    0.1,    0.0,   -0.0,   -0.0,   -0.1,   -0.1,   -0.0,    0.1,    0.1,    0.1,    0.0,    0.0,    0.1,    0.1,    0.1,    0.1,    0.1,    0.1,    0.1,    0.2,    0.1,    0.1,    0.2,    0.3,    0.2,    0.1,    0.1,    0.1,    0.1,    0.1,    0.2,   -0.0,  999.0,    0.2,    0.0,   -0.3,    0.1,    0.0,    0.4,    0.1,    0.2,    0.0,    0.6,   -0.0,   -0.1,   -0.3,   -0.0,   -0.2,   -0.1,  999.0,   -0.1,    0.1,    0.2,   -0.0,  999.0,  999.0,   -0.2,    0.1,    0.1,   -0.1,   -0.0,    0.1,   -0.0,  999.0,    0.1,    0.0,    0.0,    0.0,   -0.1,  999.0,   -0.1,   -0.1,   -0.0,  999.0,  999.0,  999.0,    0.3,   -0.0,   -0.1,    0.0,    0.0,  999.0,  999.0,  999.0,  999.0
2003/02/26 19:50,   -0.2,   -0.3,   -0.1,   -0.2,   -0.3,   -0.3,   -0.2,   -0.1,   -0.2,   -0.1,   -0.1,   -0.1,   -0.1,    0.0,    0.0,   -0.1,    0.0,    0.0,    0.1,    0.1,    0.1,    0.1,    0.0,    0.0,    0.1,    0.0,   -0.0,   -0.1,   -0.1,   -0.1,    0.0,   -0.0,    0.0,    0.1,    0.1,    0.0,    0.0,   -0.0,   -0.1,   -0.1,   -0.1,   -0.1,    0.0,    0.1,    0.1,    0.1,    0.1,   -0.0,   -0.1,   -0.1,   -0.1,   -0.0,    0.0,    0.1,    0.0,    0.0,   -0.3,    0.2,  999.0,    0.3,    0.2,   -0.0,    0.0,   -0.0,    0.0,    0.2,   -0.3,  999.0,   -0.1,   -0.3,  999.0,  999.0,    0.5,    0.4,   -0.3,  999.0,   -0.5,    0.6,  999.0,   -0.4,  999.0,  999.0,  999.0,   -0.2,  999.0,  999.0,   -0.1,   -0.2,    0.1,  999.0,  999.0,   -0.0,    0.1,   -0.1,   -0.0,    0.1,    0.4,   -0.0,    0.1,  999.0,   -0.0,    0.0,    0.0,  999.0,  999.0,   -0.1,   -0.1,  999.0,  999.0,  999.0,   -0.1,  999.0,    0.0,   -0.0,  999.0,    0.0,  999.0,  999.0,  999.0,  999.0
2003/02/26 20:00,   -0.1,    0.1,    0.0,   -0.1,   -0.1,   -0.1,   -0.1,   -0.0,    0.0,   -0.0,    0.0,   -0.0,   -0.0,   -0.1,   -0.0,   -0.1,   -0.1,   -0.0,   -0.0,   -0.1,   -0.1,   -0.0,    0.1,    0.0,   -0.1,    0.0,    0.0,    0.1,    0.1,    0.0,    0.0,    0.0,    0.1,    0.1,    0.0,   -0.1,   -0.0,   -0.1,   -0.1,   -0.1,   -0.1,   -0.1,   -0.2,   -0.1,   -0.1,   -0.1,   -0.0,   -0.1,   -0.0,   -0.2,   -0.1,   -0.1,   -0.1,   -0.0,    0.0,    0.1,    0.1,    0.1,   -0.0,    0.1,   -0.1,    0.1,    0.0,    0.0,   -0.0,    0.0,    0.1,    0.2,    0.1,    0.0,   -0.5,   -0.1,    0.8,    0.5,    0.2,    0.2,    0.4,    0.3,    0.4,    0.5,  999.0,    0.1,    0.2,    0.2,    0.2,  999.0,    0.4,    0.2,    0.3,  999.0,  999.0,   -0.0,    0.1,    0.1,    0.1,    0.0,    0.2,    0.0,   -0.1,   -0.1,   -0.0,   -0.0,    0.0,  999.0,  999.0,    0.0,    0.0,  999.0,  999.0,  999.0,    0.1,   -0.0,    0.1,    0.1,    0.1,    0.1,   -0.1,  999.0,  999.0,  999.0
2003/02/26 20:10,   -0.1,   -0.1,   -0.1,   -0.1,   -0.1,   -0.1,   -0.0,   -0.0,   -0.1,   -0.1,   -0.0,    0.0,    0.1,    0.0,    0.0,    0.0,    0.0,   -0.1,   -0.1,   -0.1,   -0.1,   -0.0,   -0.0,   -0.0,   -0.0,    0.1,    0.1,    0.2,    0.2,    0.1,    0.1,    0.1,    0.1,    0.1,    0.0,    0.1,    0.1,    0.1,    0.1,    0.2,    0.0,   -0.0,   -0.1,   -0.1,    0.0,    0.1,    0.1,    0.1,    0.2,    0.1,    0.2,    0.1,    0.1,    0.0,    0.1,    0.5,    0.1,    0.1,    0.1,   -0.0,   -0.3,   -0.2,   -0.0,   -0.1,   -0.1,    0.1,   -0.1,  999.0,   -0.1,   -0.0,   -0.2,  999.0,    0.6,    0.6,    0.1,  999.0,    0.4,  999.0,    0.4,   -0.0,  999.0,    0.0,    0.2,   -0.2,  999.0,  999.0,    0.2,    0.2,    0.5,  999.0,  999.0,    0.0,    0.1,    0.0,    0.0,   -0.0,    0.1,   -0.0,   -0.2,   -0.0,   -0.0,   -0.0,   -0.0,  999.0,  999.0,    0.0,   -0.0,  999.0,  999.0,  999.0,   -0.2,    0.1,   -0.0,   -0.1,   -0.1,    0.0,   -0.1,  999.0,  999.0,   -0.4
2003/02/26 20:20,    0.0,   -0.2,   -0.0,   -0.0,   -0.0,   -0.0,   -0.1,    0.0,   -0.1,   -0.1,   -0.1,    0.1,    0.1,    0.1,    0.1,    0.1,    0.1,    0.1,    0.1,    0.1,    0.0,   -0.1,   -0.2,   -0.3,   -0.2,   -0.1,   -0.1,   -0.1,   -0.2,   -0.3,   -0.4,   -0.4,   -0.4,   -0.2,   -0.1,   -0.1,    0.1,    0.1,    0.2,    0.1,    0.2,    0.2,    0.1,    0.1,    0.0,    0.1,    0.1,    0.2,    0.2,    0.2,    0.1,    0.2,    0.1,    0.1,    0.3,    0.2,    0.1,    0.2,    0.4,    0.1,    0.2,    0.1,    0.1,   -0.0,    0.0,    0.3,   -0.0,  999.0,   -0.1,   -0.1,   -0.1,    0.4,    0.1,    0.5,    0.4,    0.5,    0.6,    0.7,    0.5,   -0.1,    0.2,    0.3,   -0.4,    0.0,  999.0,    0.2,    0.2,    0.1,   -0.1,  999.0,  999.0,    0.0,    0.1,    0.1,    0.0,    0.0,   -0.0,   -0.1,   -0.1,    0.0,    0.1,   -0.0,    0.0,    0.2,  999.0,    0.0,    0.1,   -0.1,  999.0,  999.0,  999.0,  999.0,   -0.1,   -0.0,   -0.1,   -0.0,    0.1,    0.0,  999.0,   -0.1
2003/02/26 20:30,   -0.2,   -0.2,   -0.2,   -0.2,   -0.2,   -0.2,   -0.3,   -0.3,   -0.3,   -0.3,   -0.4,   -0.4,   -0.3,   -0.2,   -0.1,   -0.1,    0.2,    0.2,    0.1,    0.0,   -0.1,   -0.1,   -0.1,   -0.1,    0.0,    0.0,    0.1,    0.0,    0.1,   -0.0,   -0.1,   -0.1,   -0.1,   -0.1,   -0.0,   -0.0,    0.1,    0.1,    0.1,    0.2,    0.1,    0.1,    0.0,   -0.0,   -0.0,    0.0,   -0.1,   -0.1,   -0.2,   -0.1,   -0.1,   -0.1,   -0.1,   -0.1,   -0.1,  999.0,   -0.2,  999.0,    0.1,    0.2,    0.0,    0.1,    0.0,   -0.2,    0.3,   -0.7,   -0.4,  999.0,   -0.5,   -0.4,    0.4,  999.0,  999.0,    0.0,   -0.1,  999.0,    0.5,    0.7,    0.6,  999.0,  999.0,    0.4,  999.0,    0.1,  999.0,  999.0,   -0.5,    0.1,  999.0,  999.0,  999.0,   -0.2,   -0.1,   -0.1,   -0.0,    0.0,    0.1,  999.0,    0.0,  999.0,    0.1,    0.1,    0.1,  999.0,  999.0,   -0.0,    0.0,  999.0,  999.0,  999.0,  999.0,  999.0,   -0.0,   -0.0,    0.0,  999.0,  999.0,  999.0,  999.0,   -0.0
2003/02/26 20:40,   -0.1,   -0.0,    0.0,    0.0,    0.1,    0.1,   -0.0,    0.1,   -0.0,   -0.1,   -0.1,   -0.0,   -0.1,   -0.0,    0.0,   -0.1,    0.1,    0.2,    0.1,    0.1,    0.1,   -0.1,   -0.1,   -0.1,    0.2,    0.0,   -0.0,   -0.0,   -0.1,   -0.0,   -0.0,    0.1,    0.1,    0.2,    0.1,    0.1,    0.2,    0.1,   -0.0,   -0.2,   -0.2,   -0.2,   -0.2,   -0.3,   -0.3,   -0.2,   -0.2,   -0.2,   -0.2,   -0.2,   -0.1,   -0.1,   -0.1,   -0.1,   -0.0,    0.1,  999.0,  999.0,    0.2,    0.9,    0.3,    1.0,    0.7,    0.5,    1.5,    0.2,    0.7,  999.0,    0.4,    0.1,  999.0,  999.0,  999.0,    0.4,    0.8,  999.0,    0.7,    0.4,  999.0,    0.3,  999.0,    0.0,   -0.4,  999.0,  999.0,  999.0,  999.0,    0.8,  999.0,  999.0,  999.0,   -0.3,   -0.2,    0.4,   -0.0,   -0.5,  999.0,   -0.3,  999.0,  999.0,    0.0,    0.1,    0.2,    0.3,  999.0,    0.2,    0.1,    0.0,  999.0,  999.0,  999.0,  999.0,   -0.0,    0.1,    0.0,  999.0,  999.0,  999.0,  999.0,   -0.1
2003/02/26 20:50,   -0.2,    0.1,   -0.0,    0.0,    0.0,    0.0,    0.0,    0.1,   -0.0,   -0.0,    0.0,    0.0,   -0.0,    0.0,   -0.2,   -0.2,   -0.1,   -0.1,   -0.0,   -0.1,   -0.1,    0.0,   -0.2,   -0.0,   -0.0,   -0.1,    0.0,  999.0,   -0.1,    0.0,   -0.1,    0.0,    0.0,    0.1,    0.1,    0.1,    0.0,   -0.0,   -0.0,   -0.0,   -0.1,   -0.1,   -0.1,   -0.2,   -0.1,   -0.1,   -0.0,   -0.1,   -0.1,   -0.1,   -0.1,   -0.1,    0.0,   -0.1,   -0.1,   -0.1,  999.0,  999.0,    0.1,  999.0,    0.4,    0.6,  999.0,  999.0,    0.3,  999.0,    0.0,  999.0,   -0.0,    1.0,  999.0,  999.0,  999.0,  999.0,    1.4,  999.0,  999.0,  999.0,  999.0,  999.0,  999.0,  999.0,  999.0,  999.0,  999.0,  999.0,    0.0,  999.0,  999.0,  999.0,  999.0,   -0.1,   -0.4,    0.4,   -0.2,  999.0,  999.0,  999.0,  999.0,  999.0,    0.1,    0.1,    0.1,    0.1,  999.0,    0.2,   -0.1,   -0.0,  999.0,  999.0,  999.0,  999.0,    0.1,    0.1,    0.1,  999.0,  999.0,  999.0,  999.0,    0.0
2003/02/26 21:00,   -0.5,   -0.1,   -0.1,   -0.1,   -0.0,   -0.0,   -0.1,   -0.1,   -0.1,   -0.2,   -0.2,   -0.1,   -0.1,   -0.1,   -0.1,   -0.2,   -0.1,   -0.1,    0.0,   -0.0,   -0.0,   -0.0,    0.1,    0.1,    0.1,   -0.0,    0.0,   -0.0,    0.1,    0.1,    0.0,   -0.0,   -0.0,    0.0,   -0.0,   -0.0,   -0.1,   -0.2,   -0.2,   -0.0,   -0.1,   -0.2,   -0.2,   -0.2,   -0.1,   -0.0,    0.0,    0.0,   -0.1,    0.0,   -0.0,    0.0,   -0.0,   -0.2,   -0.2,   -0.1,  999.0,  999.0,  999.0,    0.5,    0.1,    0.3,    0.8,    0.5,    0.3,  999.0,    0.1,  999.0,    0.5,    0.4,  999.0,  999.0,  999.0,  999.0,   -0.3,  999.0,    1.6,    1.6,  999.0,  999.0,  999.0,  999.0,  999.0,  999.0,  999.0,  999.0,  999.0,  999.0,  999.0,  999.0,  999.0,   -0.7,    0.2,    0.6,   -0.1,  999.0,  999.0,  999.0,  999.0,  999.0,    0.0,    0.2,    0.1,    0.1,  999.0,    0.0,   -0.1,  999.0,  999.0,  999.0,  999.0,  999.0,   -0.0,    0.1,    0.0,  999.0,  999.0,  999.0,  999.0,    0.0
2003/02/26 21:10,   -0.3,   -0.0,    0.1,    0.1,    0.1,    0.1,   -0.0,   -0.1,   -0.0,   -0.0,    0.0,    0.0,    0.1,    0.1,    0.1,    0.1,    0.1,    0.1,    0.2,    0.1,    0.1,    0.1,    0.1,  999.0,    0.1,    0.1,    0.2,  999.0,    0.1,    0.1,   -0.1,   -0.1,   -0.2,   -0.2,   -0.1,   -0.2,   -0.2,   -0.3,   -0.2,   -0.1,   -0.1,   -0.2,   -0.3,   -0.3,   -0.3,   -0.3,   -0.2,   -0.2,   -0.1,   -0.0,    0.0,    0.1,    0.1,    0.1,    0.1,   -0.2,    0.5,  999.0,  999.0,    0.5,   -0.1,    0.2,    0.8,    0.5,    1.0,   -0.1,    0.0,   -0.0,    0.3,    0.7,  999.0,  999.0,  999.0,    1.8,    0.9,  999.0,  999.0,  999.0,  999.0,  999.0,  999.0,  999.0,  999.0,  999.0,  999.0,  999.0,  999.0,    1.3,  999.0,  999.0,  999.0,    0.2,    0.4,    0.6,    0.3,  999.0,  999.0,  999.0,  999.0,  999.0,  999.0,    0.1,    0.1,    0.0,  999.0,    0.0,    0.0,  999.0,  999.0,  999.0,  999.0,    0.0,    0.0,    0.1,  999.0,  999.0,  999.0,  999.0,  999.0,  999.0
2003/02/26 21:20,    0.1,    0.0,    0.0,    0.0,    0.1,    0.0,   -0.0,    0.0,    0.0,   -0.1,   -0.0,   -0.0,   -0.0,   -0.1,   -0.1,   -0.1,   -0.0,    0.1,   -0.0,   -0.1,   -0.0,    0.1,    0.1,    0.2,    0.1,    0.1,    0.1,  999.0,    0.1,    0.0,   -0.0,    0.0,   -0.0,    0.0,    0.0,    0.1,    0.0,    0.1,    0.1,    0.1,    0.1,    0.1,   -0.0,   -0.0,   -0.1,   -0.1,    0.1,    0.1,    0.1,    0.1,    0.1,    0.3,    0.3,    0.3,    0.3,    0.3,    0.3,    0.4,    0.4,    0.4,    0.1,    0.4,    0.6,    0.8,    0.9,    0.4,    0.0,    0.1,    0.3,    0.4,  999.0,  999.0,  999.0,    1.1,    1.0,  999.0,    0.5,    0.7,  999.0,  999.0,    0.6,  999.0,  999.0,    0.9,  999.0,  999.0,    1.2,    0.8,  999.0,  999.0,  999.0,    0.3,  999.0,  999.0,    0.7,  999.0,  999.0,  999.0,  999.0,  999.0,   -0.0,    0.1,    0.0,   -0.0,   -0.0,   -0.0,   -0.0,   -0.1,  999.0,  999.0,  999.0,  999.0,   -0.0,   -0.1,   -0.1,  999.0,  999.0,  999.0,  999.0,  999.0
2003/02/26 21:30,    0.4,  999.0,  999.0,    0.0,    0.0,    0.1,    0.0,    0.1,    0.1,    0.0,    0.0,    0.0,    0.1,    0.1,    0.0,    0.0,    0.0,   -0.1,   -0.1,   -0.1,   -0.1,   -0.1,    0.0,    0.1,   -0.0,   -0.0,   -0.1,   -0.1,   -0.1,   -0.1,    0.0,    0.1,    0.2,    0.2,    0.2,    0.2,    0.2,    0.0,    0.0,    0.0,    0.0,    0.0,   -0.0,   -0.1,   -0.0,   -0.1,    0.1,    0.1,   -0.1,    0.1,    0.1,    0.2,    0.3,    0.2,    0.2,    0.3,    0.2,    0.2,    0.2,    0.7,    0.4,    0.3,    0.8,    0.7,  999.0,    0.5,    0.7,  999.0,    1.3,    1.0,  999.0,  999.0,  999.0,  999.0,    1.7,  999.0,    0.3,    0.9,  999.0,  999.0,  999.0,  999.0,  999.0,  999.0,  999.0,  999.0,  999.0,    0.3,  999.0,  999.0,  999.0,    0.4,    1.0,    0.6,    0.5,    0.5,  999.0,    0.3,  999.0,  999.0,   -0.0,   -0.0,   -0.0,   -0.0,   -0.1,   -0.1,   -0.0,  999.0,  999.0,  999.0,  999.0,  999.0,   -0.2,   -0.2,  999.0,  999.0,    0.1,  999.0,  999.0,  999.0
2003/02/26 21:40,   -0.3,   -0.1,   -0.0,    0.0,   -0.0,    0.1,    0.1,    0.1,    0.1,    0.1,    0.1,    0.0,    0.1,    0.0,    0.1,    0.1,    0.1,    0.1,    0.1,    0.0,    0.1,    0.1,    0.1,    0.0,   -0.0,    0.1,    0.1,   -0.0,    0.0,    0.0,   -0.0,    0.1,    0.1,    0.1,    0.1,    0.0,    0.2,    0.1,    0.1,    0.2,    0.3,    0.2,    0.3,    0.2,    0.3,    0.3,    0.2,    0.3,    0.2,    0.2,    0.1,    0.0,   -0.1,   -0.1,   -0.1,   -0.1,   -0.1,   -0.2,   -0.2,    0.1,   -0.1,    0.3,    0.2,    0.1,  999.0,   -0.1,   -0.4,  999.0,   -0.3,  999.0,    0.1,  999.0,    0.1,  999.0,  999.0,   -0.3,    0.1,    0.6,  999.0,  999.0,  999.0,  999.0,  999.0,   -0.1,  999.0,  999.0,    0.9,    0.2,    0.5,  999.0,  999.0,   -0.2,   -0.2,    0.0,   -0.3,   -0.5,  999.0,  999.0,  999.0,  999.0,    0.1,    0.0,    0.0,    0.1,    0.1,    0.1,    0.0,  999.0,  999.0,  999.0,  999.0,   -0.1,   -0.1,  999.0,  999.0,  999.0,  999.0,  999.0,  999.0,   -0.1
2003/02/26 21:50,   -0.2,   -0.1,   -0.0,   -0.0,   -0.0,   -0.0,    0.0,   -0.1,   -0.1,   -0.1,   -0.1,   -0.1,   -0.1,   -0.1,   -0.1,   -0.1,   -0.0,    0.0,   -0.0,   -0.0,    0.1,    0.2,    0.1,    0.0,    0.0,   -0.0,   -0.0,  999.0,   -0.0,   -0.1,   -0.1,  999.0,   -0.0,   -0.0,   -0.0,   -0.0,    0.1,    0.1,    0.1,    0.1,    0.1,    0.0,    0.1,   -0.0,   -0.2,   -0.1,   -0.1,   -0.0,    0.0,   -0.0,   -0.1,   -0.1,   -0.2,   -0.2,   -0.2,   -0.2,   -0.3,   -0.3,   -0.1,   -0.1,   -0.2,   -0.2,   -0.3,   -0.2,   -0.5,   -0.0,   -0.3,  999.0,   -0.3,   -0.3,   -0.1,    0.1,   -0.0,   -0.8,   -0.2,   -0.3,   -0.5,  999.0,  999.0,  999.0,  999.0,  999.0,  999.0,   -0.2,  999.0,  999.0,   -0.1,   -0.4,   -0.4,  999.0,   -0.7,   -0.3,   -0.5,   -0.4,   -0.4,   -0.3,   -0.4,   -0.3,    0.0,  999.0,    0.1,    0.1,    0.1,    0.0,    0.0,    0.0,   -0.1,   -0.0,   -0.1,   -0.0,   -0.1,   -0.1,   -0.0,   -0.0,  999.0,   -0.4,  999.0,  999.0,  999.0,  999.0
2003/02/26 22:00,    0.1,    0.1,    0.1,    0.1,   -0.0,    0.0,   -0.0,   -0.1,   -0.0,   -0.2,   -0.1,   -0.1,   -0.1,   -0.1,   -0.1,   -0.1,   -0.1,   -0.1,   -0.0,   -0.0,    0.1,    0.1,    0.1,  999.0,   -0.1,   -0.1,   -0.0,    0.0,   -0.1,   -0.0,   -0.2,   -0.1,    0.0,  999.0,  999.0,    0.1,    0.1,    0.1,    0.1,    0.0,    0.0,    0.1,    0.1,    0.1,    0.1,    0.0,   -0.2,   -0.1,   -0.0,   -0.0,    0.0,    0.0,    0.0,    0.1,    0.1,    0.1,    0.1,    0.1,    0.1,    0.0,    0.0,    0.0,   -0.0,    0.2,    0.1,    0.3,    0.2,  999.0,   -0.0,   -0.0,   -0.1,    0.5,    0.2,   -0.1,    0.0,    0.3,    0.4,    0.4,    0.7,    0.6,  999.0,    0.4,  999.0,    0.2,  999.0,  999.0,    0.4,    0.1,   -0.1,  999.0,  999.0,    0.1,   -0.0,    0.1,   -0.0,   -0.0,  999.0,   -0.0,    0.0,   -0.1,   -0.1,   -0.1,   -0.0,   -0.0,   -0.0,   -0.0,   -0.1,   -0.1,   -0.1,   -0.2,  999.0,   -0.0,   -0.0,   -0.1,  999.0,  999.0,  999.0,  999.0,  999.0,  999.0
2003/02/26 22:10,    0.1,    0.0,    0.0,   -0.1,   -0.1,   -0.1,   -0.2,   -0.1,   -0.2,   -0.1,   -0.1,   -0.1,   -0.1,   -0.0,   -0.1,   -0.1,   -0.1,   -0.1,   -0.1,  999.0,    0.0,    0.1,    0.1,    0.1,    0.1,   -0.1,   -0.1,   -0.2,   -0.0,   -0.1,   -0.0,    0.1,    0.2,    0.2,    0.1,    0.1,    0.2,    0.1,    0.1,    0.3,    0.2,    0.1,    0.1,    0.1,    0.1,   -0.1,   -0.2,   -0.2,   -0.1,   -0.1,   -0.1,   -0.1,   -0.0,    0.1,    0.1,    0.1,    0.1,    0.1,    0.2,    0.1,    0.0,    0.0,    0.0,    0.1,    0.1,    0.1,    0.1,  999.0,   -0.0,    0.0,    0.0,    0.1,    0.1,   -0.0,   -0.1,    0.7,   -0.1,   -0.1,   -0.1,    0.3,    0.6,    0.1,  999.0,    0.3,    0.3,  999.0,    0.1,    0.1,   -0.1,  999.0,    0.6,    0.1,    0.0,    0.1,   -0.0,    0.1,  999.0,    0.1,    0.1,  999.0,   -0.0,   -0.0,   -0.0,    0.0,    0.0,   -0.0,   -0.0,    0.0,  999.0,   -0.1,    0.0,    0.0,    0.0,   -0.1,   -0.1,  999.0,   -0.1,  999.0,   -0.1,   -0.1
2003/02/26 22:20,   -0.0,   -0.0,   -0.0,   -0.0,   -0.0,    0.0,    0.0,    0.1,    0.2,    0.3,    0.2,    0.2,    0.2,    0.2,    0.2,    0.2,    0.2,    0.1,    0.0,    0.0,    0.1,   -0.1,    0.1,    0.0,   -0.0,   -0.0,   -0.0,    0.0,   -0.0,   -0.0,    0.0,    0.1,    0.1,    0.0,    0.1,    0.1,    0.0,   -0.0,    0.0,    0.1,    0.1,    0.1,    0.1,    0.1,    0.0,   -0.1,   -0.1,   -0.1,   -0.1,   -0.1,   -0.2,   -0.2,   -0.1,   -0.1,   -0.1,    0.0,   -0.0,   -0.0,    0.3,   -0.0,   -0.2,   -0.0,    0.0,    0.1,   -0.0,    0.3,   -0.4,   -0.0,   -0.1,   -0.3,   -0.2,   -0.1,   -0.1,   -0.0,   -0.2,    0.5,   -0.3,   -0.2,   -0.5,   -0.3,  999.0,    0.5,  999.0,    0.2,  999.0,  999.0,   -0.0,   -0.0,    0.5,  999.0,   -0.1,    0.0,   -0.1,    0.0,   -0.0,   -0.5,  999.0,  999.0,   -0.0,  999.0,   -0.1,   -0.2,   -0.2,   -0.0,   -0.1,    0.0,   -0.0,   -0.0,  999.0,  999.0,   -0.1,   -0.0,   -0.0,    0.1,  999.0,  999.0,  999.0,  999.0,  999.0,    0.1
2003/02/26 22:30,   -0.1,   -0.0,    0.0,    0.0,    0.1,    0.2,    0.2,    0.3,    0.4,    0.3,    0.3,    0.3,    0.2,    0.2,    0.1,    0.1,    0.0,   -0.1,   -0.1,   -0.3,   -0.2,   -0.3,  999.0,   -0.3,   -0.3,   -0.3,   -0.2,   -0.2,   -0.3,   -0.2,   -0.1,    0.1,    0.1,    0.1,    0.1,    0.1,    0.1,    0.1,    0.1,    0.2,    0.1,    0.2,    0.2,    0.3,    0.3,    0.2,    0.1,    0.1,    0.1,    0.1,    0.0,   -0.0,   -0.0,    0.1,   -0.0,    0.1,    0.1,    0.2,    0.1,    0.1,    0.1,    0.0,    0.1,    0.1,    0.0,    0.2,   -0.0,    0.1,   -0.0,   -0.0,    0.2,   -0.1,   -0.0,   -0.0,   -0.1,  999.0,   -0.1,    0.0,   -0.1,  999.0,  999.0,    0.3,  999.0,    0.3,  999.0,  999.0,   -0.0,    0.1,    0.6,  999.0,   -0.2,   -0.1,    0.0,    0.1,    0.0,   -0.1,   -0.1,   -0.0,   -0.2,  999.0,   -0.0,   -0.1,   -0.1,    0.0,    0.0,   -0.0,   -0.1,   -0.0,  999.0,  999.0,   -0.0,    0.2,    0.2,    0.2,  999.0,  999.0,    0.1,  999.0,  999.0,   -0.1
2003/02/26 22:40,    0.1,    0.1,    0.1,    0.1,    0.1,    0.0,    0.0,    0.1,    0.1,    0.1,    0.1,    0.0,   -0.1,  999.0,   -0.1,   -0.1,   -0.1,   -0.0,   -0.1,   -0.2,   -0.1,   -0.1,   -0.0,    0.0,    0.0,   -0.0,    0.1,    0.0,    0.1,    0.1,    0.1,    0.2,    0.1,    0.0,    0.0,    0.0,    0.0,    0.1,    0.1,    0.1,    0.0,    0.1,    0.0,    0.1,    0.2,    0.2,    0.1,    0.2,    0.1,    0.1,    0.3,    0.0,    0.0,   -0.0,    0.0,    0.1,   -0.0,    0.1,    0.1,   -0.1,    0.0,   -0.1,   -0.3,   -0.3,   -0.0,   -0.4,   -0.5,    0.0,   -0.3,   -0.3,    0.0,   -0.0,    0.0,   -0.0,   -0.2,   -0.0,   -0.4,   -0.4,  999.0,  999.0,  999.0,  999.0,  999.0,   -0.7,  999.0,  999.0,   -0.4,   -0.3,   -0.1,  999.0,   -0.1,    0.2,   -0.0,   -0.1,   -0.2,  999.0,    0.4,    0.2,  999.0,  999.0,    0.0,    0.1,    0.1,    0.0,    0.0,    0.1,    0.0,    0.1,  999.0,    0.2,  999.0,    0.3,    0.1,    0.1,    0.1,    0.0,    0.1,  999.0,  999.0,   -0.1
2003/02/26 22:50,    0.3,    0.1,   -0.1,   -0.0,    0.0,   -0.0,    0.0,   -0.0,    0.1,    0.0,   -0.1,   -0.1,   -0.1,   -0.1,   -0.0,   -0.1,   -0.1,  999.0,   -0.1,   -0.2,   -0.1,   -0.1,   -0.1,   -0.1,  999.0,    0.1,    0.1,    0.1,    0.1,    0.1,    0.2,    0.2,   -0.1,   -0.1,   -0.1,   -0.1,   -0.1,   -0.1,   -0.1,   -0.1,   -0.1,   -0.1,   -0.1,   -0.0,    0.1,    0.0,   -0.1,    0.1,   -0.0,   -0.0,    0.0,   -0.1,   -0.1,   -0.1,   -0.1,   -0.0,   -0.0,   -0.1,   -0.1,    0.0,   -0.1,   -0.1,   -0.1,   -0.1,   -0.1,   -0.1,   -0.1,   -0.1,   -0.2,   -0.2,   -0.0,   -0.1,   -0.0,   -0.1,   -0.1,   -0.4,    0.1,    0.2,   -0.7,  999.0,  999.0,    0.1,  999.0,   -0.0,  999.0,  999.0,   -0.2,   -0.0,    0.0,    0.4,  999.0,    0.1,    0.2,   -0.0,    0.0,    0.1,    0.3,    0.0,   -0.2,    0.0,   -0.0,   -0.0,    0.0,    0.0,    0.0,    0.1,    0.1,  999.0,  999.0,  999.0,  999.0,  999.0,    0.0,    0.1,    0.0,   -0.2,  999.0,  999.0,    0.1,   -0.1
2003/02/26 23:00,    0.3,  999.0,   -0.0,    0.0,    0.0,   -0.0,   -0.0,   -0.1,    0.0,    0.0,   -0.2,   -0.1,   -0.1,   -0.1,    0.0,   -0.1,    0.0,    0.1,    0.1,   -0.1,   -0.0,    0.1,    0.1,    0.1,    0.1,    0.1,    0.1,    0.1,    0.1,    0.1,    0.1,  999.0,   -0.1,   -0.1,   -0.1,   -0.1,   -0.1,   -0.1,   -0.1,   -0.1,  999.0,  999.0,   -0.0,    0.0,    0.1,    0.0,   -0.0,    0.1,    0.1,    0.1,    0.1,    0.1,    0.1,    0.1,    0.1,    0.2,    0.2,    0.0,    0.0,    0.2,    0.1,    0.2,    0.3,    0.4,    0.4,    0.1,    0.1,   -0.1,    0.1,    0.4,   -0.1,   -0.1,    0.0,    0.3,    0.4,    0.0,    0.6,    0.6,    0.9,    0.6,  999.0,    0.4,  999.0,    0.4,  999.0,  999.0,    0.3,    0.3,    0.2,  999.0,  999.0,   -0.1,    0.0,    0.4,    0.3,    0.3,  999.0,   -0.1,  999.0,  999.0,    0.1,    0.0,    0.1,    0.0,    0.1,    0.1,    0.1,  999.0,  999.0,  999.0,   -0.2,   -0.1,   -0.1,   -0.1,   -0.0,    0.0,  999.0,  999.0,   -0.1,   -0.3
2003/02/26 23:10,    0.1,    0.1,    0.1,    0.1,    0.0,    0.0,   -0.0,    0.0,   -0.0,    0.0,   -0.0,    0.1,    0.0,   -0.0,    0.0,    0.0,    0.1,    0.1,    0.2,    0.0,    0.1,    0.1,    0.3,    0.2,    0.2,    0.1,    0.1,    0.1,    0.1,    0.1,    0.0,   -0.0,    0.1,    0.1,  999.0,   -0.0,   -0.1,   -0.1,   -0.0,   -0.1,   -0.1,   -0.1,   -0.1,   -0.1,   -0.1,   -0.1,   -0.1,   -0.1,   -0.1,   -0.1,   -0.1,   -0.1,   -0.1,   -0.1,   -0.1,   -0.1,   -0.2,   -0.2,   -0.2,    0.4,   -0.2,    0.2,    0.4,    0.5,    0.4,    0.0,    0.0,   -0.2,    0.1,    0.9,    0.2,    0.4,    0.1,    0.3,    0.6,  999.0,    0.4,    0.1,    1.1,    1.2,   -0.1,   -0.1,    0.2,    0.7,    0.9,    0.5,    0.6,    0.7,    0.1,  999.0,  999.0,    0.2,    0.4,    0.8,    0.6,    0.7,    0.2,    0.2,    0.3,  999.0,    0.0,   -0.0,    0.0,   -0.0,   -0.0,    0.0,   -0.0,   -0.0,  999.0,    0.1,   -0.2,   -0.0,   -0.1,   -0.1,   -0.1,   -0.0,  999.0,   -0.3,   -0.1,   -0.4
2003/02/26 23:20,    0.1,    0.1,    0.1,    0.2,    0.3,    0.3,    0.2,    0.2,    0.3,    0.3,    0.1,    0.1,    0.1,    0.1,    0.1,    0.1,    0.1,  999.0,    0.1,   -0.1,    0.1,   -0.0,  999.0,   -0.1,   -0.0,   -0.0,  999.0,   -0.1,   -0.1,   -0.1,   -0.1,   -0.2,   -0.1,   -0.1,   -0.1,   -0.1,   -0.1,   -0.1,   -0.1,  999.0,   -0.1,   -0.0,    0.0,   -0.0,   -0.0,    0.0,   -0.0,    0.0,   -0.0,   -0.0,   -0.0,    0.0,    0.1,    0.0,    0.0,    0.1,    0.2,    0.1,    0.1,    0.2,    0.1,    0.2,    0.5,    0.5,    0.5,    0.2,    0.3,    0.3,    0.3,    0.3,    0.7,    0.5,    0.3,    0.5,    0.4,    0.4,    0.7,    0.5,    0.6,    0.4,  999.0,    0.9,    0.2,    0.4,    0.8,    0.0,    0.2,    0.4,    0.2,  999.0,  999.0,    0.2,    0.6,    0.5,    0.3,    0.2,  999.0,    0.1,    0.1,    0.0,   -0.0,   -0.0,    0.0,    0.0,    0.0,   -0.1,   -0.0,    0.1,   -0.0,    0.1,   -0.0,   -0.0,   -0.1,   -0.1,   -0.2,    0.0,   -0.0,   -0.4,   -0.2,  999.0
2003/02/26 23:30,   -0.0,   -0.0,   -0.0,    0.1,    0.1,    0.1,    0.1,    0.3,    0.2,    0.1,    0.1,    0.1,    0.1,    0.1,   -0.0,   -0.0,   -0.0,  999.0,   -0.1,   -0.1,   -0.1,   -0.1,   -0.2,   -0.3,   -0.3,   -0.1,   -0.1,    0.1,  999.0,  999.0,   -0.1,   -0.0,   -0.0,   -0.0,   -0.1,   -0.1,   -0.1,   -0.1,   -0.0,   -0.0,   -0.0,   -0.0,    0.0,    0.1,    0.2,    0.1,   -0.1,   -0.1,    0.1,    0.0,    0.2,    0.2,    0.1,    0.1,    0.2,    0.2,    0.3,    0.2,    0.3,    0.5,    0.3,    0.5,    0.8,    0.5,    0.7,    0.3,    0.4,    0.3,    1.1,  999.0,    1.0,  999.0,    0.9,    0.6,    0.7,    0.8,    0.9,    0.8,    0.7,    0.6,  999.0,    1.3,    0.4,    1.1,    0.5,    0.3,    0.4,    0.4,    0.7,    0.6,    1.2,   -0.0,    0.9,    1.0,    0.4,    0.1,    0.1,    0.1,   -0.0,   -0.0,    0.1,   -0.0,    0.0,   -0.0,   -0.0,   -0.1,   -0.0,   -0.0,   -0.1,    0.0,   -0.1,   -0.0,   -0.0,    0.0,    0.0,   -0.3,    0.3,    0.1,    0.2,  999.0
2003/02/26 23:40,   -0.2,   -0.2,   -0.1,   -0.1,   -0.1,   -0.1,   -0.0,    0.0,    0.0,    0.0,   -0.1,   -0.0,    0.0,    0.1,    0.0,   -0.1,   -0.1,  999.0,   -0.1,   -0.1,   -0.1,   -0.1,   -0.1,   -0.1,   -0.0,   -0.0,    0.0,    0.1,  999.0,    0.1,    0.1,    0.0,    0.1,   -0.1,   -0.2,   -0.2,   -0.3,   -0.1,   -0.2,   -0.1,   -0.1,   -0.0,   -0.0,   -0.0,    0.2,    0.3,    0.3,    0.1,    0.1,    0.1,    0.2,    0.1,    0.3,    0.1,    0.1,    0.1,    0.3,    0.1,    0.1,    0.7,    0.3,    0.5,    0.7,    0.9,    1.2,    0.3,    0.3,    0.1,    0.9,  999.0,  999.0,  999.0,    1.0,    0.7,    1.6,    0.6,    1.1,    1.2,  999.0,    1.4,  999.0,    1.6,    0.7,    1.6,    0.2,  999.0,    0.5,    0.3,    0.5,  999.0,  999.0,    0.9,    0.4,    1.0,    0.4,   -0.0,   -0.2,    0.0,    0.0,   -0.0,   -0.0,   -0.1,    0.0,    0.1,    0.0,   -0.0,  999.0,  999.0,    0.1,    0.1,    0.1,    0.0,    0.0,    0.0,   -0.1,   -0.1,  999.0,    0.2,   -0.0,  999.0
